[[{"header":{"parameterUnit":"m.s-1","parameterCategory":1,"la1":31.0,"la2":29.5877,"lo1":-88.7671,"lo2":-86.6584,"dy":0.0162,"dx":0.0185,"nx":115,"ny":88,"refTime":"2023-05-01T00:00:00:Z","depth":0,"parameterNumber":2,"parameterNumberName":"U-component_of_WINDS"},"data":[0.0,0.0,0.0,0.0,0.0,0.0,0.0,0.0,0.0,0.0,0.0,0.0,0.0,0.0,0.0,0.0,0.0,0.0,0.0,0.0,0.0,0.0,0.0,0.0,0.0,0.0,0.0,0.0,0.0,0.0,0.0,0.0,0.0,0.0,0.0,0.0,0.0,0.0,0.0,0.0,0.0,0.0,0.0,0.0,0.0,0.0,0.0,0.0,0.0,0.0,0.0,0.0,0.0,0.0,0.0,0.0,0.0,0.0,0.0,0.0,0.0,0.0,0.0,0.0,0.0,0.0,0.0,0.0,0.0,0.0,0.0,0.0,0.0,0.0,0.0,0.0,0.0,0.0,0.0,0.0,0.0,0.0,0.0,0.0,0.0,0.0,0.0,0.0,0.0,0.0,0.0,0.0,0.0,0.0,0.0,0.0,0.0,0.0,0.0,0.0,0.0,0.0,0.0,0.0,0.0,0.0,0.0,0.0,0.0,0.0,0.0,0.0,0.0,0.0,0.0,0.0,0.0,0.0,0.0,0.0,0.0,0.0,0.0,0.0,0.0,0.0,0.0,0.0,0.0,0.0,0.0,0.0,0.0,0.0,0.0,0.0,0.0,0.0,0.0,0.0,0.0,0.0,0.0,0.0,0.0,0.0,0.0,0.0,0.0,0.0,0.0,0.0,0.0,0.0,0.0,0.0,0.0,0.0,0.0,0.0,0.0,0.0,0.0,0.0,0.0,0.0,0.0,0.0,0.0,0.0,0.0,0.0,0.0,0.0,0.0,0.0,0.0,0.0,0.0,0.0,0.0,0.0,0.0,0.0,0.0,0.0,0.0,0.0,0.0,0.0,0.0,0.0,0.0,0.0,0.0,0.0,0.0,0.0,0.0,0.0,0.0,0.0,0.0,0.0,0.0,0.0,0.0,0.0,0.0,0.0,0.0,0.0,0.0,0.0,0.0,0.0,0.0,0.0,0.0,0.0,0.0,0.0,0.0,0.0,0.0,0.0,0.0,0.0,0.0,0.0,0.0,0.0,0.0,0.0,0.0,0.0,0.0,0.0,0.0,0.0,0.0,0.0,0.0,0.0,0.0,0.0,0.0,0.0,0.0,0.0,0.0,0.0,0.0,0.0,0.0,0.0,0.0,0.0,0.0,0.0,0.0,0.0,0.0,0.0,0.0,0.0,0.0,0.0,0.0,0.0,0.0,0.0,0.0,0.0,0.0,0.0,0.0,0.0,0.0,0.0,0.0,0.0,0.0,0.0,0.0,0.0,0.0,0.0,0.0,0.0,0.0,0.0,0.0,0.0,0.0,0.0,0.0,0.0,0.0,0.0,0.0,0.0,0.0,0.0,0.0,0.0,0.0,0.0,0.0,0.0,0.0,0.0,0.0,0.0,0.0,0.0,0.0,0.0,0.0,0.0,0.0,0.0,0.0,0.0,0.0,0.0,0.0,0.0,0.0,0.0,0.0,0.0,0.0,0.0,0.0,0.0,0.0,0.0,0.0,0.0,0.0,0.0,0.0,0.0,0.0,0.0,0.0,0.0,0.0,0.0,0.0,0.0,0.0,0.0,0.0,0.0,0.0,0.0,0.0,0.0,0.0,0.0,0.0,0.0,0.0,0.0,0.0,0.0,0.0,0.0,0.0,0.0,0.0,0.0,0.0,0.0,0.0,0.0,0.0,0.0,0.0,0.0,0.0,0.0,0.0,0.0,0.0,0.0,0.0,0.0,0.0,0.0,0.0,0.0,0.0,0.0,0.0,0.0,0.0,0.0,0.0,0.0,0.0,0.0,0.0,0.0,0.0,0.0,0.0,0.0,0.0,0.0,0.0,0.0,0.0,0.0,0.0,0.0,0.0,0.0,0.0,0.0,0.0,0.0,0.0,0.0,0.0,0.0,0.0,0.0,0.0,0.0,0.0,0.0,0.0,0.0,0.0,0.0,0.0,0.0,0.0,0.0,0.0,0.0,0.0,0.0,0.0,0.0,0.0,0.0,0.0,0.0,0.0,0.0,0.0,0.0,0.0,0.0,0.0,0.0,0.0,0.0,0.0,0.0,0.0,0.0,0.0,0.0,0.0,0.0,0.0,0.0,0.0,0.0,0.0,0.0,0.0,0.0,0.0,0.0,0.0,0.0,0.0,0.0,0.0,0.0,0.0,0.0,0.0,0.0,0.0,0.0,0.0,0.0,0.0,0.0,0.0,0.0,0.0,0.0,0.0,0.0,0.0,0.0,0.0,0.0,0.0,0.0,0.0,0.0,0.0,0.0,0.0,0.0,0.0,0.0,0.0,0.0,0.0,0.0,0.0,0.0,0.0,0.0,0.0,0.0,0.0,0.0,0.0,0.0,0.0,0.0,0.0,0.0,0.0,0.0,0.0,0.0,0.0,0.0,0.0,0.0,0.0,0.0,0.0,0.0,0.0,0.0,0.0,0.0,0.0,0.0,0.0,0.0,0.0,0.0,0.0,0.0,0.0,0.0,0.0,0.0,0.0,0.0,0.0,0.0,0.0,0.0,0.0,0.0,0.0,0.0,0.0,0.0,0.0,0.0,0.0,0.0,0.0,0.0,0.0,0.0,0.0,0.0,0.0,0.0,0.0,0.0,0.0,0.0,0.0,0.0,0.0,0.0,0.0,0.0,0.0,0.0,0.0,0.0,0.0,0.0,0.0,0.0,0.0,0.0,0.0,0.0,0.0,0.0,0.0,0.0,0.0,0.0,0.0,0.0,0.0,0.0,0.0,0.0,0.0,0.0,0.0,0.0,0.0,0.0,0.0,0.0,0.0,0.0,0.0,0.0,0.0,0.0,0.0,0.0,0.0,0.0,0.0,0.0,0.0,0.0,0.0,0.0,0.0,0.0,0.0,0.0,0.0,0.0,0.0,0.0,0.0,0.0,0.0,0.0,0.0,0.0,0.0,0.0,0.0,0.0,0.0,0.0,0.0,0.0,0.0,0.0,0.0,0.0,0.0,0.0,0.0,0.0,0.0,0.0,0.0,0.0,0.0,0.0,0.0,0.0,0.0,0.0,0.0,0.0,0.0,0.0,0.0,0.0,0.0,0.0,0.0,0.0,0.0,0.0,0.0,0.0,0.0,0.0,0.0,0.0,0.0,0.0,0.0,0.0,0.0,0.0,0.0,0.0,0.0,0.0,0.0,0.0,0.0,0.0,0.0,0.0,0.0,0.0,0.0,0.0,0.0,0.0,0.0,0.0,0.0,0.0,0.0,0.0,0.0,0.0,0.0,0.0,0.0,0.0,0.0,0.0,0.0,0.0,0.0,0.0,0.0,0.0,0.0,0.0,0.0,0.0,0.0,0.0,0.0,0.0,0.0,0.0,0.0,0.0,0.0,0.0,0.0,0.0,0.0,0.0,0.0,0.0,0.0,0.0,0.0,0.0,0.0,0.0,0.0,0.0,0.0,0.0,0.0,0.0,0.0,0.0,0.0,0.0,0.0,0.0,0.0,0.0,0.0,0.0,0.0,0.0,0.0,0.0,0.0,0.0,0.0,0.0,0.0,0.0,0.0,0.0,0.0,0.0,0.0,0.0,0.0,0.0,0.0,0.0,0.0,0.0,0.0,0.0,0.0,0.0,0.0,0.0,0.0,0.0,0.0,0.0,0.0,0.0,0.0,0.0,0.0,0.0,0.0,0.0,0.0,0.0,0.0,0.0,0.0,0.0,0.0,0.0,0.0,0.0,0.0,0.0,0.0,0.0,0.0,0.0,0.0,0.0,0.0,0.0,0.0,0.0,0.0,0.0,0.0,0.0,0.0,0.0,0.0,0.0,0.0,0.0,0.0,0.0,0.0,0.0,0.0,0.0,0.0,0.0,0.0,0.0,0.0,0.0,0.0,0.0,0.0,0.0,0.0,0.0,0.0,0.0,0.0,0.0,0.0,0.0,0.0,0.0,0.0,0.0,0.0,0.0,0.0,0.0,0.0,0.0,0.0,0.0,0.0,0.0,0.0,0.0,0.0,0.0,0.0,0.0,0.0,0.0,0.0,0.0,0.0,0.0,0.0,0.0,0.0,0.0,0.0,0.0,0.0,0.0,0.0,0.0,0.0,0.0,0.0,0.0,0.0,0.0,0.0,0.0,0.0,0.0,0.0,0.0,0.0,0.0,0.0,0.0,0.0,0.0,0.0,0.0,0.0,0.0,0.0,0.0,0.0,0.0,0.0,0.0,0.0,0.0,0.0,0.0,0.0,0.0,0.0,0.0,0.0,0.0,0.0,0.0,0.0,0.0,0.0,0.0,0.0,0.0,0.0,0.0,-3.7815,0.0,0.0,0.0,0.0,0.0,0.0,0.0,0.0,0.0,0.0,0.0,0.0,0.0,0.0,0.0,0.0,0.0,0.0,0.0,0.0,0.0,0.0,0.0,0.0,0.0,0.0,0.0,0.0,0.0,0.0,0.0,0.0,0.0,0.0,0.0,0.0,0.0,0.0,0.0,0.0,0.0,0.0,0.0,0.0,0.0,0.0,0.0,0.0,0.0,0.0,0.0,0.0,0.0,0.0,0.0,0.0,0.0,0.0,0.0,0.0,0.0,0.0,0.0,0.0,0.0,0.0,0.0,0.0,0.0,0.0,0.0,0.0,0.0,0.0,0.0,0.0,0.0,0.0,0.0,0.0,0.0,0.0,0.0,0.0,0.0,0.0,0.0,0.0,0.0,0.0,0.0,0.0,0.0,0.0,0.0,0.0,0.0,0.0,0.0,0.0,0.0,0.0,0.0,0.0,0.0,0.0,0.0,0.0,0.0,0.0,-3.6058,-3.6058,-3.6442,-3.6853,-3.7288,0.0,0.0,0.0,0.0,0.0,0.0,0.0,0.0,0.0,0.0,0.0,0.0,0.0,0.0,0.0,0.0,0.0,0.0,0.0,0.0,0.0,0.0,0.0,0.0,0.0,0.0,0.0,0.0,0.0,0.0,0.0,0.0,0.0,0.0,0.0,0.0,0.0,0.0,0.0,0.0,0.0,0.0,0.0,0.0,0.0,0.0,0.0,0.0,0.0,0.0,0.0,0.0,0.0,0.0,0.0,0.0,0.0,0.0,0.0,0.0,0.0,0.0,0.0,0.0,0.0,0.0,0.0,0.0,0.0,0.0,0.0,0.0,0.0,0.0,0.0,0.0,0.0,0.0,0.0,0.0,0.0,0.0,0.0,0.0,0.0,0.0,0.0,0.0,0.0,0.0,0.0,0.0,0.0,0.0,0.0,0.0,0.0,0.0,0.0,0.0,0.0,0.0,0.0,0.0,0.0,0.0,0.0,0.0,0.0,0.0,0.0,0.0,-3.6058,-3.6365,-3.7,0.0,0.0,0.0,0.0,0.0,0.0,0.0,0.0,0.0,0.0,0.0,0.0,0.0,0.0,0.0,0.0,0.0,0.0,0.0,0.0,0.0,0.0,0.0,0.0,0.0,0.0,0.0,0.0,0.0,0.0,0.0,0.0,0.0,0.0,0.0,0.0,0.0,0.0,0.0,0.0,0.0,0.0,0.0,0.0,0.0,0.0,0.0,0.0,0.0,0.0,0.0,0.0,0.0,0.0,0.0,0.0,0.0,0.0,0.0,0.0,0.0,0.0,0.0,0.0,0.0,0.0,0.0,0.0,0.0,0.0,0.0,0.0,0.0,0.0,0.0,0.0,0.0,0.0,0.0,0.0,0.0,0.0,0.0,0.0,0.0,0.0,0.0,0.0,0.0,0.0,0.0,0.0,0.0,0.0,0.0,0.0,0.0,0.0,0.0,0.0,0.0,0.0,0.0,0.0,0.0,0.0,0.0,0.0,0.0,0.0,-3.6988,-3.7757,-3.7738,0.0,-3.7885,0.0,0.0,0.0,0.0,0.0,0.0,0.0,0.0,0.0,0.0,0.0,0.0,0.0,0.0,0.0,0.0,0.0,0.0,0.0,0.0,0.0,0.0,0.0,0.0,0.0,0.0,0.0,0.0,0.0,0.0,0.0,0.0,0.0,0.0,0.0,0.0,0.0,0.0,0.0,0.0,0.0,0.0,0.0,0.0,0.0,0.0,0.0,0.0,0.0,0.0,0.0,0.0,0.0,0.0,0.0,0.0,0.0,0.0,0.0,0.0,0.0,0.0,0.0,0.0,0.0,0.0,0.0,0.0,0.0,0.0,0.0,0.0,0.0,0.0,0.0,0.0,0.0,0.0,0.0,0.0,0.0,0.0,0.0,0.0,0.0,0.0,0.0,0.0,0.0,0.0,0.0,0.0,0.0,0.0,0.0,0.0,0.0,0.0,0.0,0.0,0.0,0.0,0.0,0.0,0.0,0.0,0.0,0.0,0.0,0.0,-3.6154,-3.65,-3.6526,-3.6445,0.0,0.0,0.0,0.0,0.0,0.0,0.0,0.0,0.0,0.0,0.0,0.0,0.0,0.0,0.0,0.0,0.0,0.0,0.0,0.0,0.0,0.0,0.0,0.0,0.0,0.0,0.0,0.0,0.0,0.0,0.0,0.0,0.0,0.0,0.0,0.0,0.0,0.0,0.0,0.0,0.0,0.0,0.0,0.0,0.0,0.0,0.0,0.0,0.0,0.0,0.0,0.0,0.0,0.0,0.0,0.0,0.0,0.0,0.0,0.0,0.0,0.0,0.0,0.0,0.0,0.0,0.0,0.0,0.0,0.0,0.0,0.0,0.0,0.0,0.0,0.0,0.0,0.0,0.0,0.0,0.0,0.0,0.0,0.0,0.0,0.0,0.0,0.0,0.0,0.0,0.0,0.0,0.0,0.0,0.0,0.0,0.0,0.0,0.0,0.0,0.0,0.0,0.0,0.0,0.0,0.0,0.0,0.0,0.0,0.0,-3.5731,-3.55,-3.55,-3.55,-3.541,-3.5229,0.0,0.0,0.0,0.0,0.0,0.0,0.0,0.0,0.0,0.0,0.0,0.0,0.0,0.0,0.0,0.0,0.0,0.0,0.0,0.0,0.0,0.0,0.0,0.0,0.0,0.0,0.0,0.0,0.0,0.0,0.0,0.0,0.0,0.0,0.0,0.0,0.0,0.0,0.0,0.0,0.0,0.0,0.0,0.0,0.0,0.0,0.0,0.0,0.0,0.0,0.0,0.0,0.0,0.0,0.0,0.0,0.0,0.0,0.0,0.0,0.0,0.0,0.0,0.0,0.0,0.0,0.0,0.0,0.0,0.0,0.0,0.0,0.0,0.0,0.0,0.0,0.0,0.0,0.0,0.0,0.0,0.0,0.0,0.0,0.0,0.0,0.0,0.0,0.0,0.0,0.0,0.0,0.0,0.0,0.0,0.0,0.0,0.0,0.0,0.0,0.0,0.0,0.0,0.0,0.0,0.0,0.0,0.0,-3.7757,-3.6308,-3.55,-3.55,-3.55,-3.541,0.0,0.0,0.0,0.0,0.0,0.0,0.0,0.0,0.0,0.0,0.0,0.0,0.0,0.0,0.0,0.0,0.0,0.0,0.0,0.0,0.0,0.0,0.0,0.0,0.0,0.0,0.0,0.0,0.0,0.0,0.0,0.0,0.0,0.0,0.0,0.0,0.0,0.0,0.0,0.0,0.0,0.0,0.0,0.0,0.0,0.0,0.0,0.0,0.0,0.0,0.0,0.0,0.0,0.0,0.0,0.0,0.0,0.0,0.0,0.0,0.0,0.0,0.0,0.0,0.0,0.0,0.0,0.0,0.0,0.0,0.0,0.0,0.0,0.0,0.0,0.0,0.0,0.0,0.0,0.0,0.0,0.0,0.0,0.0,0.0,0.0,0.0,0.0,0.0,0.0,0.0,0.0,0.0,0.0,0.0,0.0,0.0,0.0,0.0,0.0,0.0,0.0,0.0,0.0,0.0,0.0,0.0,0.0,0.0,-3.6346,-3.5808,-3.55,-3.55,-3.5369,-3.5218,0.0,0.0,0.0,0.0,0.0,0.0,0.0,0.0,0.0,0.0,0.0,0.0,0.0,0.0,0.0,0.0,0.0,0.0,0.0,0.0,0.0,0.0,0.0,0.0,0.0,0.0,0.0,0.0,0.0,0.0,0.0,0.0,0.0,0.0,0.0,0.0,0.0,0.0,0.0,0.0,0.0,0.0,0.0,0.0,0.0,0.0,0.0,0.0,0.0,0.0,0.0,0.0,0.0,0.0,0.0,0.0,0.0,0.0,0.0,0.0,0.0,0.0,0.0,0.0,0.0,0.0,0.0,0.0,0.0,0.0,0.0,0.0,0.0,0.0,0.0,0.0,0.0,0.0,0.0,0.0,0.0,0.0,0.0,0.0,0.0,0.0,0.0,0.0,0.0,0.0,0.0,0.0,0.0,0.0,0.0,0.0,0.0,0.0,0.0,0.0,0.0,0.0,0.0,0.0,0.0,0.0,0.0,0.0,0.0,-3.5403,0.0,-3.5297,-3.5308,-3.5185,-3.4991,0.0,0.0,0.0,0.0,0.0,0.0,0.0,0.0,0.0,0.0,0.0,0.0,0.0,0.0,0.0,0.0,0.0,0.0,0.0,0.0,0.0,0.0,0.0,0.0,0.0,0.0,0.0,0.0,0.0,0.0,0.0,0.0,0.0,0.0,0.0,0.0,0.0,0.0,0.0,0.0,0.0,0.0,0.0,0.0,0.0,0.0,0.0,0.0,0.0,0.0,0.0,0.0,0.0,0.0,0.0,0.0,0.0,0.0,0.0,0.0,0.0,0.0,0.0,0.0,0.0,0.0,0.0,0.0,0.0,0.0,0.0,0.0,0.0,0.0,0.0,0.0,0.0,0.0,0.0,0.0,0.0,0.0,0.0,0.0,0.0,0.0,0.0,0.0,0.0,0.0,0.0,0.0,0.0,0.0,0.0,0.0,0.0,0.0,0.0,0.0,0.0,0.0,0.0,0.0,0.0,0.0,0.0,0.0,-3.5395,-3.5209,-3.5019,-3.4936,-3.4917,-3.4908,-3.4811,0.0,0.0,0.0,0.0,0.0,0.0,0.0,0.0,0.0,0.0,0.0,0.0,0.0,0.0,0.0,0.0,0.0,0.0,0.0,0.0,0.0,0.0,0.0,0.0,0.0,0.0,0.0,0.0,0.0,0.0,0.0,0.0,0.0,0.0,0.0,0.0,0.0,0.0,0.0,0.0,0.0,0.0,0.0,0.0,0.0,0.0,0.0,0.0,0.0,0.0,0.0,0.0,0.0,0.0,0.0,0.0,0.0,0.0,0.0,0.0,0.0,0.0,0.0,0.0,0.0,0.0,0.0,0.0,0.0,0.0,0.0,0.0,0.0,0.0,0.0,0.0,0.0,0.0,0.0,0.0,0.0,0.0,0.0,0.0,0.0,0.0,0.0,0.0,0.0,0.0,0.0,0.0,0.0,0.0,0.0,0.0,0.0,0.0,0.0,0.0,0.0,0.0,0.0,0.0,0.0,0.0,0.0,0.0,0.0,-3.5001,-3.4917,-3.4908,-3.4889,-3.4771,-3.4676,0.0,0.0,0.0,0.0,0.0,0.0,0.0,0.0,0.0,0.0,0.0,0.0,0.0,0.0,0.0,0.0,0.0,0.0,0.0,0.0,0.0,0.0,0.0,0.0,0.0,0.0,0.0,0.0,0.0,0.0,0.0,0.0,0.0,0.0,0.0,0.0,0.0,0.0,0.0,0.0,0.0,0.0,0.0,0.0,0.0,0.0,0.0,0.0,0.0,0.0,0.0,0.0,0.0,0.0,0.0,0.0,0.0,0.0,0.0,0.0,0.0,0.0,0.0,0.0,0.0,0.0,0.0,0.0,0.0,0.0,0.0,0.0,0.0,0.0,0.0,0.0,0.0,0.0,0.0,0.0,0.0,0.0,0.0,0.0,0.0,0.0,0.0,0.0,0.0,0.0,0.0,0.0,0.0,0.0,0.0,0.0,0.0,0.0,0.0,0.0,0.0,0.0,0.0,0.0,0.0,0.0,0.0,0.0,0.0,-3.463,-3.4649,-3.463,-3.4649,-3.452,-3.4461,-3.4431,0.0,0.0,0.0,0.0,0.0,0.0,0.0,0.0,0.0,0.0,0.0,0.0,0.0,0.0,0.0,0.0,0.0,0.0,0.0,0.0,0.0,0.0,0.0,0.0,0.0,0.0,0.0,0.0,0.0,0.0,0.0,0.0,0.0,0.0,0.0,0.0,0.0,0.0,0.0,0.0,0.0,0.0,0.0,0.0,0.0,0.0,0.0,0.0,0.0,0.0,0.0,0.0,0.0,0.0,0.0,0.0,0.0,0.0,0.0,0.0,0.0,0.0,0.0,0.0,0.0,0.0,0.0,0.0,0.0,0.0,0.0,0.0,0.0,0.0,0.0,0.0,0.0,0.0,0.0,0.0,0.0,0.0,0.0,0.0,0.0,0.0,0.0,0.0,0.0,0.0,0.0,0.0,0.0,0.0,0.0,0.0,0.0,0.0,0.0,0.0,0.0,0.0,0.0,0.0,0.0,0.0,0.0,0.0,-3.4209,-3.4216,-3.4209,-3.4209,-3.4209,-3.4216,0.0,0.0,0.0,0.0,0.0,0.0,0.0,0.0,0.0,0.0,0.0,0.0,0.0,0.0,0.0,0.0,0.0,0.0,0.0,0.0,0.0,0.0,0.0,0.0,0.0,0.0,0.0,0.0,0.0,0.0,0.0,0.0,0.0,0.0,0.0,0.0,0.0,0.0,0.0,0.0,0.0,0.0,0.0,0.0,0.0,0.0,0.0,0.0,0.0,0.0,0.0,0.0,0.0,0.0,0.0,0.0,0.0,0.0,0.0,0.0,0.0,0.0,0.0,0.0,0.0,0.0,0.0,0.0,0.0,0.0,0.0,0.0,0.0,0.0,0.0,0.0,0.0,0.0,0.0,0.0,0.0,0.0,0.0,0.0,0.0,0.0,0.0,0.0,0.0,0.0,0.0,0.0,0.0,0.0,0.0,0.0,0.0,0.0,0.0,0.0,0.0,0.0,0.0,0.0,0.0,0.0,0.0,0.0,0.0,-3.4197,-3.4216,-3.4216,-3.4216,-3.4216,-3.4216,0.0,0.0,0.0,0.0,0.0,0.0,0.0,0.0,0.0,0.0,0.0,0.0,0.0,0.0,0.0,0.0,0.0,0.0,0.0,0.0,0.0,0.0,0.0,0.0,0.0,0.0,0.0,0.0,0.0,0.0,0.0,0.0,0.0,0.0,0.0,0.0,0.0,0.0,0.0,0.0,0.0,0.0,0.0,0.0,0.0,0.0,0.0,0.0,0.0,0.0,0.0,0.0,0.0,0.0,0.0,0.0,0.0,0.0,0.0,0.0,0.0,0.0,0.0,0.0,0.0,0.0,0.0,0.0,0.0,0.0,0.0,0.0,0.0,0.0,0.0,0.0,0.0,0.0,0.0,0.0,0.0,0.0,0.0,0.0,0.0,0.0,0.0,0.0,0.0,0.0,0.0,0.0,0.0,0.0,0.0,0.0,0.0,0.0,0.0,0.0,0.0,0.0,0.0,0.0,0.0,0.0,0.0,0.0,-3.4395,-3.4736,-3.4383,-3.4364,-3.4748,-3.4383,-3.4216,0.0,0.0,0.0,0.0,0.0,0.0,0.0,0.0,0.0,0.0,0.0,0.0,0.0,0.0,0.0,0.0,0.0,0.0,0.0,0.0,0.0,0.0,0.0,0.0,0.0,0.0,0.0,0.0,0.0,0.0,0.0,0.0,0.0,0.0,0.0,0.0,0.0,0.0,0.0,0.0,0.0,0.0,0.0,0.0,0.0,0.0,0.0,0.0,0.0,0.0,0.0,0.0,0.0,0.0,0.0,0.0,0.0,0.0,0.0,0.0,0.0,0.0,0.0,0.0,0.0,0.0,0.0,0.0,0.0,0.0,0.0,0.0,0.0,0.0,0.0,0.0,0.0,0.0,0.0,0.0,0.0,0.0,0.0,0.0,0.0,0.0,0.0,0.0,0.0,0.0,0.0,0.0,0.0,0.0,0.0,0.0,0.0,0.0,0.0,0.0,0.0,0.0,0.0,0.0,0.0,0.0,0.0,0.0,-3.4711,-3.5473,-3.481,-3.4785,-3.5454,-3.4655,-3.4216,0.0,0.0,0.0,0.0,0.0,0.0,0.0,0.0,0.0,0.0,0.0,0.0,0.0,0.0,0.0,0.0,0.0,0.0,0.0,0.0,0.0,0.0,0.0,0.0,0.0,0.0,0.0,0.0,0.0,0.0,0.0,0.0,0.0,0.0,0.0,0.0,0.0,0.0,0.0,0.0,0.0,0.0,0.0,0.0,0.0,0.0,0.0,0.0,0.0,0.0,0.0,0.0,0.0,0.0,0.0,0.0,0.0,0.0,0.0,0.0,0.0,0.0,0.0,0.0,0.0,0.0,0.0,0.0,0.0,0.0,0.0,0.0,0.0,0.0,0.0,0.0,0.0,0.0,0.0,0.0,0.0,0.0,0.0,0.0,0.0,0.0,0.0,0.0,0.0,0.0,0.0,0.0,0.0,0.0,0.0,0.0,0.0,0.0,0.0,0.0,0.0,0.0,0.0,0.0,0.0,0.0,0.0,0.0,-3.5324,-3.551,-3.5937,-3.5943,-3.551,-3.4643,-3.4216,0.0,0.0,0.0,0.0,0.0,0.0,0.0,0.0,0.0,0.0,0.0,0.0,0.0,0.0,0.0,0.0,0.0,0.0,0.0,0.0,0.0,0.0,0.0,0.0,0.0,0.0,0.0,0.0,0.0,0.0,0.0,0.0,0.0,0.0,0.0,0.0,0.0,0.0,0.0,0.0,0.0,0.0,0.0,0.0,0.0,0.0,0.0,0.0,-3.2037,0.0,0.0,0.0,0.0,0.0,0.0,0.0,0.0,0.0,0.0,0.0,0.0,0.0,0.0,0.0,0.0,0.0,0.0,0.0,0.0,0.0,0.0,0.0,0.0,0.0,0.0,0.0,0.0,0.0,0.0,0.0,0.0,0.0,0.0,0.0,0.0,0.0,0.0,0.0,0.0,0.0,0.0,0.0,0.0,0.0,0.0,0.0,0.0,0.0,0.0,0.0,0.0,0.0,0.0,0.0,0.0,0.0,0.0,0.0,-3.5696,-3.6067,-3.6495,-3.6513,-3.6036,-3.5237,-3.4618,0.0,0.0,0.0,0.0,0.0,0.0,0.0,0.0,0.0,0.0,0.0,0.0,0.0,0.0,0.0,0.0,0.0,0.0,0.0,0.0,0.0,0.0,0.0,0.0,0.0,0.0,0.0,0.0,0.0,0.0,0.0,0.0,0.0,0.0,0.0,0.0,0.0,0.0,0.0,0.0,0.0,0.0,0.0,0.0,0.0,0.0,0.0,0.0,0.0,0.0,0.0,0.0,0.0,0.0,0.0,0.0,0.0,0.0,0.0,0.0,0.0,0.0,0.0,0.0,0.0,0.0,0.0,0.0,0.0,0.0,0.0,0.0,0.0,0.0,0.0,0.0,0.0,0.0,0.0,0.0,0.0,0.0,0.0,0.0,0.0,0.0,0.0,0.0,0.0,0.0,0.0,0.0,0.0,0.0,0.0,0.0,0.0,0.0,0.0,0.0,0.0,0.0,0.0,0.0,0.0,0.0,0.0,-3.5213,-3.6012,-3.6662,-3.6928,-3.6959,-3.6686,-3.6049,-3.5231,-3.4253,0.0,0.0,0.0,0.0,0.0,0.0,0.0,0.0,0.0,0.0,0.0,0.0,0.0,0.0,0.0,0.0,0.0,0.0,0.0,0.0,0.0,0.0,0.0,0.0,0.0,0.0,0.0,0.0,0.0,0.0,0.0,0.0,0.0,0.0,0.0,0.0,0.0,0.0,-3.2573,-3.2439,0.0,0.0,0.0,0.0,0.0,0.0,0.0,0.0,-3.1511,0.0,0.0,0.0,0.0,0.0,0.0,0.0,0.0,0.0,0.0,0.0,0.0,0.0,0.0,0.0,0.0,0.0,0.0,0.0,0.0,0.0,0.0,0.0,0.0,0.0,0.0,0.0,0.0,0.0,0.0,0.0,0.0,0.0,0.0,0.0,0.0,0.0,0.0,0.0,0.0,0.0,0.0,0.0,0.0,0.0,0.0,0.0,0.0,0.0,0.0,0.0,0.0,0.0,0.0,0.0,0.0,-3.4801,-3.5923,-3.6569,-3.6718,-3.8024,-3.8061,-3.676,-3.6556,-3.5789,-3.4309,0.0,0.0,0.0,0.0,0.0,0.0,0.0,0.0,0.0,0.0,0.0,0.0,0.0,0.0,0.0,0.0,0.0,0.0,0.0,0.0,0.0,0.0,0.0,0.0,0.0,0.0,0.0,0.0,0.0,0.0,0.0,0.0,0.0,0.0,0.0,0.0,0.0,0.0,0.0,-3.2336,-3.2301,0.0,0.0,0.0,0.0,0.0,0.0,0.0,0.0,-3.1887,0.0,0.0,0.0,0.0,0.0,0.0,0.0,0.0,0.0,0.0,0.0,0.0,0.0,0.0,0.0,0.0,0.0,0.0,0.0,0.0,0.0,0.0,0.0,0.0,0.0,0.0,0.0,0.0,0.0,0.0,0.0,0.0,0.0,0.0,0.0,0.0,0.0,0.0,0.0,0.0,0.0,0.0,0.0,0.0,0.0,0.0,0.0,0.0,0.0,0.0,0.0,0.0,0.0,0.0,0.0,-3.4795,-3.6029,-3.6718,-3.6736,-3.7856,-3.7912,-3.6742,-3.6309,-3.5491,0.0,0.0,0.0,0.0,0.0,0.0,0.0,0.0,0.0,0.0,0.0,0.0,0.0,0.0,0.0,0.0,0.0,0.0,0.0,0.0,0.0,0.0,0.0,0.0,0.0,0.0,0.0,0.0,0.0,0.0,0.0,0.0,0.0,0.0,0.0,0.0,0.0,0.0,0.0,0.0,-3.1893,-3.1893,-3.1765,0.0,0.0,0.0,0.0,0.0,0.0,-3.1621,-3.1929,0.0,0.0,0.0,0.0,0.0,0.0,0.0,0.0,0.0,0.0,0.0,0.0,0.0,0.0,0.0,0.0,0.0,0.0,0.0,0.0,0.0,0.0,0.0,0.0,0.0,0.0,0.0,0.0,0.0,0.0,0.0,0.0,0.0,0.0,0.0,0.0,0.0,0.0,0.0,0.0,0.0,0.0,0.0,0.0,0.0,0.0,0.0,0.0,0.0,0.0,0.0,0.0,0.0,0.0,0.0,-3.4685,-3.5844,-3.6532,-3.6718,-3.7318,-3.7368,-3.6718,-3.5919,-3.5101,0.0,0.0,0.0,0.0,0.0,0.0,0.0,0.0,0.0,0.0,0.0,0.0,0.0,0.0,0.0,0.0,0.0,0.0,0.0,0.0,0.0,0.0,0.0,0.0,0.0,0.0,0.0,0.0,0.0,0.0,0.0,0.0,0.0,0.0,0.0,0.0,0.0,0.0,0.0,0.0,0.0,-3.1502,-3.1485,-3.1485,0.0,0.0,0.0,0.0,-3.1326,-3.1499,0.0,0.0,0.0,0.0,0.0,0.0,0.0,0.0,0.0,0.0,0.0,0.0,0.0,0.0,0.0,0.0,0.0,0.0,0.0,0.0,0.0,0.0,0.0,0.0,0.0,0.0,0.0,0.0,0.0,0.0,0.0,0.0,0.0,0.0,0.0,0.0,0.0,0.0,0.0,0.0,0.0,0.0,0.0,0.0,0.0,0.0,0.0,0.0,0.0,0.0,0.0,0.0,0.0,0.0,0.0,0.0,-3.4869,-3.5359,-3.5993,-3.6681,-3.6792,-3.6798,-3.6699,-3.5919,-3.5083,0.0,0.0,0.0,0.0,0.0,0.0,0.0,0.0,0.0,0.0,0.0,0.0,0.0,0.0,0.0,0.0,0.0,0.0,0.0,0.0,0.0,0.0,0.0,0.0,0.0,0.0,0.0,0.0,0.0,0.0,0.0,0.0,0.0,0.0,0.0,0.0,0.0,0.0,0.0,0.0,0.0,-3.1406,-3.1114,-3.1312,-3.1387,0.0,0.0,0.0,-3.0663,-3.1168,0.0,0.0,0.0,0.0,0.0,0.0,0.0,0.0,0.0,0.0,0.0,0.0,0.0,0.0,0.0,0.0,0.0,0.0,0.0,0.0,0.0,0.0,0.0,0.0,0.0,0.0,0.0,0.0,0.0,0.0,0.0,0.0,0.0,0.0,0.0,0.0,0.0,0.0,0.0,0.0,0.0,0.0,0.0,0.0,0.0,0.0,0.0,0.0,0.0,0.0,0.0,0.0,0.0,0.0,0.0,-3.4802,-3.4908,-3.5296,-3.59,-3.6649,-3.6272,-3.6222,-3.6686,-3.5436,-3.4587,0.0,0.0,0.0,0.0,0.0,0.0,0.0,0.0,0.0,0.0,0.0,0.0,0.0,0.0,0.0,0.0,0.0,0.0,0.0,0.0,0.0,0.0,0.0,0.0,0.0,0.0,0.0,0.0,0.0,0.0,0.0,0.0,0.0,0.0,0.0,0.0,0.0,0.0,0.0,0.0,0.0,0.0,-3.0834,-3.0895,0.0,0.0,0.0,-3.0821,-3.109,0.0,0.0,0.0,0.0,0.0,0.0,0.0,0.0,0.0,0.0,0.0,0.0,0.0,0.0,0.0,0.0,0.0,0.0,0.0,0.0,0.0,0.0,0.0,0.0,0.0,0.0,0.0,0.0,0.0,0.0,0.0,0.0,0.0,0.0,0.0,0.0,0.0,0.0,0.0,0.0,0.0,0.0,0.0,0.0,0.0,0.0,0.0,0.0,0.0,0.0,0.0,0.0,0.0,0.0,0.0,0.0,0.0,-3.5182,-3.5447,-3.6037,-3.6941,-3.6203,-3.6073,-3.6649,-3.5287,0.0,0.0,0.0,0.0,0.0,0.0,0.0,0.0,0.0,0.0,0.0,0.0,0.0,0.0,0.0,0.0,0.0,0.0,0.0,0.0,0.0,0.0,0.0,0.0,0.0,0.0,0.0,-3.2534,0.0,0.0,0.0,0.0,0.0,0.0,0.0,0.0,0.0,0.0,0.0,0.0,0.0,0.0,-3.0568,-3.0712,-3.0593,-3.0531,0.0,0.0,-3.0688,-3.1234,-3.1333,-3.1586,0.0,0.0,0.0,0.0,0.0,0.0,0.0,0.0,0.0,0.0,0.0,0.0,0.0,0.0,0.0,0.0,0.0,0.0,0.0,0.0,0.0,0.0,0.0,0.0,0.0,0.0,0.0,0.0,0.0,0.0,0.0,0.0,0.0,0.0,0.0,0.0,0.0,0.0,0.0,0.0,0.0,0.0,0.0,0.0,0.0,0.0,0.0,0.0,0.0,0.0,0.0,0.0,0.0,0.0,0.0,-3.5987,-3.5854,-3.6439,-3.7721,-3.7021,-3.663,-3.6686,-3.585,-3.5014,0.0,0.0,0.0,0.0,0.0,0.0,0.0,0.0,0.0,0.0,0.0,0.0,0.0,0.0,0.0,0.0,0.0,0.0,0.0,0.0,0.0,0.0,0.0,0.0,0.0,0.0,0.0,0.0,0.0,0.0,0.0,0.0,0.0,0.0,0.0,0.0,0.0,0.0,0.0,0.0,0.0,-3.0589,-3.0851,-3.0688,-3.0547,0.0,0.0,-3.0522,-3.0555,-3.0572,-3.082,-3.1548,0.0,0.0,0.0,0.0,0.0,0.0,0.0,0.0,0.0,0.0,0.0,0.0,0.0,0.0,0.0,0.0,0.0,0.0,0.0,0.0,0.0,0.0,0.0,0.0,0.0,0.0,0.0,0.0,0.0,0.0,0.0,0.0,0.0,0.0,0.0,0.0,0.0,0.0,0.0,0.0,0.0,0.0,0.0,0.0,0.0,0.0,0.0,0.0,0.0,0.0,0.0,0.0,0.0,-3.5994,-3.6101,-3.6395,-3.698,-3.7814,-3.7113,-3.6718,-3.6718,-3.5906,-3.5101,0.0,0.0,0.0,0.0,0.0,0.0,0.0,0.0,0.0,0.0,0.0,0.0,0.0,0.0,0.0,0.0,0.0,0.0,0.0,0.0,0.0,0.0,0.0,0.0,0.0,0.0,0.0,0.0,-3.1912,-3.1521,-3.123,0.0,0.0,0.0,0.0,0.0,0.0,0.0,0.0,0.0,0.0,-3.0753,-3.077,-3.0692,0.0,0.0,-3.0531,-3.0489,-3.0489,-3.0489,-3.0588,-3.087,-3.0792,0.0,0.0,0.0,0.0,0.0,0.0,0.0,0.0,0.0,0.0,0.0,0.0,0.0,0.0,0.0,0.0,0.0,0.0,0.0,0.0,0.0,0.0,0.0,0.0,0.0,0.0,0.0,0.0,0.0,0.0,0.0,0.0,0.0,0.0,0.0,0.0,0.0,0.0,0.0,0.0,0.0,0.0,0.0,0.0,0.0,0.0,0.0,0.0,0.0,0.0,0.0,0.0,-3.6618,-3.684,-3.7252,-3.772,-3.8241,-3.7708,-3.7299,-3.7039,-3.6272,-3.5473,0.0,0.0,0.0,0.0,0.0,0.0,0.0,0.0,0.0,0.0,0.0,0.0,0.0,0.0,0.0,0.0,0.0,0.0,0.0,0.0,0.0,0.0,0.0,0.0,0.0,0.0,0.0,0.0,-3.2038,-3.156,-3.123,0.0,0.0,0.0,0.0,0.0,0.0,0.0,0.0,0.0,0.0,-3.0814,-3.0794,-3.0712,-3.0609,-3.0568,-3.051,-3.0489,-3.0489,-3.0489,-3.0489,-3.0489,0.0,0.0,0.0,0.0,0.0,0.0,0.0,0.0,0.0,0.0,0.0,0.0,0.0,0.0,0.0,0.0,0.0,0.0,0.0,0.0,0.0,0.0,0.0,0.0,0.0,0.0,0.0,0.0,0.0,0.0,0.0,0.0,0.0,0.0,0.0,0.0,0.0,0.0,0.0,0.0,0.0,0.0,0.0,0.0,0.0,0.0,0.0,0.0,0.0,0.0,0.0,0.0,0.0,-3.7321,-3.8498,-3.8544,-3.8726,-3.9054,-3.9045,-3.8618,-3.787,-3.7089,-3.6309,-3.5491,0.0,0.0,0.0,0.0,0.0,0.0,0.0,0.0,0.0,0.0,0.0,0.0,0.0,0.0,0.0,0.0,0.0,0.0,0.0,0.0,0.0,0.0,0.0,0.0,0.0,0.0,-3.2436,-3.1693,-3.123,0.0,0.0,0.0,0.0,0.0,0.0,0.0,0.0,0.0,0.0,-3.0932,-3.0773,-3.0955,-3.0733,-3.0551,-3.0671,-3.0589,-3.0489,-3.0489,-3.0489,-3.0489,0.0,0.0,0.0,0.0,0.0,0.0,0.0,0.0,0.0,0.0,0.0,0.0,0.0,0.0,0.0,0.0,0.0,0.0,0.0,0.0,0.0,0.0,0.0,0.0,0.0,0.0,0.0,-3.7734,-3.7734,0.0,0.0,0.0,0.0,0.0,0.0,0.0,0.0,0.0,0.0,0.0,-3.7378,-3.7337,0.0,0.0,0.0,0.0,0.0,0.0,0.0,0.0,0.0,0.0,0.0,0.0,-3.8572,-3.8795,-3.9188,-3.9396,-3.9357,-3.921,-3.8711,-3.7931,-3.7634,-3.6866,-3.5547,0.0,0.0,0.0,0.0,0.0,0.0,0.0,0.0,0.0,0.0,0.0,0.0,0.0,0.0,0.0,0.0,0.0,0.0,0.0,0.0,0.0,0.0,0.0,0.0,0.0,-3.2617,0.0,0.0,0.0,0.0,0.0,0.0,0.0,0.0,0.0,0.0,0.0,-3.1112,-3.1075,-3.1052,-3.1032,-3.1012,-3.0875,-3.0733,0.0,0.0,0.0,0.0,0.0,0.0,0.0,0.0,0.0,0.0,0.0,0.0,0.0,0.0,-2.8558,-2.9442,-2.9498,-2.9437,-2.9409,0.0,0.0,0.0,0.0,0.0,0.0,0.0,0.0,0.0,0.0,0.0,0.0,0.0,0.0,0.0,0.0,-3.8613,0.0,0.0,0.0,0.0,0.0,0.0,0.0,0.0,-3.8399,-3.8375,-3.8327,-3.8263,-3.8239,0.0,-3.8142,-3.752,0.0,0.0,0.0,0.0,0.0,0.0,0.0,0.0,-3.9314,-3.9355,-3.9747,-3.9794,-3.9495,-3.9318,-3.895,-3.8321,-3.8042,-3.7145,-3.5547,-3.4952,-3.4506,0.0,0.0,0.0,0.0,0.0,0.0,0.0,0.0,0.0,0.0,0.0,0.0,0.0,0.0,0.0,0.0,0.0,0.0,0.0,0.0,0.0,0.0,0.0,-3.2468,0.0,0.0,0.0,0.0,0.0,0.0,0.0,0.0,0.0,-3.1075,-3.1151,-3.1171,-3.1075,-3.1331,-3.1463,-3.1362,0.0,0.0,0.0,0.0,0.0,0.0,0.0,-3.0893,-3.0668,-3.0077,-2.9389,-2.87,-2.8042,-2.7585,-2.7585,0.0,0.0,-2.8674,-2.8788,-2.8746,-2.8662,-2.8499,-2.8347,-2.8347,-2.7711,-2.6931,0.0,0.0,0.0,0.0,0.0,0.0,0.0,0.0,-3.8711,-3.873,0.0,-3.875,0.0,0.0,0.0,0.0,0.0,0.0,0.0,0.0,-3.8632,-3.8551,-3.852,-3.8454,-3.8412,-3.8384,-3.8282,-3.8247,-3.8266,-3.8215,0.0,0.0,0.0,0.0,0.0,0.0,-3.9621,-4.0166,-4.0186,-3.9972,-3.9544,-3.9514,-3.9376,-3.9078,-3.8302,-3.7182,-3.5696,-3.5529,-3.512,-3.429,-3.4216,0.0,0.0,0.0,0.0,0.0,0.0,0.0,0.0,0.0,0.0,0.0,0.0,0.0,0.0,0.0,0.0,0.0,0.0,0.0,0.0,-3.2996,0.0,0.0,0.0,0.0,0.0,0.0,0.0,0.0,0.0,0.0,-3.1258,-3.1241,-3.1224,-3.1241,0.0,0.0,0.0,0.0,-3.2835,-3.2707,-3.268,-3.2641,-3.2641,-3.2194,-3.1625,-3.1001,0.0,0.0,-2.7881,-2.766,-2.7705,-2.7675,-2.7735,-2.7624,-2.759,-2.7894,-2.8042,-2.7908,-2.7761,-2.7681,-2.7654,-2.6829,-2.5841,-4.3007,0.0,0.0,0.0,0.0,-4.168,-4.1211,-4.0469,-4.0449,-4.0469,-4.0449,-4.0469,0.0,0.0,0.0,0.0,0.0,0.0,-4.0449,-4.0428,-4.0447,-4.0408,-4.0387,-4.0319,-4.0271,-4.0236,-4.0141,-4.0076,-3.9986,-3.996,-3.9604,-3.8929,0.0,0.0,0.0,0.0,-4.0242,-4.0397,-4.0278,-4.0129,-3.9992,-3.9667,-3.9357,-3.9096,-3.8321,-3.7671,-3.7206,-3.6105,-3.538,-3.5138,-3.4544,0.0,0.0,0.0,0.0,0.0,0.0,0.0,0.0,0.0,0.0,0.0,0.0,0.0,0.0,0.0,0.0,0.0,0.0,0.0,-3.2781,-3.2685,-3.2418,0.0,0.0,0.0,0.0,0.0,0.0,0.0,0.0,0.0,-3.1989,-3.1989,-3.1989,0.0,0.0,-3.3022,-3.3018,-3.305,-3.3033,-3.3011,0.0,0.0,0.0,-3.1646,-3.1188,-3.0997,-3.0423,-2.978,-2.9147,-2.9037,-2.9037,-2.9037,-2.9037,-2.9119,-2.9344,-2.8335,-2.7538,-2.7293,-2.7161,-2.7215,-2.7511,-2.6694,-2.5911,-4.4433,-4.4504,-4.3882,-4.3303,-4.2886,-4.291,-4.2637,-4.2187,-4.2187,-4.2207,-4.2187,-4.2207,-4.2012,-4.166,-4.1348,0.0,0.0,0.0,-4.168,-4.168,-4.2031,-4.2207,-4.2187,-4.2118,-4.187,-4.1477,-4.1395,-4.1147,-4.0739,-4.0674,-4.0377,-3.9879,0.0,0.0,-4.0496,-4.0496,-4.0496,-4.0489,-4.0372,-4.0278,-4.0186,-3.9755,-3.9408,-3.9259,-3.8704,-3.8228,-3.7894,-3.6649,-3.5826,-3.551,-3.4674,-3.4216,0.0,0.0,0.0,0.0,0.0,0.0,0.0,0.0,0.0,0.0,0.0,-3.3847,0.0,0.0,0.0,0.0,-3.3494,-3.3078,-3.2554,-3.2504,0.0,0.0,0.0,0.0,0.0,0.0,0.0,-3.1596,-3.2097,-3.2536,-3.2713,-3.2966,-3.3072,-3.2784,-3.3372,-3.3808,-3.3765,0.0,-3.4013,-3.3902,-3.351,-3.3178,-3.3145,-3.2675,-3.2166,-3.1662,-3.1148,-3.0713,-3.0426,-3.0357,-3.0357,-3.0357,-3.0357,-3.0421,-3.0667,-2.9607,-2.8687,-2.8523,-2.8385,-2.8336,-2.8412,-2.7565,-2.6921,-4.5861,-4.5846,-4.4409,-4.3753,-4.3723,-4.3766,-4.375,-4.3711,-4.3691,-4.3711,-4.3711,-4.3711,-4.3262,-4.2461,-4.1738,0.0,0.0,-4.2168,-4.25,-4.2539,-4.332,-4.3711,-4.3711,-4.3624,-4.3164,-4.2318,-4.225,-4.1798,-4.1029,-4.0906,-4.0808,-4.0809,-4.0728,-4.0631,-4.0523,-4.0496,-4.0496,-4.0496,-4.0496,-4.0389,-4.0186,-3.9788,-3.9532,-3.9483,-3.9285,-3.8784,-3.8018,-3.7233,-3.6465,-3.5621,-3.4785,-3.4271,-3.4216,0.0,0.0,0.0,0.0,0.0,0.0,0.0,0.0,0.0,0.0,0.0,0.0,0.0,0.0,0.0,-3.3522,0.0,-3.2813,-3.2436,0.0,0.0,0.0,-3.1417,-3.1417,-3.1348,-3.1601,-3.2307,0.0,0.0,0.0,0.0,-3.4336,-3.366,-3.415,-3.453,-3.442,-3.5054,-3.5467,-3.5138,-3.5144,-3.5137,-3.477,-3.4363,-3.3645,-3.269,-3.2064,-3.1719,-3.166,-3.166,-3.166,-3.166,-3.166,-3.1676,-3.1589,-3.1442,-3.1309,-3.1174,-3.0776,-3.0315,-2.9704,-2.8989,-2.8312,-4.5808,-4.5835,-4.5531,-4.5108,-4.46,-4.4629,-4.427,-4.3711,-4.3711,-4.3711,-4.3711,-4.3711,-4.3574,-4.3379,-4.3183,-4.3105,-4.3125,-4.3301,-4.3398,-4.3418,-4.3613,-4.3711,-4.3711,-4.3671,-4.3497,-4.3221,-4.3178,-4.301,-4.2712,-4.2607,-4.2258,-4.1717,-4.1624,-4.1253,-4.0611,-4.0531,-4.0496,-4.0496,-4.0496,-4.0397,-4.0214,-4.0091,-3.9857,-3.9508,-3.9597,-3.9395,-3.8813,-3.8246,-3.7455,-3.6452,-3.564,-3.4897,-3.4234,-3.4216,0.0,0.0,0.0,0.0,0.0,0.0,0.0,0.0,0.0,-3.3934,-3.3881,0.0,-3.3807,0.0,-3.3739,-3.335,-3.2504,-3.2569,0.0,0.0,-3.2113,-3.2298,-3.2281,-3.2324,-3.2551,-3.3064,-3.3545,-3.3951,-3.4218,-3.4895,-3.5261,-3.5115,-3.5211,-3.5329,-3.5324,-3.588,-3.6152,-3.5646,-3.5513,-3.5247,-3.4798,-3.4129,-3.3638,-3.332,-3.314,-3.3036,-3.3036,-3.3036,-3.3036,-3.3036,-3.3021,-3.3185,-3.3603,-3.3583,-3.3604,-3.3694,-3.2165,-3.0697,-3.0917,-3.0011,-2.922,-4.638,-4.6348,-4.6041,-4.5711,-4.5391,-4.5464,-4.5237,-4.4819,-4.4843,-4.4863,-4.4824,-4.4453,-4.4277,-4.4238,-4.3867,-4.3711,-4.373,-4.4101,-4.4277,-4.4297,-4.4668,-4.4863,-4.4863,-4.4863,-4.4602,-4.4122,-4.4091,-4.3817,-4.3366,-4.3279,-4.3027,-4.2595,-4.2509,-4.223,-4.1745,-4.0957,-4.0534,-4.0496,-4.0496,-4.0449,-4.033,-4.0251,-4.0012,-3.9656,-3.975,-3.9648,-3.9298,-3.8724,-3.7939,-3.6882,-3.6067,-3.5198,-3.4265,-3.4216,-3.4216,0.0,0.0,0.0,0.0,0.0,0.0,0.0,0.0,0.0,0.0,0.0,-3.3753,0.0,-3.3583,0.0,-3.2369,-3.277,-3.2844,-3.2339,-3.2818,-3.3166,-3.3183,-3.3062,-3.325,-3.391,-3.4455,-3.4868,-3.4996,-3.5368,-3.5616,-3.5616,-3.5616,-3.5616,-3.5667,-3.6219,-3.6474,-3.5819,-3.5952,-3.5881,-3.5199,-3.4696,-3.4382,-3.4397,-3.4397,-3.4397,-3.4382,-3.4382,-3.4397,-3.4382,-3.4397,-3.4487,-3.4861,-3.4793,-3.4732,-3.461,-3.3621,-3.2527,-3.2266,-3.1346,-3.0634,-4.7212,-4.7038,-4.629,-4.5977,-4.5997,-4.6122,-4.6173,-4.6206,-4.6265,-4.6289,-4.625,-4.5508,-4.5176,-4.5117,-4.4375,-4.4023,-4.4082,-4.4805,-4.5156,-4.5215,-4.5957,-4.6289,-4.6289,-4.6289,-4.5876,-4.5073,-4.5014,-4.4557,-4.3768,-4.3683,-4.3576,-4.3479,-4.3413,-4.3322,-4.316,-4.1703,-4.0805,-4.0512,-4.0504,-4.0504,-4.0516,-4.033,-4.0101,-3.9861,-3.9891,-3.9783,-3.9549,-3.908,-3.8325,-3.7246,-3.6404,-3.5473,-3.4474,-3.4277,-3.4216,0.0,-3.4216,0.0,0.0,0.0,0.0,0.0,0.0,0.0,0.0,-3.3842,-3.3698,-3.3394,-3.3455,-3.324,-3.2578,-3.3196,-3.3473,-3.3133,-3.365,-3.4037,-3.4037,-3.3858,-3.4027,-3.4742,-3.5282,-3.56,-3.5583,-3.5616,-3.5616,-3.5616,-3.5616,-3.5616,-3.5667,-3.6282,-3.6498,-3.5753,-3.6196,-3.6144,-3.5597,-3.5469,-3.5429,-3.5444,-3.54,-3.5489,-3.5415,-3.5429,-3.5459,-3.5444,-3.54,-3.5444,-3.5489,-3.5344,-3.5151,-3.5001,-3.467,-3.4278,-3.3482,-3.2553,-3.1888,-4.7753,-4.7096,-4.6922,-4.6479,-4.5861,-4.5988,-4.6118,-4.6202,-4.621,-4.6262,-4.6289,-4.6133,-4.6055,-4.6035,-4.5879,-4.5801,-4.582,-4.5976,-4.6055,-4.6055,-4.6211,-4.6289,-4.6289,-4.6289,-4.6168,-4.5971,-4.5943,-4.579,-4.5516,-4.5495,-4.5097,-4.4388,-4.4342,-4.3935,-4.3245,0.0,0.0,0.0,-4.0595,-4.0592,-4.0592,-4.05,-4.0347,-4.0139,-4.0285,0.0,-3.9775,-3.985,-3.9413,-3.8336,-3.734,0.0,0.0,0.0,0.0,0.0,0.0,0.0,0.0,0.0,0.0,0.0,-3.4061,-3.3967,-3.3954,-3.3868,-3.3762,-3.3726,-3.4298,-3.4403,-3.3745,-3.4389,-3.4606,-3.3984,-3.4444,-3.4792,-3.4809,-3.5198,-3.554,-3.5574,-3.5599,-3.5616,-3.5616,-3.5616,-3.5616,-3.5616,-3.5616,-3.5616,-3.5616,-3.6282,-3.6353,-3.54,-3.5398,-3.5309,-3.4967,-3.5212,-3.537,-3.5489,-3.5489,-3.5474,-3.5459,-3.5489,-3.5489,-3.5474,-3.5489,-3.5474,-3.5459,-3.5472,-3.5285,-3.518,-3.4968,-3.4721,-3.4264,-3.3052,-3.2037,-4.8778,0.0,-4.7927,-4.7231,0.0,-4.6519,-4.6362,-4.6105,-4.6165,-4.6239,-4.6289,-4.6289,-4.6289,-4.6289,-4.6289,-4.6289,-4.6289,-4.6289,-4.6289,-4.6289,-4.6289,-4.6289,-4.6289,-4.6289,-4.6288,-4.6243,-4.621,-4.618,-4.6098,-4.6032,-4.5756,-4.5304,-4.5215,-4.4961,-4.4503,-4.413,-4.3085,-4.131,-4.0831,-4.0579,-4.0598,-4.0561,-4.0441,-4.0212,0.0,0.0,0.0,0.0,0.0,0.0,0.0,0.0,0.0,0.0,0.0,-3.4209,-3.4216,-3.4216,-3.4216,-3.4216,-3.4216,-3.4216,-3.45,-3.4473,-3.3944,-3.4196,-3.4399,-3.4399,-3.4972,-3.5129,-3.4683,-3.5084,-3.5234,-3.4745,-3.5242,-3.5648,-3.5662,-3.5852,-3.6012,-3.59,-3.5717,-3.5616,-3.5616,-3.5616,-3.5616,-3.5616,-3.5616,-3.5616,-3.5667,-3.6299,-3.647,-3.5714,-3.5212,-3.4847,-3.447,-3.4451,-3.458,-3.4548,-3.4786,-3.4966,-3.4996,-3.5295,-3.5415,-3.51,-3.4996,-3.4921,-3.4577,-3.4517,-3.4543,-3.4651,-3.4611,-3.4581,-3.4432,-3.3241,-3.2092,-4.9842,-4.9649,-4.8933,-4.8121,-4.7308,-4.7154,-4.6674,-4.6017,0.0,0.0,0.0,-4.6289,-4.6289,-4.6289,-4.6289,-4.6289,-4.6289,-4.6289,-4.6289,-4.6289,-4.6289,-4.6289,-4.6289,-4.6289,-4.6289,-4.6289,-4.6241,-4.6209,-4.62,-4.6087,-4.6018,-4.5997,-4.588,-4.5827,-4.5749,-4.5007,-4.3807,-4.2272,-4.131,-4.0775,-4.064,-4.0598,-4.0496,-4.0273,-4.043,-4.0441,-4.0278,-4.0425,-4.0134,-3.9299,-3.8406,-3.7452,-3.6413,-3.5372,-3.4712,-3.4498,-3.4308,-3.4216,-3.4216,-3.4216,-3.4271,-3.4389,-3.5156,-3.5182,-3.4104,-3.4775,-3.5238,-3.5224,-3.5705,-3.5867,-3.5435,-3.5773,-3.5852,-3.5448,-3.5939,-3.6284,-3.6284,-3.6221,-3.6109,-3.6014,-3.58,-3.5639,-3.5622,-3.5622,-3.5616,-3.5616,-3.5616,-3.5616,-3.5667,-3.6021,-3.6231,-3.5803,-3.5179,-3.4574,-3.4143,-3.3879,-3.3668,-3.3711,-3.4024,-3.4309,-3.4414,-3.4771,-3.4876,-3.4444,-3.4339,-3.4098,-3.3649,-3.3589,-3.3648,-3.3999,-3.4057,-3.4078,-3.4204,-3.316,-3.2072,-5.0318,-4.9687,-4.9571,-4.901,-4.8159,-4.7424,-4.6674,-4.6037,-4.6142,-4.6206,-4.6212,-4.6268,-4.6289,-4.6289,-4.6289,-4.6289,-4.6289,-4.6289,-4.6289,0.0,-4.6289,-4.6289,-4.6289,-4.6289,-4.6289,-4.6289,-4.6289,-4.6264,-4.6204,-4.621,-4.6115,-4.6022,-4.5986,-4.5923,-4.5736,-4.5007,-4.411,-4.3137,-4.2252,-4.144,-4.0713,-4.0621,-4.0593,-4.0552,-4.0569,-4.0573,-4.0531,-4.0516,-4.045,-4.0273,-3.9355,-3.8714,-3.8488,-3.6694,-3.56,-3.5537,-3.4731,-3.4216,-3.4216,-3.4216,-3.4519,-3.5211,-3.5983,-3.5991,-3.5059,-3.5708,-3.6191,-3.617,-3.6776,-3.6937,-3.6308,-3.6791,-3.6882,-3.6257,-3.6215,-3.6284,-3.6301,-3.6285,-3.6255,-3.6144,-3.5983,-3.5829,-3.5751,-3.5667,-3.5616,-3.5616,-3.5616,-3.5616,-3.5571,-3.5285,-3.5103,-3.4955,-3.4525,-3.4148,-3.3951,-3.3826,-3.3638,-3.3698,-3.3606,-3.3634,-3.3619,-3.3814,-3.3858,-3.3664,-3.3634,-3.3559,-3.3425,-3.3499,-3.3469,-3.3543,-3.3465,-3.3415,-3.3499,-3.254,-3.1776,-5.0685,-5.0384,-5.0364,-4.9881,-4.901,-4.7676,-4.6925,-4.657,-4.623,-4.6134,-4.6202,-4.6238,-4.6266,-4.6289,-4.6289,-4.6289,-4.6289,-4.6289,-4.6289,-4.6289,-4.6289,-4.6289,-4.6289,-4.6289,-4.6289,-4.6289,-4.6289,-4.6523,-4.6927,-4.6916,-4.6867,-4.6771,-4.6274,-4.5922,-4.5775,-4.5432,-4.4833,-4.4001,-4.2692,-4.1596,-4.0765,-4.0694,-4.0635,-4.0654,-4.0619,-4.0591,-4.0588,-4.0573,-4.0531,-4.0496,-3.9665,-3.9122,-3.8971,-3.7623,-3.6775,-3.6644,-3.6066,-3.5729,-3.571,-3.5615,-3.572,-3.609,-3.6851,-3.7094,-3.6602,-3.6864,-3.7032,-3.6997,-3.7491,-3.7691,-3.7304,-3.7417,-3.7247,-3.6681,-3.6618,-3.6536,-3.6343,-3.6268,-3.6242,-3.6165,-3.6005,-3.5851,-3.5795,-3.5689,-3.5616,-3.5616,-3.5616,-3.5616,-3.5616,-3.5402,-3.5091,-3.4849,-3.4586,-3.414,-3.3612,-3.3339,-3.3091,-3.2746,-3.2826,-3.2916,-3.2991,-3.32,-3.3305,-3.3051,-3.2976,-3.2811,-3.2572,-3.2422,-3.2542,-3.2931,-3.2885,-3.2884,-3.2982,-3.2344,-3.1542,-5.0898,-5.0898,-5.0898,-5.0415,-4.9591,-4.8275,-4.7463,-4.7052,-4.6499,-4.6201,-4.6167,-4.6193,-4.6216,-4.6268,-4.6289,-4.6289,-4.6289,-4.6289,-4.6289,-4.6289,-4.6289,-4.6289,-4.6289,-4.6289,-4.6289,-4.6289,-4.6289,-4.6758,-4.75,-4.7532,-4.7617,-4.7641,-4.6785,-4.623,-4.6113,-4.5898,-4.5413,-4.4574,-4.3266,-4.2106,-4.11,-4.0842,-4.0707,-4.0713,-4.0641,-4.0626,-4.0583,-4.0595,-4.0573,-4.0477,-3.99,-3.95,-3.9308,-3.8491,-3.7925,-3.7737,-3.7281,-3.6967,-3.6946,-3.6963,-3.6965,-3.6996,-3.7708,-3.8164,-3.8067,-3.7954,-3.7871,-3.7838,-3.8065,-3.8183,-3.8032,-3.7826,-3.7487,-3.7094,-3.6958,-3.6761,-3.6492,-3.6318,-3.6247,-3.6208,-3.6036,-3.5866,-3.5839,-3.5734,-3.5644,-3.5622,-3.5616,-3.5616,-3.5616,-3.5616,-3.5402,-3.5108,-3.4897,-3.4513,-3.3521,-3.3087,-3.2718,-3.2094,-3.2191,-3.2331,-3.2362,-3.2736,-3.2841,-3.2378,-3.2273,-3.2108,-3.163,-3.154,-3.1765,-3.2183,-3.2258,-3.2378,-3.2555,-3.1888,-3.1006,-5.0898,-5.0898,-5.0898,-5.0434,-4.9726,-4.9494,-4.8527,-4.7219,-4.702,-4.6622,-4.6066,-4.6145,-4.6202,-4.6231,-4.6267,-4.6289,-4.6289,-4.6289,-4.6289,-4.6289,-4.6289,-4.6289,-4.6289,-4.6289,-4.6289,-4.6289,-4.6289,-4.6738,-4.7558,-4.7637,-4.7964,-4.8484,-4.7607,-4.7056,-4.6971,-4.6229,-4.542,-4.4639,-4.4439,-4.3556,-4.197,-4.1177,-4.081,-4.079,-4.0713,-4.0661,-4.0607,-4.0591,-4.0573,-4.0516,-4.0419,-4.0373,-4.0254,-3.9421,-3.8894,-3.8801,-3.7718,-3.6916,-3.6832,-3.74,-3.7795,-3.7838,-3.8507,-3.8911,-3.8859,-3.8806,-3.8752,-3.8663,-3.8631,-3.8483,-3.8152,-3.8068,-3.7879,-3.7487,-3.717,-3.688,-3.6781,-3.6512,-3.628,-3.628,-3.6208,-3.6101,-3.5993,-3.5844,-3.5711,-3.5622,-3.5616,-3.5616,-3.5616,-3.5616,-3.56,-3.5424,-3.5138,-3.4793,-3.4439,-3.3649,-3.3029,-3.2683,-3.2209,-3.1935,-3.1808,-3.1735,-3.166,-3.1869,-3.1675,-3.1615,-3.157,-3.1496,-3.1511,-3.166,-3.1705,-3.1631,-3.1441,-3.104,-3.0362,-5.0861,-5.0905,-5.0905,-5.0708,-5.0357,-4.9919,-4.901,-4.7869,-4.7316,-4.6654,-4.595,-4.6022,-4.6125,-4.6204,-4.6216,-4.6246,-4.6289,-4.6289,-4.6289,-4.6289,-4.6289,-4.6289,-4.6289,-4.6289,-4.6289,-4.6289,-4.6289,-4.6758,-4.7558,-4.8105,-4.8747,-4.9331,-4.8588,-4.7837,-4.7227,-4.6818,-4.6183,-4.5323,-4.4852,-4.3994,-4.2841,-4.1951,-4.1274,-4.0855,-4.0778,-4.0733,-4.0661,-4.0666,-4.0631,-4.0573,-4.0565,-4.0539,-4.0496,-4.0106,-3.9882,-3.9835,-3.9271,-3.8737,-3.8378,-3.8677,-3.8768,-3.8627,-3.8915,-3.9087,-3.9078,-3.9011,-3.8939,-3.8866,-3.8765,-3.8627,-3.8483,-3.8467,-3.8303,-3.793,-3.7703,-3.7432,-3.6939,-3.6779,-3.6594,-3.6346,-3.6251,-3.6182,-3.6101,-3.5927,-3.5734,-3.5622,-3.5616,-3.5616,-3.5616,-3.5616,-3.5616,-3.5577,-3.5402,-3.5138,-3.4816,-3.4078,-3.3407,-3.2841,-3.2247,-3.1756,-3.1568,-3.1496,-3.1511,-3.1496,-3.1496,-3.1496,-3.1511,-3.1496,-3.1496,-3.1496,-3.1496,-3.1467,-3.1409,-3.1117,-3.0495,-5.0819,-5.0863,-5.0863,-5.0888,-5.0844,-5.0283,-4.9409,-4.8392,-4.7715,-4.6832,-4.5859,-4.5892,-4.6017,-4.6137,-4.616,-4.6207,-4.6267,-4.6267,-4.6288,-4.6289,-4.6289,-4.6289,-4.6289,-4.6289,-4.6289,-4.6289,-4.6289,-4.6875,-4.793,-4.8828,-4.9647,-5.0164,-4.9549,-4.8733,-4.7992,-4.7549,-4.6862,-4.6171,-4.5363,-4.4523,-4.3672,-4.2821,-4.1854,-4.0932,-4.0797,-4.0778,-4.072,-4.072,-4.0673,-4.0591,-4.0595,-4.0573,-4.055,-4.0523,-4.0473,-4.0425,-4.0286,-4.0001,-3.9532,-3.9495,-3.9389,-3.9142,-3.9101,-3.9101,-3.9087,-3.9031,-3.8979,-3.8939,-3.8792,-3.8738,-3.8707,-3.8707,-3.8546,-3.8285,-3.8185,-3.7826,-3.7339,-3.7075,-3.6799,-3.6512,-3.6343,-3.6187,-3.6122,-3.5949,-3.5751,-3.5644,-3.5616,-3.5616,-3.5616,-3.5616,-3.5616,-3.5616,-3.56,-3.5447,-3.5045,-3.4512,-3.3853,-3.3182,-3.2559,-3.201,-3.1668,-3.1553,-3.1496,-3.1496,-3.1496,-3.1496,-3.1496,-3.1496,-3.1496,-3.1496,-3.1496,-3.1496,-3.1467,-3.1365,-3.0881,-5.0821,-5.0821,-5.0821,-5.0846,-5.088,-5.0841,-4.988,-4.8384,-4.8314,-4.7386,-4.5923,-4.5821,-4.588,-4.6003,-4.6068,-4.6139,-4.6202,-4.6207,-4.624,-4.6289,-4.6289,-4.6289,-4.6289,-4.6289,-4.6289,-4.6289,-4.6308,-4.7129,-4.8711,-4.9648,-5.0547,-5.1191,-5.038,-4.9915,-4.9523,-4.8136,-4.7217,-4.6976,-4.6197,-4.5343,-4.4504,-4.3653,-4.2434,-4.1048,-4.0797,-4.0759,-4.0707,-4.072,-4.0661,-4.0595,-4.0591,-4.0607,-4.058,-4.0531,-4.0425,-4.026,-4.0223,-4.0011,-3.9604,-3.9532,-3.9408,-3.9151,-3.9124,-3.9115,-3.9101,-3.9031,-3.8993,-3.8993,-3.8881,-3.8777,-3.8704,-3.8689,-3.8692,-3.8611,-3.8336,-3.8101,-3.7999,-3.7377,-3.6958,-3.6799,-3.6512,-3.6237,-3.6041,-3.5883,-3.5773,-3.5644,-3.5622,-3.5616,-3.5616,-3.5616,-3.5616,-3.5616,-3.5616,-3.56,-3.5492,-3.4958,-3.4415,-3.3853,-3.3156,-3.2532,-3.2023,-3.1655,-3.1582,-3.1496,-3.1496,-3.1496,-3.1496,-3.1496,-3.1496,-3.1496,-3.1496,-3.1496,-3.1496,-3.1496,-3.1058,-5.074,-5.0748,-5.0764,-5.081,-5.0838,-5.0819,-4.9879,-4.8392,-4.8334,-4.7383,-4.5993,-4.5807,-4.5834,-4.5867,-4.5891,-4.5993,-4.6134,-4.6191,-4.621,-4.624,-4.6268,-4.6289,-4.6289,-4.6289,-4.6289,-4.6289,-4.6308,-4.6894,-4.8027,-4.8945,-4.9805,-5.0586,-5.0838,-5.0617,-4.9973,-4.9338,-4.8436,-4.7285,-4.6824,-4.6041,-4.4665,-4.375,-4.2725,-4.1641,-4.1048,-4.079,-4.0778,-4.0778,-4.072,-4.0661,-4.0666,-4.0639,-4.0607,-4.0531,-4.0473,-4.0417,-4.0408,-4.0258,-3.9992,-3.996,-3.9769,-3.9408,-3.9363,-3.9272,-3.9142,-3.9073,-3.9031,-3.8993,-3.8983,-3.8896,-3.8777,-3.8719,-3.8707,-3.8676,-3.858,-3.8368,-3.8153,-3.7826,-3.7487,-3.6978,-3.6553,-3.6259,-3.6148,-3.6014,-3.5866,-3.5734,-3.5644,-3.5622,-3.5616,-3.5616,-3.5616,-3.5616,-3.5616,-3.5616,-3.5616,-3.5155,-3.4649,-3.4325,-3.3811,-3.313,-3.2586,-3.2259,-3.2176,-3.1682,-3.1611,-3.1496,-3.1496,-3.1496,-3.1496,-3.1496,-3.1496,-3.1496,-3.1496,-3.1496,-3.119,-5.0693,-5.0702,-5.0739,-5.0785,-5.0736,-5.0486,-4.9605,-4.8334,-4.7986,-4.7075,-4.5945,-4.5798,-4.5805,-4.5805,-4.58,-4.586,-4.5998,-4.6086,-4.6175,-4.6204,-4.6242,-4.6288,-4.6289,-4.6289,-4.6289,-4.6289,-4.6289,-4.6738,-4.7598,-4.8476,-4.9336,-5.0195,-5.0996,-5.1112,-5.0497,-5.0155,-4.9198,-4.795,-4.7393,-4.6474,-4.5124,-4.4195,-4.3305,-4.2434,-4.1622,-4.1042,-4.0835,-4.0797,-4.0765,-4.0739,-4.0707,-4.0673,-4.061,-4.0573,-4.0531,-4.0531,-4.0504,-4.0425,-4.0242,-4.0205,-4.0012,-3.9644,-3.9585,-3.9489,-3.9272,-3.9219,-3.917,-3.9059,-3.9007,-3.895,-3.8881,-3.8795,-3.8719,-3.8707,-3.8707,-3.8596,-3.8318,-3.8186,-3.7773,-3.7227,-3.6761,-3.6512,-3.6364,-3.6191,-3.6014,-3.5817,-3.5728,-3.5667,-3.5622,-3.5616,-3.5616,-3.5616,-3.5616,-3.5616,-3.5616,-3.5333,-3.4951,-3.4633,-3.4406,-3.3761,-3.313,-3.2868,-3.2465,-3.1979,-3.1682,-3.1553,-3.1496,-3.1496,-3.1496,-3.1496,-3.1496,-3.1496,-3.1496,-3.1496,-3.1248,-5.0693,-5.0693,-5.0693,-5.0702,-5.0596,-4.9931,-4.9071,-4.8246,-4.7425,-4.6595,-4.5781,-4.5773,-4.5788,-4.5795,-4.5798,-4.5794,-4.5841,-4.595,-4.6064,-4.6167,-4.6202,-4.624,-4.6289,-4.6289,-4.6289,-4.6289,-4.6289,-4.6738,-4.748,-4.8418,-4.9336,-5.0137,-5.0957,-5.1348,-5.1328,-5.0498,-4.9663,-4.876,-4.7852,-4.6882,-4.6011,-4.5014,-4.406,-4.3241,-4.2383,-4.1545,-4.0855,-4.0797,-4.0797,-4.079,-4.0739,-4.0661,-4.0633,-4.061,-4.0588,-4.06,-4.0539,-4.0417,-4.0251,-4.0223,-4.011,-3.987,-3.9827,-3.9717,-3.9495,-3.9446,-3.9363,-3.9129,-3.9031,-3.8993,-3.8983,-3.8881,-3.8777,-3.8723,-3.8689,-3.8692,-3.8611,-3.8318,-3.7948,-3.7524,-3.717,-3.6862,-3.6681,-3.6451,-3.6148,-3.5927,-3.5795,-3.5751,-3.5644,-3.5622,-3.5616,-3.5616,-3.5616,-3.5616,-3.5616,-3.5577,-3.5264,-3.4975,-3.48,-3.4382,-3.3659,-3.3235,-3.2722,-3.2216,-3.1653,-3.1524,-3.1496,-3.1496,-3.1496,-3.1496,-3.1496,-3.1496,-3.1496,-3.1496,-3.1438,-5.0683,-5.0683,-5.0683,-5.0702,-5.0577,-4.9788,-4.896,-4.8176,-4.7309,-4.6466,-4.5796,-4.5715,-4.5723,-4.5723,-4.5739,-4.5761,-4.581,-4.5866,-4.5927,-4.6056,-4.6153,-4.6207,-4.6239,-4.6288,-4.6289,-4.6289,-4.6289,-4.6426,-4.6933,-4.8183,-4.9062,-4.9512,-5.0723,-5.1348,-5.1387,-5.1092,-5.0521,-4.9622,-4.8757,-4.786,-4.6906,-4.5444,-4.4253,-4.3394,-4.2485,-4.1622,-4.0855,-4.0797,-4.0797,-4.0797,-4.0784,-4.0739,-4.0687,-4.0633,-4.0598,-4.0588,-4.0573,-4.0543,-4.0414,-4.0389,-4.0313,-4.012,-4.0072,-3.9878,-3.9568,-3.9495,-3.9389,-3.9156,-3.9073,-3.9045,-3.8993,-3.8964,-3.8877,-3.8795,-3.8719,-3.8689,-3.8658,-3.8352,-3.8085,-3.7913,-3.756,-3.7209,-3.6902,-3.6641,-3.6412,-3.6122,-3.5927,-3.5773,-3.5728,-3.5644,-3.5616,-3.5616,-3.5616,-3.5616,-3.5616,-3.5616,-3.5464,-3.5287,-3.5161,-3.4918,-3.4235,-3.3531,-3.2986,-3.2327,-3.1796,-3.1553,-3.1496,-3.1496,-3.1496,-3.1496,-3.1496,-3.1496,-3.1496,-3.1467,-3.1438,-5.0683,-5.0683,-5.0683,-5.0683,-5.0548,-4.9452,-4.8643,-4.8007,-4.69,-4.6127,-4.5709,-4.5695,-4.5684,-4.5684,-4.568,-4.5715,-4.5777,-4.5765,-4.5819,-4.5935,-4.6064,-4.6145,-4.6202,-4.6267,-4.6289,-4.6289,-4.6289,-4.6289,-4.6406,-4.7988,-4.8887,-4.918,-5.0566,-5.1387,-5.1387,-5.1367,-5.0955,-5.0068,-4.9199,-4.8361,-4.7348,-4.5971,-4.4642,-4.3515,-4.2826,-4.1968,-4.0938,-4.0797,-4.0797,-4.0797,-4.0797,-4.0784,-4.0739,-4.0687,-4.0621,-4.0631,-4.0603,-4.0573,-4.0539,-4.0516,-4.0457,-4.0339,-4.0313,-4.0101,-3.9728,-3.9609,-3.9477,-3.9165,-3.9082,-3.9092,-3.9031,-3.9007,-3.8968,-3.8896,-3.8777,-3.8719,-3.8658,-3.8483,-3.8352,-3.8252,-3.7983,-3.7632,-3.7396,-3.6941,-3.6684,-3.6367,-3.6084,-3.5817,-3.5751,-3.5644,-3.5622,-3.5616,-3.5616,-3.5616,-3.5616,-3.5616,-3.5616,-3.5554,-3.5532,-3.5253,-3.48,-3.4012,-3.3365,-3.2327,-3.1655,-3.1524,-3.1496,-3.1496,-3.1496,-3.1496,-3.1496,-3.1496,-3.1496,-3.1496,-3.1467,-5.0683,-5.0683,-5.0683,-5.0683,-5.0471,-4.8913,-4.8163,-4.7836,-4.6355,-4.5661,-4.5612,-4.5665,-4.5673,-4.569,-4.5668,-4.5692,-4.5688,-4.5708,-4.575,-4.5819,-4.5927,-4.6037,-4.62,-4.6264,-4.6289,-4.6289,-4.6289,-4.6367,-4.6601,-4.8105,-4.8926,-4.9258,-5.0605,-5.1387,-5.1387,-5.1387,-5.1055,-5.0351,-4.9345,-4.8397,-4.7631,-4.6552,-4.5184,-4.3538,-4.3301,-4.2528,-4.1077,-4.0809,-4.0797,-4.0797,-4.0797,-4.081,-4.0784,-4.072,-4.07,-4.0687,-4.0631,-4.0615,-4.06,-4.0539,-4.0516,-4.0473,-4.0457,-4.0319,-3.9913,-3.9808,-3.9652,-3.9279,-3.9178,-3.9137,-3.9124,-3.9045,-3.9007,-3.8979,-3.8848,-3.878,-3.8723,-3.8676,-3.8627,-3.8596,-3.835,-3.8101,-3.7982,-3.7359,-3.6921,-3.658,-3.6262,-3.5915,-3.5756,-3.5689,-3.5639,-3.5616,-3.5616,-3.5616,-3.5616,-3.5616,-3.5616,-3.5616,-3.5577,-3.5328,-3.4965,-3.4186,-3.3339,-3.2355,-3.1578,-3.1493,-3.1496,-3.1481,-3.1496,-3.1496,-3.1496,-3.1496,-3.1496,-3.1481,-3.1407,-5.0683,-5.0683,-5.0683,-5.0683,-5.0462,-4.8836,-4.8096,-4.7894,-4.6326,-4.5594,-4.5614,-4.5622,-4.5631,-4.5631,-4.5629,-4.5646,-4.569,-4.5679,-4.5703,-4.575,-4.5817,-4.5993,-4.6162,-4.6212,-4.6263,-4.6289,-4.6308,-4.6621,-4.7285,-4.8359,-4.9199,-4.9883,-5.082,-5.1387,-5.1387,-5.1387,-5.1308,-5.0898,-4.959,-4.8789,-4.8336,-4.693,-4.5323,-4.3731,-4.3491,-4.2587,-4.1067,-4.0825,-4.0797,-4.0797,-4.0797,-4.0797,-4.079,-4.0784,-4.0746,-4.07,-4.068,-4.0646,-4.0595,-4.058,-4.0539,-4.0496,-4.0496,-4.0381,-4.012,-4.0081,-3.9922,-3.966,-3.9501,-3.9383,-3.9363,-3.9192,-3.9059,-3.8993,-3.8877,-3.8777,-3.8719,-3.8707,-3.8707,-3.8692,-3.8596,-3.8401,-3.8101,-3.7667,-3.719,-3.6841,-3.6371,-3.5975,-3.5822,-3.5706,-3.5661,-3.5639,-3.5616,-3.5616,-3.5616,-3.5616,-3.5616,-3.5616,-3.5498,-3.5278,-3.4686,-3.393,-3.305,-3.215,-3.1494,-3.1249,-3.1389,-3.1451,-3.1466,-3.1212,-3.1271,-3.1182,-3.1376,-3.1436,-3.1346,-5.0493,-5.0504,-5.0634,-5.0683,-5.0471,-4.8817,-4.8096,-4.7778,-4.6355,-4.5594,-4.5594,-4.5594,-4.5594,-4.5594,-4.5594,-4.5631,-4.5657,-4.5657,-4.5662,-4.5722,-4.575,-4.5891,-4.6072,-4.6158,-4.6213,-4.6264,-4.6288,-4.6797,-4.7598,-4.8476,-4.9336,-5.0156,-5.0996,-5.1387,-5.1387,-5.1387,-5.1387,-5.1094,-4.9805,-4.8887,-4.8769,-4.7145,-4.5397,-4.3962,-4.3504,-4.2718,-4.1178,-4.0867,-4.0831,-4.0815,-4.0797,-4.0797,-4.0797,-4.0797,-4.0784,-4.0739,-4.0733,-4.0673,-4.0639,-4.061,-4.058,-4.0539,-4.0523,-4.0389,-4.0251,-4.0196,-4.0101,-3.9808,-3.9675,-3.9597,-3.9458,-3.9259,-3.9106,-3.9026,-3.8921,-3.8851,-3.8732,-3.8723,-3.8707,-3.8707,-3.8673,-3.8627,-3.8334,-3.7861,-3.7433,-3.7038,-3.6474,-3.6152,-3.5888,-3.5756,-3.5582,-3.5458,-3.543,-3.543,-3.5447,-3.5464,-3.5267,-3.5284,-3.5036,-3.4897,-3.4452,-3.3655,-3.2771,-3.1956,-3.1409,-3.0988,-3.0938,-3.0838,-3.0582,-3.0477,-3.0658,-3.0748,-3.0778,-3.0972,-3.0943,-5.0183,-5.0237,-5.0514,-5.0635,-5.0279,-4.8836,-4.8,-4.7663,-4.6278,-4.5594,-4.5594,-4.5594,-4.5594,-4.5594,-4.5594,-4.5594,-4.5594,-4.5603,-4.5648,-4.5682,-4.5719,-4.5801,-4.5961,-4.6082,-4.616,-4.6202,-4.6241,-4.6912,-4.7792,-4.8612,-4.9433,-5.0351,-5.1133,-5.1348,-5.1387,-5.1387,-5.1387,-5.1113,-4.9746,-4.8926,-4.8594,-4.7187,-4.5427,-4.3874,-4.3102,-4.2422,-4.1303,-4.0911,-4.0888,-4.0825,-4.0815,-4.0797,-4.0797,-4.0797,-4.079,-4.079,-4.0746,-4.07,-4.0687,-4.0639,-4.0595,-4.0607,-4.0539,-4.0441,-4.0304,-4.025,-4.0167,-3.9974,-3.988,-3.9761,-3.9561,-3.9305,-3.9183,-3.912,-3.9064,-3.8954,-3.8837,-3.8732,-3.8689,-3.8707,-3.8707,-3.8707,-3.8515,-3.8066,-3.7488,-3.7041,-3.6441,-3.5835,-3.5454,-3.5109,-3.503,-3.5006,-3.5086,-3.5194,-3.5245,-3.5295,-3.5013,-3.4776,-3.4438,-3.4218,-3.4118,-3.341,-3.2476,-3.168,-3.0907,-3.0337,-3.0023,-2.9849,-2.9741,-2.9819,-3.0118,-2.9909,-2.9729,-3.0043,-3.0148,-5.0006,-5.0206,-5.0252,-5.007,-4.9538,-4.8548,-4.7759,-4.7105,-4.6075,-4.5594,-4.5594,-4.5594,-4.5594,-4.5594,-4.5594,-4.5594,-4.5594,-4.5594,-4.564,-4.5673,-4.569,-4.57,-4.58,-4.5917,-4.6006,-4.6117,-4.6193,-4.7071,-4.8291,-4.8821,-4.9683,-5.0975,-5.1229,-5.1386,-5.1387,-5.1387,-5.1387,-5.1113,-4.9746,-4.8945,-4.8574,-4.7207,-4.5449,-4.3769,-4.243,-4.1592,-4.122,-4.1019,-4.0963,-4.0921,-4.0853,-4.0809,-4.0809,-4.0797,-4.0797,-4.079,-4.079,-4.0752,-4.07,-4.068,-4.0646,-4.0622,-4.06,-4.0531,-4.0457,-4.0414,-4.0397,-4.0319,-4.0194,-3.9993,-3.9772,-3.9556,-3.9414,-3.9324,-3.9156,-3.8979,-3.8877,-3.8822,-3.8747,-3.8704,-3.867,-3.8689,-3.8655,-3.8122,-3.757,-3.7035,-3.6274,-3.5496,-3.5002,-3.4579,-3.4478,-3.4542,-3.4638,-3.4714,-3.4687,-3.467,-3.4421,-3.3998,-3.3626,-3.3229,-3.3134,-3.2869,-3.1846,-3.1014,-3.0277,-2.9773,-2.9282,-2.9382,-2.9352,-2.9472,-2.9487,-2.9337,-2.9232,-2.9382,-2.9337,-4.9698,-4.9844,-5.0099,-4.9816,-4.9149,-4.8404,-4.7644,-4.6836,-4.597,-4.5594,-4.5594,-4.5594,-4.5594,-4.5594,-4.5594,-4.5594,-4.5594,-4.5594,-4.5603,-4.5648,-4.5648,-4.5646,-4.566,-4.5764,-4.5852,-4.5957,-4.6029,-4.7095,-4.8361,-4.8937,-4.9685,-5.1265,-5.1383,-5.1385,-5.1386,-5.1386,-5.1387,-5.1074,-4.9766,-4.8887,-4.8633,-4.7207,-4.5469,-4.375,-4.2106,-4.1142,-4.1106,-4.107,-4.1022,-4.0977,-4.0897,-4.0846,-4.0848,-4.0808,-4.0797,-4.0797,-4.0797,-4.079,-4.0746,-4.0726,-4.068,-4.0658,-4.0629,-4.058,-4.0539,-4.0504,-4.0496,-4.0481,-4.0381,-4.0241,-4.0003,-3.9754,-3.9625,-3.9483,-3.9313,-3.9007,-3.8543,-3.8593,-3.8777,-3.8646,-3.8322,-3.8157,-3.7973,-3.7642,-3.7045,-3.6268,-3.5878,-3.515,-3.4809,-3.4397,-3.4085,-3.4076,-3.4147,-3.4181,-3.4138,-3.3981,-3.3711,-3.3203,-3.2611,-3.2139,-3.1779,-3.1473,-3.1066,-3.0458,-2.9898,-2.9037,-2.8615,-2.8793,-2.882,-2.8558,-2.8498,-2.8618,-2.8633,-2.8513,-2.8453,-4.9352,-4.9427,-4.9897,-4.9589,-4.8785,-4.8189,-4.7415,-4.6531,-4.5877,-4.5504,-4.5559,-4.5568,-4.5594,-4.5594,-4.5594,-4.5594,-4.5594,-4.5594,-4.5603,-4.5603,-4.5603,-4.5603,-4.562,-4.5679,-4.5719,-4.577,-4.5859,-4.69,-4.8018,-4.8727,-4.9538,-5.0918,-5.1377,-5.1381,-5.1384,-5.1385,-5.1386,-5.1191,-4.9785,-4.8887,-4.8613,-4.7207,-4.5469,-4.375,-4.2109,-4.123,-4.1142,-4.1115,-4.1104,-4.1022,-4.0956,-4.0913,-4.0903,-4.0834,-4.0797,-4.0797,-4.0797,-4.079,-4.0765,-4.0746,-4.0707,-4.072,-4.0665,-4.0629,-4.0595,-4.0554,-4.0531,-4.0523,-4.0484,-4.0406,-4.0241,-3.9756,-3.954,-3.9361,-3.9267,-3.8627,-3.8002,-3.8135,-3.8217,-3.8117,-3.7643,-3.7331,-3.7088,-3.6769,-3.6121,-3.5566,-3.5225,-3.4904,-3.4552,-3.424,-3.3928,-3.366,-3.3728,-3.3488,-3.3384,-3.3339,-3.3089,-3.275,-3.2022,-3.1591,-3.1041,-3.0832,-3.068,-3.0183,-2.9556,-2.8771,-2.8227,-2.8283,-2.8137,-2.769,-2.772,-2.8034,-2.7929,-2.763,-2.7705,-4.9144,-4.9415,-4.9503,-4.891,-4.7949,-4.755,-4.6675,-4.5606,-4.5359,-4.5263,-4.5293,-4.5514,-4.5577,-4.5594,-4.5594,-4.5594,-4.5594,-4.5594,-4.5594,-4.5594,-4.5594,-4.5594,-4.5594,-4.5622,-4.5646,-4.5665,-4.5787,-4.6457,-4.749,-4.8296,-4.9246,-5.023,-5.1045,-5.1372,-5.1378,-5.1384,-5.1385,-5.1151,-4.9785,-4.8945,-4.8516,-4.6992,-4.5273,-4.3594,-4.2012,-4.1308,-4.1191,-4.1191,-4.1171,-4.1149,-4.1109,-4.105,-4.0986,-4.0868,-4.0814,-4.0797,-4.0797,-4.0797,-4.079,-4.079,-4.0746,-4.0707,-4.068,-4.064,-4.0619,-4.0564,-4.0523,-4.0411,-4.0396,-4.0377,-4.0438,-3.9552,-3.9099,-3.8774,-3.8204,-3.7488,-3.715,-3.7058,-3.698,-3.6781,-3.6577,-3.6468,-3.6245,-3.5978,-3.5466,-3.5049,-3.4761,-3.4542,-3.43,-3.4035,-3.3776,-3.3528,-3.3323,-3.2958,-3.2598,-3.2605,-3.2496,-3.2412,-3.1955,-3.1715,-3.1241,-3.0779,-3.0387,-3.0212,-2.9656,-2.8912,-2.8453,-2.8107,-2.7875,-2.774,-2.765,-2.7585,-2.7585,-2.7585,-2.7585,-4.8993,-4.9104,-4.8849,-4.8187,-4.7307,-4.6841,-4.6049,-4.5099,-4.5007,-4.5074,-4.5211,-4.5342,-4.5485,-4.5568,-4.5594,-4.5594,-4.5594,-4.5594,-4.5594,-4.5594,-4.5594,-4.5594,-4.5594,-4.5594,-4.5594,-4.562,-4.5711,-4.6199,-4.7165,-4.806,-4.8963,-4.9924,-5.0849,-5.1294,-5.1312,-5.137,-5.1379,-5.1031,-4.9841,-4.8866,-4.8554,-4.6445,-4.4336,-4.3066,-4.1973,-4.1289,-4.1191,-4.1191,-4.1191,-4.1191,-4.1142,-4.1083,-4.1044,-4.0991,-4.0883,-4.0833,-4.0803,-4.0797,-4.0797,-4.0797,-4.0784,-4.0752,-4.0733,-4.0694,-4.0673,-4.0607,-4.0359,-3.9945,-3.9357,-3.92,-3.9115,-3.8711,-3.8427,-3.8172,-3.7623,-3.7062,-3.6614,-3.6395,-3.5994,-3.5565,-3.5625,-3.5634,-3.5518,-3.5192,-3.4821,-3.4522,-3.4292,-3.4182,-3.4105,-3.398,-3.3804,-3.3335,-3.307,-3.2638,-3.2264,-3.2147,-3.2039,-3.1921,-3.1836,-3.1596,-3.1404,-3.0949,-3.0818,-3.0704,-2.9989,-2.9039,-2.8669,-2.8341,-2.8073,-2.7815,-2.77,-2.7625,-2.7585,-2.7585,-2.7585,-4.889,-4.8852,-4.8277,-4.759,-4.6857,-4.6199,-4.5488,-4.4827,-4.4714,-4.4825,-4.5041,-4.515,-4.5322,-4.5495,-4.5577,-4.5594,-4.5594,-4.5594,-4.5594,-4.5594,-4.5594,-4.5594,-4.5594,-4.5594,-4.5594,-4.5594,-4.5631,-4.6026,-4.6761,-4.7821,-4.8722,-4.9534,-5.0491,-5.118,-5.1219,-5.1301,-5.1343,-5.0887,-4.9796,-4.8842,-4.7478,-4.5175,-4.3144,-4.2402,-4.1641,-4.1191,-4.1191,-4.1191,-4.1367,-4.1445,-4.146,-4.1388,-4.136,-4.1291,-4.1131,-4.0911,-4.0851,-4.0827,-4.0797,-4.0797,-4.081,-4.0784,-4.0746,-4.0655,-4.032,-4.0024,-3.9713,-3.9073,-3.8563,-3.8169,-3.8238,-3.7885,-3.7652,-3.7414,-3.7215,-3.6861,-3.6099,-3.5622,-3.5268,-3.4996,-3.4912,-3.4855,-3.4811,-3.4651,-3.4302,-3.4247,-3.4019,-3.4302,-3.4229,-3.4186,-3.3921,-3.3272,-3.2809,-3.2399,-3.2085,-3.1876,-3.1718,-3.1515,-3.1461,-3.136,-3.1275,-3.1131,-3.1021,-3.0838,-2.9984,-2.9117,-2.8846,-2.8574,-2.8293,-2.8024,-2.7775,-2.765,-2.7625,-2.7585,-2.7585,-4.889,-4.8816,-4.8068,-4.7428,-4.675,-4.5794,-4.5036,-4.4481,-4.4457,-4.4471,-4.4599,-4.4966,-4.5191,-4.5312,-4.5495,-4.5577,-4.5594,-4.5594,-4.5594,-4.5594,-4.5594,-4.5594,-4.5594,-4.5594,-4.5594,-4.5594,-4.5594,-4.5642,-4.6238,-4.7488,-4.8302,-4.885,-5.0098,-5.1069,-5.1155,-5.1202,-5.1274,-5.1073,-4.9715,-4.7784,-4.5655,-4.3647,-4.2693,-4.2166,-4.1641,-4.1191,-4.123,-4.1289,-4.1543,-4.2129,-4.2226,-4.2226,-4.2169,-4.2142,-4.1703,-4.123,-4.092,-4.0872,-4.0825,-4.0705,-4.0666,-4.0628,-4.0584,-4.0346,-3.9728,-3.8968,-3.8498,-3.8238,-3.7935,-3.7786,-3.7546,-3.7231,-3.6947,-3.6588,-3.6235,-3.5798,-3.522,-3.5314,-3.4883,-3.464,-3.4636,-3.4376,-3.4215,-3.4007,-3.3844,-3.3825,-3.3867,-3.4138,-3.4293,-3.4201,-3.4015,-3.3373,-3.2772,-3.2329,-3.195,-3.1742,-3.154,-3.1247,-3.121,-3.114,-3.097,-3.0903,-3.097,-3.0603,-2.977,-2.9174,-2.8874,-2.8626,-2.845,-2.8244,-2.7999,-2.7775,-2.7625,-2.7625,-2.7625,-4.8221,-4.8166,-4.7348,-4.6613,-4.5904,-4.496,-4.4436,-4.4222,-4.4181,-4.4265,-4.4397,-4.4624,-4.4896,-4.5161,-4.5332,-4.5467,-4.5568,-4.5577,-4.5594,-4.5586,-4.5586,-4.5586,-4.5594,-4.5594,-4.5594,-4.5594,-4.5594,-4.5594,-4.6052,-4.6771,-4.767,-4.8387,-4.9497,-5.0506,-5.0994,-5.1088,-5.1148,-5.0621,-4.9128,-4.6743,-4.449,-4.2986,-4.2109,-4.1663,-4.1304,-4.121,-4.1289,-4.1719,-4.1973,-4.25,-4.2773,-4.2832,-4.2497,-4.228,-4.1979,-4.1124,-4.0515,-4.0487,-4.0788,-4.0393,-4.0188,-3.9943,-3.9683,-3.9088,-3.8638,-3.7983,-3.7405,-3.7347,-3.6856,-3.6675,-3.6661,-3.625,-3.6115,-3.5837,-3.564,-3.5465,-3.5147,-3.4931,-3.4804,-3.4555,-3.4353,-3.4208,-3.4055,-3.3972,-3.39,-3.3807,-3.3807,-3.394,-3.4037,-3.3986,-3.3767,-3.3432,-3.2829,-3.2284,-3.1925,-3.1627,-3.1489,-3.1259,-3.1159,-3.1024,-3.0615,-3.0514,-3.048,-3.0176,-2.9408,-2.8979,-2.8823,-2.8503,-2.8177,-2.8161,-2.821,-2.7919,-2.769,-2.77,-2.77,-4.7571,-4.733,-4.6531,-4.5844,-4.5231,-4.4376,-4.4023,-4.4005,-4.402,-4.4124,-4.4294,-4.4402,-4.4688,-4.5019,-4.5115,-4.5191,-4.5362,-4.5381,-4.5448,-4.5485,-4.5523,-4.5541,-4.5577,-4.5594,-4.5594,-4.5594,-4.5594,-4.5594,-4.5864,-4.6518,-4.7393,-4.8105,-4.9161,-5.0051,-5.0692,-5.0881,-5.0792,-4.9632,-4.7731,-4.5469,-4.3393,-4.2312,-4.1649,-4.1246,-4.1074,-4.1206,-4.1542,-4.1992,-4.2363,-4.3281,-4.3691,-4.3652,-4.2988,-4.2519,-4.1797,-4.0848,-3.9963,-3.9681,-3.9853,-3.9669,-3.9381,-3.9028,-3.8506,-3.7987,-3.7806,-3.7069,-3.6517,-3.6517,-3.61,-3.5694,-3.5494,-3.5545,-3.5596,-3.5615,-3.5505,-3.5479,-3.5417,-3.5195,-3.4969,-3.4746,-3.4551,-3.436,-3.4218,-3.4111,-3.3998,-3.386,-3.3807,-3.3807,-3.3812,-3.3798,-3.3628,-3.3364,-3.2969,-3.247,-3.2214,-3.1842,-3.1587,-3.1151,-3.1055,-3.0656,-3.0078,-2.9805,-2.9702,-2.9296,-2.884,-2.8805,-2.8701,-2.8269,-2.7872,-2.7798,-2.7758,-2.7841,-2.7794,-2.7795,-2.7765,-4.7256,-4.6513,-4.5714,-4.5342,-4.5175,-4.4376,-4.4005,-4.4005,-4.4005,-4.402,-4.4091,-4.4275,-4.4519,-4.4763,-4.4843,-4.4849,-4.4872,-4.4868,-4.5041,-4.518,-4.5262,-4.5371,-4.5495,-4.5568,-4.5594,-4.5594,-4.5594,-4.5594,-4.5806,-4.6471,-4.7298,-4.8134,-4.9007,-4.9933,-5.046,-5.055,-4.9517,-4.8103,-4.6056,-4.4292,-4.2578,-4.1565,-4.1007,-4.1045,-4.1057,-4.1379,-4.2223,-4.2438,-4.3125,-4.4375,-4.4766,-4.418,-4.3301,-4.2715,-4.1738,-4.0176,-3.9141,-3.8848,-3.8789,-3.8716,-3.8507,-3.8189,-3.7677,-3.7051,-3.6961,-3.6276,-3.5842,-3.5827,-3.5643,-3.5579,-3.5515,-3.5489,-3.5488,-3.55,-3.5474,-3.5439,-3.5448,-3.5473,-3.5217,-3.4973,-3.4793,-3.4672,-3.4423,-3.4325,-3.408,-3.3939,-3.3834,-3.3834,-3.3734,-3.3694,-3.3541,-3.3313,-3.3008,-3.27,-3.2602,-3.2177,-3.1478,-3.0862,-3.0542,-2.9972,-2.9304,-2.9115,-2.8994,-2.8569,-2.8197,-2.8378,-2.8402,-2.7751,-2.7311,-2.7286,-2.7361,-2.7682,-2.7832,-2.785,-2.7765,-4.6289,-4.5529,-4.4763,-4.4459,-4.4488,-4.4135,-4.4005,-4.4005,-4.4005,-4.4005,-4.4005,-4.4121,-4.4308,-4.4493,-4.4559,-4.465,-4.4776,-4.48,-4.4861,-4.4966,-4.5107,-4.5243,-4.539,-4.5504,-4.5594,-4.5594,-4.5594,-4.5594,-4.5691,-4.6547,-4.7317,-4.8144,-4.9029,-4.9855,-5.0312,-4.9818,-4.8396,-4.6919,-4.4957,-4.3162,-4.2131,-4.1193,-4.0756,-4.0825,-4.0887,-4.1398,-4.2229,-4.2863,-4.3817,-4.4762,-4.5428,-4.4531,-4.3223,-4.2578,-4.1191,-3.9336,-3.8301,-3.7871,-3.7793,-3.7676,-3.7442,-3.6818,-3.6463,-3.6266,-3.6275,-3.5849,-3.5697,-3.5643,-3.559,-3.5553,-3.5509,-3.5489,-3.55,-3.55,-3.5467,-3.5432,-3.5429,-3.5469,-3.5423,-3.5143,-3.5131,-3.5096,-3.4829,-3.4553,-3.4262,-3.4011,-3.3921,-3.3829,-3.3762,-3.3694,-3.3578,-3.3371,-3.3087,-3.2824,-3.2713,-3.2026,-3.1254,-3.0629,-3.0039,-2.9332,-2.868,-2.8439,-2.8268,-2.7843,-2.7503,-2.75,-2.7323,-2.6949,-2.6857,-2.7116,-2.7453,-2.7814,-2.7876,-2.7879,-2.7781,-4.5503,-4.493,-4.4184,-4.3897,-4.3958,-4.3989,-4.4005,-4.4005,-4.4005,-4.4005,-4.4005,-4.402,-4.4094,-4.425,-4.4275,-4.4346,-4.4465,-4.4506,-4.4617,-4.472,-4.4837,-4.5052,-4.5211,-4.5381,-4.5495,-4.5568,-4.5594,-4.5594,-4.5652,-4.6721,-4.7528,-4.8298,-4.9221,-5.0154,-5.0076,-4.8819,-4.7331,-4.5855,-4.4106,-4.2411,-4.1432,-4.0947,-4.0687,-4.0711,-4.0761,-4.1531,-4.2425,-4.3234,-4.4107,-4.4994,-4.534,-4.4487,-4.3123,-4.1699,-4.041,-3.8789,-3.748,-3.6973,-3.6914,-3.6793,-3.6539,-3.614,-3.5992,-3.5864,-3.5758,-3.5722,-3.5709,-3.5654,-3.559,-3.5558,-3.5534,-3.5515,-3.5494,-3.5494,-3.5481,-3.546,-3.546,-3.5477,-3.5422,-3.5316,-3.5334,-3.5324,-3.504,-3.4711,-3.4356,-3.4099,-3.3934,-3.3868,-3.3829,-3.3788,-3.3766,-3.352,-3.3227,-3.2987,-3.2739,-3.1821,-3.0904,-3.0055,-2.9444,-2.8732,-2.8168,-2.793,-2.7692,-2.7369,-2.7013,-2.664,-2.6587,-2.6699,-2.69,-2.7138,-2.7466,-2.7765,-2.7891,-2.7865,-2.782,-4.5006,-4.4894,-4.4136,-4.3835,-4.3897,-4.3974,-4.4005,-4.3974,-4.4008,-4.3989,-4.4005,-4.4005,-4.4005,-4.4048,-4.4079,-4.4124,-4.4121,-4.4121,-4.4192,-4.4402,-4.4533,-4.4745,-4.5,-4.5211,-4.5381,-4.555,-4.5594,-4.5594,-4.5633,-4.7124,-4.7913,-4.8471,-4.9452,-5.0279,-5.0366,-4.8125,-4.6086,-4.4393,-4.2717,-4.1505,-4.085,-4.0585,-4.0607,-4.0655,-4.0674,-4.1427,-4.2573,-4.3203,-4.4059,-4.5067,-4.5116,-4.4027,-4.2239,-4.0855,-3.9353,-3.7519,-3.6601,-3.6172,-3.6094,-3.6055,-3.6011,-3.5938,-3.5895,-3.5859,-3.5805,-3.5783,-3.5778,-3.5698,-3.5702,-3.5654,-3.5618,-3.556,-3.5515,-3.5482,-3.5494,-3.5488,-3.5488,-3.55,-3.5439,-3.5417,-3.5439,-3.541,-3.5151,-3.4851,-3.4469,-3.4179,-3.3985,-3.3895,-3.385,-3.3608,-3.3495,-3.3248,-3.2907,-3.2466,-3.2045,-3.1373,-3.056,-2.9679,-2.8913,-2.8246,-2.7733,-2.7465,-2.7196,-2.6926,-2.6809,-2.6674,-2.6657,-2.6708,-2.6846,-2.7005,-2.7337,-2.7633,-2.7743,-2.7804,-2.7735,-4.4484,-4.3986,-4.3761,-4.3684,-4.3716,-4.3862,-4.3897,-4.3883,-4.3913,-4.3942,-4.3989,-4.4005,-4.4005,-4.4005,-4.4005,-4.3989,-4.4005,-4.4005,-4.4109,-4.4151,-4.4289,-4.4452,-4.4726,-4.5,-4.5222,-4.5352,-4.5457,-4.5577,-4.5633,-4.726,-4.7962,-4.8471,-4.9,-4.9394,-4.8452,-4.6567,-4.4547,-4.3412,-4.1931,-4.0766,-4.0535,-4.0496,-4.0527,-4.0586,-4.0586,-4.1248,-4.2457,-4.2895,-4.367,-4.4456,-4.4312,-4.3341,-4.1347,-3.9798,-3.8717,-3.7048,-3.6035,-3.6035,-3.6016,-3.6016,-3.5996,-3.5957,-3.5957,-3.5918,-3.5885,-3.5878,-3.5834,-3.5774,-3.5785,-3.5745,-3.567,-3.5605,-3.5563,-3.5502,-3.5483,-3.5489,-3.5494,-3.5488,-3.5467,-3.5467,-3.5474,-3.5376,-3.5174,-3.5019,-3.4672,-3.4397,-3.4197,-3.3854,-3.3739,-3.3209,-3.2876,-3.2651,-3.2324,-3.1835,-3.1323,-3.0693,-3.017,-2.9436,-2.8655,-2.794,-2.7487,-2.7231,-2.7056,-2.6958,-2.6842,-2.6759,-2.6725,-2.6691,-2.6691,-2.6841,-2.7028,-2.7333,-2.7554,-2.7581,-2.7533,-4.3975,-4.3515,-4.3566,-4.3565,-4.3582,-4.3786,-4.3818,-4.382,-4.3851,-4.3915,-4.3961,-4.3976,-4.3974,-4.3989,-4.3974,-4.3971,-4.3989,-4.3974,-4.3989,-4.402,-4.4166,-4.4318,-4.4519,-4.4732,-4.4908,-4.5096,-4.5293,-4.5467,-4.5525,-4.7146,-4.8057,-4.8374,-4.8145,-4.7432,-4.6432,-4.5066,-4.3816,-4.2662,-4.1277,-4.0573,-4.0496,-4.0496,-4.0496,-4.0504,-4.0616,-4.1,-4.1798,-4.2414,-4.2912,-4.3278,-4.3122,-4.246,-4.0429,-3.9104,-3.8155,-3.6642,-3.5996,-3.5996,-3.6016,-3.6016,-3.5996,-3.5996,-3.6016,-3.5976,-3.595,-3.5948,-3.5893,-3.5851,-3.5853,-3.5788,-3.5733,-3.5682,-3.5626,-3.5588,-3.5538,-3.5546,-3.5509,-3.5495,-3.5488,-3.5488,-3.5474,-3.5361,-3.525,-3.5107,-3.4898,-3.466,-3.4397,-3.4012,-3.3589,-3.2978,-3.2333,-3.1984,-3.1604,-3.1089,-3.0574,-3.0044,-2.9544,-2.9134,-2.8538,-2.7922,-2.7627,-2.7446,-2.7214,-2.7007,-2.6942,-2.6842,-2.6742,-2.6691,-2.6691,-2.6569,-2.6436,-2.6816,-2.7275,-2.7328,-2.724,-4.3479,-4.3479,-4.3479,-4.3496,-4.3532,-4.3703,-4.3788,-4.3788,-4.3786,-4.3853,-4.3881,-4.3915,-4.3929,-4.3976,-4.3929,-4.3929,-4.3942,-4.3913,-4.3926,-4.3974,-4.4051,-4.4181,-4.4289,-4.4438,-4.4637,-4.4837,-4.503,-4.521,-4.5362,-4.6642,-4.7845,-4.8004,-4.6829,-4.5773,-4.4793,-4.3991,-4.3038,-4.1797,-4.1046,-4.0535,-4.0496,-4.0496,-4.0496,-4.0496,-4.0581,-4.0889,-4.1459,-4.189,-4.2305,-4.2459,-4.2267,-4.1039,-3.9806,-3.8742,-3.7401,-3.6426,-3.5983,-3.597,-3.5996,-3.5996,-3.5996,-3.5996,-3.6016,-3.5996,-3.5996,-3.5996,-3.5951,-3.5924,-3.5913,-3.5864,-3.5808,-3.5785,-3.5735,-3.5693,-3.5626,-3.5599,-3.5534,-3.5509,-3.5495,-3.5494,-3.5488,-3.5405,-3.5297,-3.5166,-3.5063,-3.4898,-3.4576,-3.3989,-3.3489,-3.2705,-3.2041,-3.1244,-3.084,-3.0301,-2.9813,-2.949,-2.929,-2.8993,-2.8763,-2.8259,-2.7986,-2.7642,-2.7353,-2.7151,-2.7056,-2.6942,-2.6825,-2.6742,-2.6708,-2.6519,-2.6322,-2.6414,-2.6892,-2.6914,-2.6903,-4.3479,-4.3479,-4.3479,-4.3479,-4.3496,-4.3566,-4.3651,-4.3788,-4.3719,-4.3736,-4.3818,-4.3837,-4.3851,-4.3851,-4.3835,-4.3835,-4.3853,-4.3869,-4.3883,-4.3915,-4.3929,-4.4002,-4.4136,-4.4275,-4.4443,-4.4572,-4.4751,-4.4927,-4.5117,-4.6174,-4.6604,-4.6582,-4.5668,-4.4459,-4.3464,-4.274,-4.1879,-4.1192,-4.0654,-4.0554,-4.0496,-4.0496,-4.0496,-4.0496,-4.0496,-4.0766,-4.0931,-4.1489,-4.1736,-4.1277,-4.1092,-4.014,-3.864,-3.7734,-3.6714,-3.5953,-3.578,-3.5819,-3.5907,-3.5917,-3.5946,-3.5975,-3.5996,-3.6016,-3.6016,-3.5996,-3.5976,-3.5976,-3.5957,-3.5919,-3.5885,-3.5871,-3.5824,-3.5778,-3.5733,-3.5681,-3.5621,-3.5535,-3.5532,-3.5482,-3.5494,-3.5467,-3.5361,-3.5273,-3.5176,-3.5063,-3.4756,-3.4167,-3.3425,-3.2634,-3.1806,-3.1001,-3.0209,-2.9701,-2.9457,-2.9153,-2.9068,-2.8918,-2.8731,-2.8538,-2.8174,-2.7826,-2.7504,-2.726,-2.712,-2.6991,-2.6893,-2.6826,-2.6742,-2.659,-2.6415,-2.6403,-2.6426,-2.6493,-2.6444,-4.3479,-4.3479,-4.3479,-4.3479,-4.3479,-4.3479,-4.3566,-4.3669,-4.36,-4.3617,-4.3719,-4.3719,-4.3736,-4.3804,-4.3753,-4.3736,-4.3804,-4.3753,-4.3751,-4.3851,-4.3867,-4.3913,-4.4036,-4.4121,-4.4177,-4.4318,-4.4465,-4.465,-4.4814,-4.513,-4.5596,-4.5388,-4.4604,-4.3363,-4.2293,-4.1523,-4.0999,-4.0619,-4.0441,-4.0481,-4.0496,-4.0496,-4.0496,-4.0496,-4.0496,-4.0496,-4.0535,-4.1162,-4.0931,-4.0477,-4.0323,-3.9449,-3.8029,-3.7079,-3.6332,-3.5682,-3.5693,-3.5743,-3.5821,-3.5871,-3.5908,-3.5944,-3.5973,-3.5996,-3.6016,-3.6016,-3.5996,-3.5996,-3.5996,-3.5976,-3.5953,-3.5947,-3.5907,-3.5856,-3.5833,-3.5788,-3.5702,-3.5601,-3.5557,-3.5509,-3.5501,-3.5488,-3.5439,-3.5354,-3.5316,-3.5277,-3.5013,-3.4513,-3.362,-3.2637,-3.1736,-3.0846,-2.9935,-2.918,-2.9021,-2.9021,-2.8975,-2.8952,-2.8905,-2.8663,-2.8334,-2.812,-2.7883,-2.7519,-2.7151,-2.7055,-2.6991,-2.6876,-2.6792,-2.6624,-2.6505,-2.6426,-2.6318,-2.617,-2.6056,-4.3427,-4.3479,-4.3479,-4.3479,-4.3479,-4.3479,-4.3515,-4.3479,-4.3496,-4.3531,-4.3582,-4.3582,-4.3651,-4.3703,-4.3634,-4.3651,-4.3686,-4.3634,-4.3667,-4.3769,-4.3769,-4.3818,-4.3883,-4.3897,-4.3989,-4.4079,-4.4196,-4.4336,-4.4378,-4.4479,-4.4366,-4.4195,-4.2944,-4.1923,-4.1324,-4.068,-4.0311,-4.0243,-4.0311,-4.043,-4.0489,-4.0496,-4.0496,-4.0496,-4.0496,-4.0496,-4.0496,-4.0535,-4.0496,-4.0246,-3.9611,-3.8784,-3.7486,-3.6537,-3.5822,-3.5634,-3.5636,-3.5655,-3.5717,-3.5785,-3.5838,-3.5873,-3.5919,-3.5948,-3.595,-3.5995,-3.6016,-3.6016,-3.5996,-3.5996,-3.5976,-3.5976,-3.5929,-3.5919,-3.591,-3.5864,-3.578,-3.5687,-3.5597,-3.5554,-3.5547,-3.5522,-3.5474,-3.5417,-3.541,-3.5417,-3.5273,-3.4829,-3.4069,-3.2977,-3.1892,-3.0909,-2.9901,-2.9192,-2.9138,-2.9115,-2.9033,-2.9005,-2.8982,-2.8834,-2.8495,-2.8378,-2.8313,-2.7869,-2.7428,-2.7213,-2.7119,-2.699,-2.6875,-2.6809,-2.6674,-2.647,-2.628,-2.6063,-2.5715,-4.2902,-4.3497,-4.3479,-4.3479,-4.3479,-4.3479,-4.3479,-4.3479,-4.3479,-4.3496,-4.3513,-4.3532,-4.3549,-4.3566,-4.3548,-4.3566,-4.3566,-4.3583,-4.3565,-4.3634,-4.3651,-4.3719,-4.382,-4.3818,-4.3835,-4.3851,-4.3929,-4.4002,-4.3986,-4.3655,-4.32,-4.3017,-4.1857,-4.0986,-4.0684,-4.0113,-3.9931,-3.9922,-4.0129,-4.0311,-4.0414,-4.0473,-4.0496,-4.0496,-4.0496,-4.0496,-4.0496,-4.0496,-4.0496,-4.0323,-3.9008,-3.768,-3.618,-3.5733,-3.5554,-3.5534,-3.5552,-3.5582,-3.5631,-3.5676,-3.5722,-3.5746,-3.5789,-3.5845,-3.5892,-3.5973,-3.6016,-3.6016,-3.6016,-3.6016,-3.6016,-3.5996,-3.5976,-3.5976,-3.5973,-3.5919,-3.5871,-3.5768,-3.5674,-3.5626,-3.5599,-3.5564,-3.5522,-3.5494,-3.5481,-3.5493,-3.5486,-3.5168,-3.4644,-3.3715,-3.2416,-3.1351,-3.0048,-2.9404,-2.9304,-2.9198,-2.9127,-2.9055,-2.9028,-2.8858,-2.8669,-2.8487,-2.8326,-2.8079,-2.7754,-2.7535,-2.7291,-2.7071,-2.6974,-2.6925,-2.6758,-2.6556,-2.6333,-2.6116,-2.5631,-4.2498,-4.2921,-4.316,-4.3124,-4.3014,-4.3339,-4.341,-4.3286,-4.341,-4.3479,-4.3479,-4.3479,-4.3479,-4.3479,-4.3479,-4.3479,-4.3479,-4.3479,-4.3532,-4.3548,-4.3565,-4.3599,-4.3667,-4.3719,-4.3771,-4.3788,-4.3786,-4.3798,-4.3666,-4.3106,-4.2631,-4.2035,-4.098,-4.0293,-4.0072,-3.972,-3.9641,-3.9683,-3.991,-4.0081,-4.0258,-4.0345,-4.0481,-4.0496,-4.0489,-4.0481,-4.0496,-4.0496,-4.0496,-4.0054,-3.8911,-3.7296,-3.6096,-3.5552,-3.5507,-3.5494,-3.5508,-3.5515,-3.5559,-3.5596,-3.5616,-3.5654,-3.569,-3.5755,-3.5797,-3.5864,-3.5973,-3.5976,-3.6016,-3.6016,-3.6016,-3.5996,-3.5996,-3.5996,-3.5996,-3.5951,-3.5913,-3.5838,-3.5762,-3.5725,-3.5691,-3.5611,-3.5582,-3.5552,-3.554,-3.55,-3.55,-3.55,-3.4985,-3.433,-3.3065,-3.1855,-3.0612,-2.9702,-2.9418,-2.9316,-2.922,-2.9141,-2.9089,-2.8975,-2.8815,-2.8563,-2.8326,-2.8215,-2.8065,-2.7815,-2.7565,-2.7291,-2.7071,-2.6975,-2.6808,-2.6624,-2.6436,-2.6245,-2.5905,-4.2053,-4.2175,-4.2614,-4.2595,-4.2358,-4.2977,-4.316,-4.2995,-4.3268,-4.341,-4.3375,-4.3392,-4.3445,-4.3479,-4.3479,-4.3479,-4.3479,-4.3479,-4.3515,-4.3515,-4.3496,-4.3548,-4.3565,-4.3617,-4.3669,-4.3703,-4.3719,-4.357,-4.3437,-4.2678,-4.1846,-4.1123,-4.0396,-3.9696,-3.9263,-3.9251,-3.9427,-3.9458,-3.9597,-3.9709,-3.9924,-4.0157,-4.0283,-4.037,-4.0394,-4.0414,-4.0406,-4.0406,-4.0397,-3.9838,-3.8869,-3.7238,-3.6077,-3.55,-3.55,-3.55,-3.55,-3.5507,-3.5521,-3.5559,-3.5581,-3.5599,-3.5639,-3.5671,-3.5698,-3.5761,-3.5866,-3.5937,-3.5957,-3.6016,-3.6016,-3.6016,-3.6016,-3.6016,-3.5996,-3.5976,-3.5937,-3.5898,-3.5867,-3.5828,-3.5768,-3.5698,-3.5639,-3.5621,-3.5566,-3.5522,-3.5508,-3.5494,-3.5269,-3.4506,-3.351,-3.2424,-3.1294,-3.0509,-2.9774,-2.9504,-2.9398,-2.9275,-2.9228,-2.9115,-2.8998,-2.8761,-2.8626,-2.8589,-2.8409,-2.8124,-2.7811,-2.7532,-2.7322,-2.7071,-2.6892,-2.6742,-2.6674,-2.6487,-2.6315,-4.1328,-4.1687,-4.2154,-4.2259,-4.2218,-4.24,-4.2616,-4.2882,-4.2957,-4.3013,-4.3013,-4.3032,-4.3178,-4.3479,-4.3479,-4.3479,-4.3479,-4.3479,-4.3479,-4.3479,-4.3479,-4.3496,-4.3513,-4.3531,-4.3549,-4.3566,-4.3526,-4.3214,-4.2896,-4.2009,-4.1119,-4.0391,-3.9593,-3.9143,-3.9065,-3.9078,-3.9142,-3.9192,-3.9324,-3.9452,-3.9537,-3.9728,-3.9882,-3.9934,-3.9934,-3.9934,-3.9934,-3.9915,-4.0053,-3.9744,-3.8777,-3.7132,-3.6122,-3.55,-3.55,-3.55,-3.55,-3.55,-3.5515,-3.5534,-3.5547,-3.5541,-3.5574,-3.5582,-3.5611,-3.5635,-3.5719,-3.5805,-3.5859,-3.5976,-3.5996,-3.6016,-3.6016,-3.6016,-3.5996,-3.5996,-3.5976,-3.5957,-3.5946,-3.5908,-3.5867,-3.5789,-3.5712,-3.5671,-3.5644,-3.5611,-3.5566,-3.5562,-3.5464,-3.4713,-3.3988,-3.2987,-3.198,-3.1019,-3.0189,-2.9836,-2.9661,-2.9504,-2.9326,-2.9206,-2.9112,-2.901,-2.8917,-2.8803,-2.8669,-2.8404,-2.812,-2.7811,-2.7489,-2.723,-2.7007,-2.6876,-2.6809,-2.6725,-2.6539]},{"header":{"parameterUnit":"m.s-1","parameterCategory":1,"la1":31.0,"la2":29.5877,"lo1":-88.7671,"lo2":-86.6584,"dy":0.0162,"dx":0.0185,"nx":115,"ny":88,"refTime":"2023-05-01T00:00:00:Z","depth":0,"parameterNumber":3,"parameterNumberName":"V-component_of_WINDS"},"data":[0.0,0.0,0.0,0.0,0.0,0.0,0.0,0.0,0.0,0.0,0.0,0.0,0.0,0.0,0.0,0.0,0.0,0.0,0.0,0.0,0.0,0.0,0.0,0.0,0.0,0.0,0.0,0.0,0.0,0.0,0.0,0.0,0.0,0.0,0.0,0.0,0.0,0.0,0.0,0.0,0.0,0.0,0.0,0.0,0.0,0.0,0.0,0.0,0.0,0.0,0.0,0.0,0.0,0.0,0.0,0.0,0.0,0.0,0.0,0.0,0.0,0.0,0.0,0.0,0.0,0.0,0.0,0.0,0.0,0.0,0.0,0.0,0.0,0.0,0.0,0.0,0.0,0.0,0.0,0.0,0.0,0.0,0.0,0.0,0.0,0.0,0.0,0.0,0.0,0.0,0.0,0.0,0.0,0.0,0.0,0.0,0.0,0.0,0.0,0.0,0.0,0.0,0.0,0.0,0.0,0.0,0.0,0.0,0.0,0.0,0.0,0.0,0.0,0.0,0.0,0.0,0.0,0.0,0.0,0.0,0.0,0.0,0.0,0.0,0.0,0.0,0.0,0.0,0.0,0.0,0.0,0.0,0.0,0.0,0.0,0.0,0.0,0.0,0.0,0.0,0.0,0.0,0.0,0.0,0.0,0.0,0.0,0.0,0.0,0.0,0.0,0.0,0.0,0.0,0.0,0.0,0.0,0.0,0.0,0.0,0.0,0.0,0.0,0.0,0.0,0.0,0.0,0.0,0.0,0.0,0.0,0.0,0.0,0.0,0.0,0.0,0.0,0.0,0.0,0.0,0.0,0.0,0.0,0.0,0.0,0.0,0.0,0.0,0.0,0.0,0.0,0.0,0.0,0.0,0.0,0.0,0.0,0.0,0.0,0.0,0.0,0.0,0.0,0.0,0.0,0.0,0.0,0.0,0.0,0.0,0.0,0.0,0.0,0.0,0.0,0.0,0.0,0.0,0.0,0.0,0.0,0.0,0.0,0.0,0.0,0.0,0.0,0.0,0.0,0.0,0.0,0.0,0.0,0.0,0.0,0.0,0.0,0.0,0.0,0.0,0.0,0.0,0.0,0.0,0.0,0.0,0.0,0.0,0.0,0.0,0.0,0.0,0.0,0.0,0.0,0.0,0.0,0.0,0.0,0.0,0.0,0.0,0.0,0.0,0.0,0.0,0.0,0.0,0.0,0.0,0.0,0.0,0.0,0.0,0.0,0.0,0.0,0.0,0.0,0.0,0.0,0.0,0.0,0.0,0.0,0.0,0.0,0.0,0.0,0.0,0.0,0.0,0.0,0.0,0.0,0.0,0.0,0.0,0.0,0.0,0.0,0.0,0.0,0.0,0.0,0.0,0.0,0.0,0.0,0.0,0.0,0.0,0.0,0.0,0.0,0.0,0.0,0.0,0.0,0.0,0.0,0.0,0.0,0.0,0.0,0.0,0.0,0.0,0.0,0.0,0.0,0.0,0.0,0.0,0.0,0.0,0.0,0.0,0.0,0.0,0.0,0.0,0.0,0.0,0.0,0.0,0.0,0.0,0.0,0.0,0.0,0.0,0.0,0.0,0.0,0.0,0.0,0.0,0.0,0.0,0.0,0.0,0.0,0.0,0.0,0.0,0.0,0.0,0.0,0.0,0.0,0.0,0.0,0.0,0.0,0.0,0.0,0.0,0.0,0.0,0.0,0.0,0.0,0.0,0.0,0.0,0.0,0.0,0.0,0.0,0.0,0.0,0.0,0.0,0.0,0.0,0.0,0.0,0.0,0.0,0.0,0.0,0.0,0.0,0.0,0.0,0.0,0.0,0.0,0.0,0.0,0.0,0.0,0.0,0.0,0.0,0.0,0.0,0.0,0.0,0.0,0.0,0.0,0.0,0.0,0.0,0.0,0.0,0.0,0.0,0.0,0.0,0.0,0.0,0.0,0.0,0.0,0.0,0.0,0.0,0.0,0.0,0.0,0.0,0.0,0.0,0.0,0.0,0.0,0.0,0.0,0.0,0.0,0.0,0.0,0.0,0.0,0.0,0.0,0.0,0.0,0.0,0.0,0.0,0.0,0.0,0.0,0.0,0.0,0.0,0.0,0.0,0.0,0.0,0.0,0.0,0.0,0.0,0.0,0.0,0.0,0.0,0.0,0.0,0.0,0.0,0.0,0.0,0.0,0.0,0.0,0.0,0.0,0.0,0.0,0.0,0.0,0.0,0.0,0.0,0.0,0.0,0.0,0.0,0.0,0.0,0.0,0.0,0.0,0.0,0.0,0.0,0.0,0.0,0.0,0.0,0.0,0.0,0.0,0.0,0.0,0.0,0.0,0.0,0.0,0.0,0.0,0.0,0.0,0.0,0.0,0.0,0.0,0.0,0.0,0.0,0.0,0.0,0.0,0.0,0.0,0.0,0.0,0.0,0.0,0.0,0.0,0.0,0.0,0.0,0.0,0.0,0.0,0.0,0.0,0.0,0.0,0.0,0.0,0.0,0.0,0.0,0.0,0.0,0.0,0.0,0.0,0.0,0.0,0.0,0.0,0.0,0.0,0.0,0.0,0.0,0.0,0.0,0.0,0.0,0.0,0.0,0.0,0.0,0.0,0.0,0.0,0.0,0.0,0.0,0.0,0.0,0.0,0.0,0.0,0.0,0.0,0.0,0.0,0.0,0.0,0.0,0.0,0.0,0.0,0.0,0.0,0.0,0.0,0.0,0.0,0.0,0.0,0.0,0.0,0.0,0.0,0.0,0.0,0.0,0.0,0.0,0.0,0.0,0.0,0.0,0.0,0.0,0.0,0.0,0.0,0.0,0.0,0.0,0.0,0.0,0.0,0.0,0.0,0.0,0.0,0.0,0.0,0.0,0.0,0.0,0.0,0.0,0.0,0.0,0.0,0.0,0.0,0.0,0.0,0.0,0.0,0.0,0.0,0.0,0.0,0.0,0.0,0.0,0.0,0.0,0.0,0.0,0.0,0.0,0.0,0.0,0.0,0.0,0.0,0.0,0.0,0.0,0.0,0.0,0.0,0.0,0.0,0.0,0.0,0.0,0.0,0.0,0.0,0.0,0.0,0.0,0.0,0.0,0.0,0.0,0.0,0.0,0.0,0.0,0.0,0.0,0.0,0.0,0.0,0.0,0.0,0.0,0.0,0.0,0.0,0.0,0.0,0.0,0.0,0.0,0.0,0.0,0.0,0.0,0.0,0.0,0.0,0.0,0.0,0.0,0.0,0.0,0.0,0.0,0.0,0.0,0.0,0.0,0.0,0.0,0.0,0.0,0.0,0.0,0.0,0.0,0.0,0.0,0.0,0.0,0.0,0.0,0.0,0.0,0.0,0.0,0.0,0.0,0.0,0.0,0.0,0.0,0.0,0.0,0.0,0.0,0.0,0.0,0.0,0.0,0.0,0.0,0.0,0.0,0.0,0.0,0.0,0.0,0.0,0.0,0.0,0.0,0.0,0.0,0.0,0.0,0.0,0.0,0.0,0.0,0.0,0.0,0.0,0.0,0.0,0.0,0.0,0.0,0.0,0.0,0.0,0.0,0.0,0.0,0.0,0.0,0.0,0.0,0.0,0.0,0.0,0.0,0.0,0.0,0.0,0.0,0.0,0.0,0.0,0.0,0.0,0.0,0.0,0.0,0.0,0.0,0.0,0.0,0.0,0.0,0.0,0.0,0.0,0.0,0.0,0.0,0.0,0.0,0.0,0.0,0.0,0.0,0.0,0.0,0.0,0.0,0.0,0.0,0.0,0.0,0.0,0.0,0.0,0.0,0.0,0.0,0.0,0.0,0.0,0.0,0.0,0.0,0.0,0.0,0.0,0.0,0.0,0.0,0.0,0.0,0.0,0.0,0.0,0.0,0.0,0.0,0.0,0.0,0.0,0.0,0.0,0.0,0.0,0.0,0.0,0.0,0.0,0.0,0.0,0.0,0.0,0.0,0.0,0.0,0.0,0.0,0.0,0.0,0.0,0.0,0.0,0.0,0.0,0.0,0.0,0.0,0.0,0.0,0.0,0.0,0.0,0.0,0.0,0.0,0.0,0.0,0.0,0.0,0.0,0.0,0.0,0.0,0.0,0.0,0.0,0.0,0.0,0.0,0.0,0.0,0.0,0.0,0.0,0.0,0.0,0.0,0.0,0.0,0.0,0.0,0.0,0.0,0.0,0.0,0.0,0.0,0.0,0.0,0.0,0.0,0.0,0.0,0.0,0.0,0.0,0.0,0.0,0.0,0.0,0.0,0.0,0.0,0.0,0.0,0.0,0.0,0.0,0.0,0.0,0.0,-0.6668,0.0,0.0,0.0,0.0,0.0,0.0,0.0,0.0,0.0,0.0,0.0,0.0,0.0,0.0,0.0,0.0,0.0,0.0,0.0,0.0,0.0,0.0,0.0,0.0,0.0,0.0,0.0,0.0,0.0,0.0,0.0,0.0,0.0,0.0,0.0,0.0,0.0,0.0,0.0,0.0,0.0,0.0,0.0,0.0,0.0,0.0,0.0,0.0,0.0,0.0,0.0,0.0,0.0,0.0,0.0,0.0,0.0,0.0,0.0,0.0,0.0,0.0,0.0,0.0,0.0,0.0,0.0,0.0,0.0,0.0,0.0,0.0,0.0,0.0,0.0,0.0,0.0,0.0,0.0,0.0,0.0,0.0,0.0,0.0,0.0,0.0,0.0,0.0,0.0,0.0,0.0,0.0,0.0,0.0,0.0,0.0,0.0,0.0,0.0,0.0,0.0,0.0,0.0,0.0,0.0,0.0,0.0,0.0,0.0,0.0,-0.6399,-0.6399,-0.6467,-0.6498,-0.6617,0.0,0.0,0.0,0.0,0.0,0.0,0.0,0.0,0.0,0.0,0.0,0.0,0.0,0.0,0.0,0.0,0.0,0.0,0.0,0.0,0.0,0.0,0.0,0.0,0.0,0.0,0.0,0.0,0.0,0.0,0.0,0.0,0.0,0.0,0.0,0.0,0.0,0.0,0.0,0.0,0.0,0.0,0.0,0.0,0.0,0.0,0.0,0.0,0.0,0.0,0.0,0.0,0.0,0.0,0.0,0.0,0.0,0.0,0.0,0.0,0.0,0.0,0.0,0.0,0.0,0.0,0.0,0.0,0.0,0.0,0.0,0.0,0.0,0.0,0.0,0.0,0.0,0.0,0.0,0.0,0.0,0.0,0.0,0.0,0.0,0.0,0.0,0.0,0.0,0.0,0.0,0.0,0.0,0.0,0.0,0.0,0.0,0.0,0.0,0.0,0.0,0.0,0.0,0.0,0.0,0.0,0.0,0.0,0.0,0.0,0.0,0.0,-0.6399,-0.6453,-0.6566,0.0,0.0,0.0,0.0,0.0,0.0,0.0,0.0,0.0,0.0,0.0,0.0,0.0,0.0,0.0,0.0,0.0,0.0,0.0,0.0,0.0,0.0,0.0,0.0,0.0,0.0,0.0,0.0,0.0,0.0,0.0,0.0,0.0,0.0,0.0,0.0,0.0,0.0,0.0,0.0,0.0,0.0,0.0,0.0,0.0,0.0,0.0,0.0,0.0,0.0,0.0,0.0,0.0,0.0,0.0,0.0,0.0,0.0,0.0,0.0,0.0,0.0,0.0,0.0,0.0,0.0,0.0,0.0,0.0,0.0,0.0,0.0,0.0,0.0,0.0,0.0,0.0,0.0,0.0,0.0,0.0,0.0,0.0,0.0,0.0,0.0,0.0,0.0,0.0,0.0,0.0,0.0,0.0,0.0,0.0,0.0,0.0,0.0,0.0,0.0,0.0,0.0,0.0,0.0,0.0,0.0,0.0,0.0,0.0,0.0,-0.6522,-0.6658,-0.6654,0.0,-0.6723,0.0,0.0,0.0,0.0,0.0,0.0,0.0,0.0,0.0,0.0,0.0,0.0,0.0,0.0,0.0,0.0,0.0,0.0,0.0,0.0,0.0,0.0,0.0,0.0,0.0,0.0,0.0,0.0,0.0,0.0,0.0,0.0,0.0,0.0,0.0,0.0,0.0,0.0,0.0,0.0,0.0,0.0,0.0,0.0,0.0,0.0,0.0,0.0,0.0,0.0,0.0,0.0,0.0,0.0,0.0,0.0,0.0,0.0,0.0,0.0,0.0,0.0,0.0,0.0,0.0,0.0,0.0,0.0,0.0,0.0,0.0,0.0,0.0,0.0,0.0,0.0,0.0,0.0,0.0,0.0,0.0,0.0,0.0,0.0,0.0,0.0,0.0,0.0,0.0,0.0,0.0,0.0,0.0,0.0,0.0,0.0,0.0,0.0,0.0,0.0,0.0,0.0,0.0,0.0,0.0,0.0,0.0,0.0,0.0,0.0,-0.6416,-0.6477,-0.6441,-0.6672,0.0,0.0,0.0,0.0,0.0,0.0,0.0,0.0,0.0,0.0,0.0,0.0,0.0,0.0,0.0,0.0,0.0,0.0,0.0,0.0,0.0,0.0,0.0,0.0,0.0,0.0,0.0,0.0,0.0,0.0,0.0,0.0,0.0,0.0,0.0,0.0,0.0,0.0,0.0,0.0,0.0,0.0,0.0,0.0,0.0,0.0,0.0,0.0,0.0,0.0,0.0,0.0,0.0,0.0,0.0,0.0,0.0,0.0,0.0,0.0,0.0,0.0,0.0,0.0,0.0,0.0,0.0,0.0,0.0,0.0,0.0,0.0,0.0,0.0,0.0,0.0,0.0,0.0,0.0,0.0,0.0,0.0,0.0,0.0,0.0,0.0,0.0,0.0,0.0,0.0,0.0,0.0,0.0,0.0,0.0,0.0,0.0,0.0,0.0,0.0,0.0,0.0,0.0,0.0,0.0,0.0,0.0,0.0,0.0,0.0,-0.634,-0.63,-0.63,-0.63,-0.6683,-0.7488,0.0,0.0,0.0,0.0,0.0,0.0,0.0,0.0,0.0,0.0,0.0,0.0,0.0,0.0,0.0,0.0,0.0,0.0,0.0,0.0,0.0,0.0,0.0,0.0,0.0,0.0,0.0,0.0,0.0,0.0,0.0,0.0,0.0,0.0,0.0,0.0,0.0,0.0,0.0,0.0,0.0,0.0,0.0,0.0,0.0,0.0,0.0,0.0,0.0,0.0,0.0,0.0,0.0,0.0,0.0,0.0,0.0,0.0,0.0,0.0,0.0,0.0,0.0,0.0,0.0,0.0,0.0,0.0,0.0,0.0,0.0,0.0,0.0,0.0,0.0,0.0,0.0,0.0,0.0,0.0,0.0,0.0,0.0,0.0,0.0,0.0,0.0,0.0,0.0,0.0,0.0,0.0,0.0,0.0,0.0,0.0,0.0,0.0,0.0,0.0,0.0,0.0,0.0,0.0,0.0,0.0,0.0,0.0,-0.6658,-0.6443,-0.63,-0.63,-0.63,-0.6683,0.0,0.0,0.0,0.0,0.0,0.0,0.0,0.0,0.0,0.0,0.0,0.0,0.0,0.0,0.0,0.0,0.0,0.0,0.0,0.0,0.0,0.0,0.0,0.0,0.0,0.0,0.0,0.0,0.0,0.0,0.0,0.0,0.0,0.0,0.0,0.0,0.0,0.0,0.0,0.0,0.0,0.0,0.0,0.0,0.0,0.0,0.0,0.0,0.0,0.0,0.0,0.0,0.0,0.0,0.0,0.0,0.0,0.0,0.0,0.0,0.0,0.0,0.0,0.0,0.0,0.0,0.0,0.0,0.0,0.0,0.0,0.0,0.0,0.0,0.0,0.0,0.0,0.0,0.0,0.0,0.0,0.0,0.0,0.0,0.0,0.0,0.0,0.0,0.0,0.0,0.0,0.0,0.0,0.0,0.0,0.0,0.0,0.0,0.0,0.0,0.0,0.0,0.0,0.0,0.0,0.0,0.0,0.0,0.0,-0.645,-0.6354,-0.63,-0.63,-0.6795,-0.7446,0.0,0.0,0.0,0.0,0.0,0.0,0.0,0.0,0.0,0.0,0.0,0.0,0.0,0.0,0.0,0.0,0.0,0.0,0.0,0.0,0.0,0.0,0.0,0.0,0.0,0.0,0.0,0.0,0.0,0.0,0.0,0.0,0.0,0.0,0.0,0.0,0.0,0.0,0.0,0.0,0.0,0.0,0.0,0.0,0.0,0.0,0.0,0.0,0.0,0.0,0.0,0.0,0.0,0.0,0.0,0.0,0.0,0.0,0.0,0.0,0.0,0.0,0.0,0.0,0.0,0.0,0.0,0.0,0.0,0.0,0.0,0.0,0.0,0.0,0.0,0.0,0.0,0.0,0.0,0.0,0.0,0.0,0.0,0.0,0.0,0.0,0.0,0.0,0.0,0.0,0.0,0.0,0.0,0.0,0.0,0.0,0.0,0.0,0.0,0.0,0.0,0.0,0.0,0.0,0.0,0.0,0.0,0.0,0.0,-0.6721,0.0,-0.7061,-0.7103,-0.7599,-0.828,0.0,0.0,0.0,0.0,0.0,0.0,0.0,0.0,0.0,0.0,0.0,0.0,0.0,0.0,0.0,0.0,0.0,0.0,0.0,0.0,0.0,0.0,0.0,0.0,0.0,0.0,0.0,0.0,0.0,0.0,0.0,0.0,0.0,0.0,0.0,0.0,0.0,0.0,0.0,0.0,0.0,0.0,0.0,0.0,0.0,0.0,0.0,0.0,0.0,0.0,0.0,0.0,0.0,0.0,0.0,0.0,0.0,0.0,0.0,0.0,0.0,0.0,0.0,0.0,0.0,0.0,0.0,0.0,0.0,0.0,0.0,0.0,0.0,0.0,0.0,0.0,0.0,0.0,0.0,0.0,0.0,0.0,0.0,0.0,0.0,0.0,0.0,0.0,0.0,0.0,0.0,0.0,0.0,0.0,0.0,0.0,0.0,0.0,0.0,0.0,0.0,0.0,0.0,0.0,0.0,0.0,0.0,0.0,-0.676,-0.7484,-0.8246,-0.8589,-0.8665,-0.8703,-0.9084,0.0,0.0,0.0,0.0,0.0,0.0,0.0,0.0,0.0,0.0,0.0,0.0,0.0,0.0,0.0,0.0,0.0,0.0,0.0,0.0,0.0,0.0,0.0,0.0,0.0,0.0,0.0,0.0,0.0,0.0,0.0,0.0,0.0,0.0,0.0,0.0,0.0,0.0,0.0,0.0,0.0,0.0,0.0,0.0,0.0,0.0,0.0,0.0,0.0,0.0,0.0,0.0,0.0,0.0,0.0,0.0,0.0,0.0,0.0,0.0,0.0,0.0,0.0,0.0,0.0,0.0,0.0,0.0,0.0,0.0,0.0,0.0,0.0,0.0,0.0,0.0,0.0,0.0,0.0,0.0,0.0,0.0,0.0,0.0,0.0,0.0,0.0,0.0,0.0,0.0,0.0,0.0,0.0,0.0,0.0,0.0,0.0,0.0,0.0,0.0,0.0,0.0,0.0,0.0,0.0,0.0,0.0,0.0,0.0,-0.8322,-0.8585,-0.8703,-0.8699,-0.9236,-0.9657,0.0,0.0,0.0,0.0,0.0,0.0,0.0,0.0,0.0,0.0,0.0,0.0,0.0,0.0,0.0,0.0,0.0,0.0,0.0,0.0,0.0,0.0,0.0,0.0,0.0,0.0,0.0,0.0,0.0,0.0,0.0,0.0,0.0,0.0,0.0,0.0,0.0,0.0,0.0,0.0,0.0,0.0,0.0,0.0,0.0,0.0,0.0,0.0,0.0,0.0,0.0,0.0,0.0,0.0,0.0,0.0,0.0,0.0,0.0,0.0,0.0,0.0,0.0,0.0,0.0,0.0,0.0,0.0,0.0,0.0,0.0,0.0,0.0,0.0,0.0,0.0,0.0,0.0,0.0,0.0,0.0,0.0,0.0,0.0,0.0,0.0,0.0,0.0,0.0,0.0,0.0,0.0,0.0,0.0,0.0,0.0,0.0,0.0,0.0,0.0,0.0,0.0,0.0,0.0,0.0,0.0,0.0,0.0,0.0,-0.9604,-0.9609,-0.9604,-0.9609,-1.0062,-1.0331,-1.0363,0.0,0.0,0.0,0.0,0.0,0.0,0.0,0.0,0.0,0.0,0.0,0.0,0.0,0.0,0.0,0.0,0.0,0.0,0.0,0.0,0.0,0.0,0.0,0.0,0.0,0.0,0.0,0.0,0.0,0.0,0.0,0.0,0.0,0.0,0.0,0.0,0.0,0.0,0.0,0.0,0.0,0.0,0.0,0.0,0.0,0.0,0.0,0.0,0.0,0.0,0.0,0.0,0.0,0.0,0.0,0.0,0.0,0.0,0.0,0.0,0.0,0.0,0.0,0.0,0.0,0.0,0.0,0.0,0.0,0.0,0.0,0.0,0.0,0.0,0.0,0.0,0.0,0.0,0.0,0.0,0.0,0.0,0.0,0.0,0.0,0.0,0.0,0.0,0.0,0.0,0.0,0.0,0.0,0.0,0.0,0.0,0.0,0.0,0.0,0.0,0.0,0.0,0.0,0.0,0.0,0.0,0.0,0.0,-1.1074,-1.1117,-1.1074,-1.1074,-1.1074,-1.1117,0.0,0.0,0.0,0.0,0.0,0.0,0.0,0.0,0.0,0.0,0.0,0.0,0.0,0.0,0.0,0.0,0.0,0.0,0.0,0.0,0.0,0.0,0.0,0.0,0.0,0.0,0.0,0.0,0.0,0.0,0.0,0.0,0.0,0.0,0.0,0.0,0.0,0.0,0.0,0.0,0.0,0.0,0.0,0.0,0.0,0.0,0.0,0.0,0.0,0.0,0.0,0.0,0.0,0.0,0.0,0.0,0.0,0.0,0.0,0.0,0.0,0.0,0.0,0.0,0.0,0.0,0.0,0.0,0.0,0.0,0.0,0.0,0.0,0.0,0.0,0.0,0.0,0.0,0.0,0.0,0.0,0.0,0.0,0.0,0.0,0.0,0.0,0.0,0.0,0.0,0.0,0.0,0.0,0.0,0.0,0.0,0.0,0.0,0.0,0.0,0.0,0.0,0.0,0.0,0.0,0.0,0.0,0.0,0.0,-1.1111,-1.1117,-1.1117,-1.1117,-1.1117,-1.1117,0.0,0.0,0.0,0.0,0.0,0.0,0.0,0.0,0.0,0.0,0.0,0.0,0.0,0.0,0.0,0.0,0.0,0.0,0.0,0.0,0.0,0.0,0.0,0.0,0.0,0.0,0.0,0.0,0.0,0.0,0.0,0.0,0.0,0.0,0.0,0.0,0.0,0.0,0.0,0.0,0.0,0.0,0.0,0.0,0.0,0.0,0.0,0.0,0.0,0.0,0.0,0.0,0.0,0.0,0.0,0.0,0.0,0.0,0.0,0.0,0.0,0.0,0.0,0.0,0.0,0.0,0.0,0.0,0.0,0.0,0.0,0.0,0.0,0.0,0.0,0.0,0.0,0.0,0.0,0.0,0.0,0.0,0.0,0.0,0.0,0.0,0.0,0.0,0.0,0.0,0.0,0.0,0.0,0.0,0.0,0.0,0.0,0.0,0.0,0.0,0.0,0.0,0.0,0.0,0.0,0.0,0.0,0.0,-1.1134,-1.1286,-1.1172,-1.1166,-1.1248,-1.1172,-1.1117,0.0,0.0,0.0,0.0,0.0,0.0,0.0,0.0,0.0,0.0,0.0,0.0,0.0,0.0,0.0,0.0,0.0,0.0,0.0,0.0,0.0,0.0,0.0,0.0,0.0,0.0,0.0,0.0,0.0,0.0,0.0,0.0,0.0,0.0,0.0,0.0,0.0,0.0,0.0,0.0,0.0,0.0,0.0,0.0,0.0,0.0,0.0,0.0,0.0,0.0,0.0,0.0,0.0,0.0,0.0,0.0,0.0,0.0,0.0,0.0,0.0,0.0,0.0,0.0,0.0,0.0,0.0,0.0,0.0,0.0,0.0,0.0,0.0,0.0,0.0,0.0,0.0,0.0,0.0,0.0,0.0,0.0,0.0,0.0,0.0,0.0,0.0,0.0,0.0,0.0,0.0,0.0,0.0,0.0,0.0,0.0,0.0,0.0,0.0,0.0,0.0,0.0,0.0,0.0,0.0,0.0,0.0,0.0,-1.1236,-1.1483,-1.131,-1.126,-1.1477,-1.1218,-1.1117,0.0,0.0,0.0,0.0,0.0,0.0,0.0,0.0,0.0,0.0,0.0,0.0,0.0,0.0,0.0,0.0,0.0,0.0,0.0,0.0,0.0,0.0,0.0,0.0,0.0,0.0,0.0,0.0,0.0,0.0,0.0,0.0,0.0,0.0,0.0,0.0,0.0,0.0,0.0,0.0,0.0,0.0,0.0,0.0,0.0,0.0,0.0,0.0,0.0,0.0,0.0,0.0,0.0,0.0,0.0,0.0,0.0,0.0,0.0,0.0,0.0,0.0,0.0,0.0,0.0,0.0,0.0,0.0,0.0,0.0,0.0,0.0,0.0,0.0,0.0,0.0,0.0,0.0,0.0,0.0,0.0,0.0,0.0,0.0,0.0,0.0,0.0,0.0,0.0,0.0,0.0,0.0,0.0,0.0,0.0,0.0,0.0,0.0,0.0,0.0,0.0,0.0,0.0,0.0,0.0,0.0,0.0,0.0,-1.1435,-1.1495,-1.1633,-1.1679,-1.1495,-1.1256,-1.1117,0.0,0.0,0.0,0.0,0.0,0.0,0.0,0.0,0.0,0.0,0.0,0.0,0.0,0.0,0.0,0.0,0.0,0.0,0.0,0.0,0.0,0.0,0.0,0.0,0.0,0.0,0.0,0.0,0.0,0.0,0.0,0.0,0.0,0.0,0.0,0.0,0.0,0.0,0.0,0.0,0.0,0.0,0.0,0.0,0.0,0.0,0.0,0.0,-1.6368,0.0,0.0,0.0,0.0,0.0,0.0,0.0,0.0,0.0,0.0,0.0,0.0,0.0,0.0,0.0,0.0,0.0,0.0,0.0,0.0,0.0,0.0,0.0,0.0,0.0,0.0,0.0,0.0,0.0,0.0,0.0,0.0,0.0,0.0,0.0,0.0,0.0,0.0,0.0,0.0,0.0,0.0,0.0,0.0,0.0,0.0,0.0,0.0,0.0,0.0,0.0,0.0,0.0,0.0,0.0,0.0,0.0,0.0,0.0,-1.1555,-1.1676,-1.1814,-1.182,-1.1709,-1.1449,-1.1206,0.0,0.0,0.0,0.0,0.0,0.0,0.0,0.0,0.0,0.0,0.0,0.0,0.0,0.0,0.0,0.0,0.0,0.0,0.0,0.0,0.0,0.0,0.0,0.0,0.0,0.0,0.0,0.0,0.0,0.0,0.0,0.0,0.0,0.0,0.0,0.0,0.0,0.0,0.0,0.0,0.0,0.0,0.0,0.0,0.0,0.0,0.0,0.0,0.0,0.0,0.0,0.0,0.0,0.0,0.0,0.0,0.0,0.0,0.0,0.0,0.0,0.0,0.0,0.0,0.0,0.0,0.0,0.0,0.0,0.0,0.0,0.0,0.0,0.0,0.0,0.0,0.0,0.0,0.0,0.0,0.0,0.0,0.0,0.0,0.0,0.0,0.0,0.0,0.0,0.0,0.0,0.0,0.0,0.0,0.0,0.0,0.0,0.0,0.0,0.0,0.0,0.0,0.0,0.0,0.0,0.0,0.0,-1.1272,-1.1657,-1.1868,-1.1999,-1.1964,-1.192,-1.167,-1.1405,-1.1129,0.0,0.0,0.0,0.0,0.0,0.0,0.0,0.0,0.0,0.0,0.0,0.0,0.0,0.0,0.0,0.0,0.0,0.0,0.0,0.0,0.0,0.0,0.0,0.0,0.0,0.0,0.0,0.0,0.0,0.0,0.0,0.0,0.0,0.0,0.0,0.0,0.0,0.0,-1.5275,-1.5603,0.0,0.0,0.0,0.0,0.0,0.0,0.0,0.0,-1.7602,0.0,0.0,0.0,0.0,0.0,0.0,0.0,0.0,0.0,0.0,0.0,0.0,0.0,0.0,0.0,0.0,0.0,0.0,0.0,0.0,0.0,0.0,0.0,0.0,0.0,0.0,0.0,0.0,0.0,0.0,0.0,0.0,0.0,0.0,0.0,0.0,0.0,0.0,0.0,0.0,0.0,0.0,0.0,0.0,0.0,0.0,0.0,0.0,0.0,0.0,0.0,0.0,0.0,0.0,0.0,0.0,-0.9122,-1.0897,-1.1838,-1.1886,-1.2355,-1.2367,-1.1944,-1.1878,-1.1585,-1.1148,0.0,0.0,0.0,0.0,0.0,0.0,0.0,0.0,0.0,0.0,0.0,0.0,0.0,0.0,0.0,0.0,0.0,0.0,0.0,0.0,0.0,0.0,0.0,0.0,0.0,0.0,0.0,0.0,0.0,0.0,0.0,0.0,0.0,0.0,0.0,0.0,0.0,0.0,0.0,-1.5815,-1.5973,0.0,0.0,0.0,0.0,0.0,0.0,0.0,0.0,-1.883,0.0,0.0,0.0,0.0,0.0,0.0,0.0,0.0,0.0,0.0,0.0,0.0,0.0,0.0,0.0,0.0,0.0,0.0,0.0,0.0,0.0,0.0,0.0,0.0,0.0,0.0,0.0,0.0,0.0,0.0,0.0,0.0,0.0,0.0,0.0,0.0,0.0,0.0,0.0,0.0,0.0,0.0,0.0,0.0,0.0,0.0,0.0,0.0,0.0,0.0,0.0,0.0,0.0,0.0,0.0,-0.9446,-1.1015,-1.1886,-1.1892,-1.23,-1.2318,-1.1938,-1.1754,-1.1489,0.0,0.0,0.0,0.0,0.0,0.0,0.0,0.0,0.0,0.0,0.0,0.0,0.0,0.0,0.0,0.0,0.0,0.0,0.0,0.0,0.0,0.0,0.0,0.0,0.0,0.0,0.0,0.0,0.0,0.0,0.0,0.0,0.0,0.0,0.0,0.0,0.0,0.0,0.0,0.0,-1.6647,-1.6691,-1.689,0.0,0.0,0.0,0.0,0.0,0.0,-1.9235,-1.9518,0.0,0.0,0.0,0.0,0.0,0.0,0.0,0.0,0.0,0.0,0.0,0.0,0.0,0.0,0.0,0.0,0.0,0.0,0.0,0.0,0.0,0.0,0.0,0.0,0.0,0.0,0.0,0.0,0.0,0.0,0.0,0.0,0.0,0.0,0.0,0.0,0.0,0.0,0.0,0.0,0.0,0.0,0.0,0.0,0.0,0.0,0.0,0.0,0.0,0.0,0.0,0.0,0.0,0.0,0.0,-0.97,-1.1087,-1.1826,-1.1886,-1.2125,-1.2097,-1.1886,-1.1627,-1.1363,0.0,0.0,0.0,0.0,0.0,0.0,0.0,0.0,0.0,0.0,0.0,0.0,0.0,0.0,0.0,0.0,0.0,0.0,0.0,0.0,0.0,0.0,0.0,0.0,0.0,0.0,0.0,0.0,0.0,0.0,0.0,0.0,0.0,0.0,0.0,0.0,0.0,0.0,0.0,0.0,0.0,-1.7417,-1.7407,-1.7407,0.0,0.0,0.0,0.0,-1.9527,-1.973,0.0,0.0,0.0,0.0,0.0,0.0,0.0,0.0,0.0,0.0,0.0,0.0,0.0,0.0,0.0,0.0,0.0,0.0,0.0,0.0,0.0,0.0,0.0,0.0,0.0,0.0,0.0,0.0,0.0,0.0,0.0,0.0,0.0,0.0,0.0,0.0,0.0,0.0,0.0,0.0,0.0,0.0,0.0,0.0,0.0,0.0,0.0,0.0,0.0,0.0,0.0,0.0,0.0,0.0,0.0,0.0,-0.8937,-1.06,-1.1651,-1.1874,-1.191,-1.1956,-1.188,-1.1627,-1.1357,0.0,0.0,0.0,0.0,0.0,0.0,0.0,0.0,0.0,0.0,0.0,0.0,0.0,0.0,0.0,0.0,0.0,0.0,0.0,0.0,0.0,0.0,0.0,0.0,0.0,0.0,0.0,0.0,0.0,0.0,0.0,0.0,0.0,0.0,0.0,0.0,0.0,0.0,0.0,0.0,0.0,-1.7588,-1.81,-1.7716,-1.7623,0.0,0.0,0.0,-1.9114,-1.9523,0.0,0.0,0.0,0.0,0.0,0.0,0.0,0.0,0.0,0.0,0.0,0.0,0.0,0.0,0.0,0.0,0.0,0.0,0.0,0.0,0.0,0.0,0.0,0.0,0.0,0.0,0.0,0.0,0.0,0.0,0.0,0.0,0.0,0.0,0.0,0.0,0.0,0.0,0.0,0.0,0.0,0.0,0.0,0.0,0.0,0.0,0.0,0.0,0.0,0.0,0.0,0.0,0.0,0.0,0.0,-0.9041,-0.8784,-1.0539,-1.1621,-1.1908,-1.1742,-1.1769,-1.192,-1.1471,-1.1238,0.0,0.0,0.0,0.0,0.0,0.0,0.0,0.0,0.0,0.0,0.0,0.0,0.0,0.0,0.0,0.0,0.0,0.0,0.0,0.0,0.0,0.0,0.0,0.0,0.0,0.0,0.0,0.0,0.0,0.0,0.0,0.0,0.0,0.0,0.0,0.0,0.0,0.0,0.0,0.0,0.0,0.0,-1.8573,-1.8472,0.0,0.0,0.0,-1.8933,-1.9427,0.0,0.0,0.0,0.0,0.0,0.0,0.0,0.0,0.0,0.0,0.0,0.0,0.0,0.0,0.0,0.0,0.0,0.0,0.0,0.0,0.0,0.0,0.0,0.0,0.0,0.0,0.0,0.0,0.0,0.0,0.0,0.0,0.0,0.0,0.0,0.0,0.0,0.0,0.0,0.0,0.0,0.0,0.0,0.0,0.0,0.0,0.0,0.0,0.0,0.0,0.0,0.0,0.0,0.0,0.0,0.0,0.0,-0.8813,-1.0374,-1.1449,-1.1958,-1.1763,-1.1721,-1.1908,-1.1423,0.0,0.0,0.0,0.0,0.0,0.0,0.0,0.0,0.0,0.0,0.0,0.0,0.0,0.0,0.0,0.0,0.0,0.0,0.0,0.0,0.0,0.0,0.0,0.0,0.0,0.0,0.0,-1.5128,0.0,0.0,0.0,0.0,0.0,0.0,0.0,0.0,0.0,0.0,0.0,0.0,0.0,0.0,-1.9008,-1.8774,-1.8931,-1.9031,0.0,0.0,-1.9222,-1.9564,-1.9627,-1.9737,0.0,0.0,0.0,0.0,0.0,0.0,0.0,0.0,0.0,0.0,0.0,0.0,0.0,0.0,0.0,0.0,0.0,0.0,0.0,0.0,0.0,0.0,0.0,0.0,0.0,0.0,0.0,0.0,0.0,0.0,0.0,0.0,0.0,0.0,0.0,0.0,0.0,0.0,0.0,0.0,0.0,0.0,0.0,0.0,0.0,0.0,0.0,0.0,0.0,0.0,0.0,0.0,0.0,0.0,0.0,-0.9056,-0.9943,-1.101,-1.2211,-1.2029,-1.1902,-1.192,-1.1648,-1.1377,0.0,0.0,0.0,0.0,0.0,0.0,0.0,0.0,0.0,0.0,0.0,0.0,0.0,0.0,0.0,0.0,0.0,0.0,0.0,0.0,0.0,0.0,0.0,0.0,0.0,0.0,0.0,0.0,0.0,0.0,0.0,0.0,0.0,0.0,0.0,0.0,0.0,0.0,0.0,0.0,0.0,-1.8975,-1.8583,-1.8852,-1.9042,0.0,0.0,-1.9119,-1.9139,-1.915,-1.9305,-1.9761,0.0,0.0,0.0,0.0,0.0,0.0,0.0,0.0,0.0,0.0,0.0,0.0,0.0,0.0,0.0,0.0,0.0,0.0,0.0,0.0,0.0,0.0,0.0,0.0,0.0,0.0,0.0,0.0,0.0,0.0,0.0,0.0,0.0,0.0,0.0,0.0,0.0,0.0,0.0,0.0,0.0,0.0,0.0,0.0,0.0,0.0,0.0,0.0,0.0,0.0,0.0,0.0,0.0,-0.8103,-0.9085,-0.9965,-1.1042,-1.2241,-1.2059,-1.1886,-1.1886,-1.1667,-1.1363,0.0,0.0,0.0,0.0,0.0,0.0,0.0,0.0,0.0,0.0,0.0,0.0,0.0,0.0,0.0,0.0,0.0,0.0,0.0,0.0,0.0,0.0,0.0,0.0,0.0,0.0,0.0,0.0,-1.6568,-1.7382,-1.794,0.0,0.0,0.0,0.0,0.0,0.0,0.0,0.0,0.0,0.0,-1.8707,-1.8717,-1.8808,0.0,0.0,-1.9031,-1.9098,-1.9098,-1.9098,-1.916,-1.9336,-1.9569,0.0,0.0,0.0,0.0,0.0,0.0,0.0,0.0,0.0,0.0,0.0,0.0,0.0,0.0,0.0,0.0,0.0,0.0,0.0,0.0,0.0,0.0,0.0,0.0,0.0,0.0,0.0,0.0,0.0,0.0,0.0,0.0,0.0,0.0,0.0,0.0,0.0,0.0,0.0,0.0,0.0,0.0,0.0,0.0,0.0,0.0,0.0,0.0,0.0,0.0,0.0,0.0,-0.7992,-0.9271,-0.9938,-1.095,-1.2379,-1.2252,-1.2119,-1.2035,-1.1742,-1.1483,0.0,0.0,0.0,0.0,0.0,0.0,0.0,0.0,0.0,0.0,0.0,0.0,0.0,0.0,0.0,0.0,0.0,0.0,0.0,0.0,0.0,0.0,0.0,0.0,0.0,0.0,0.0,0.0,-1.6324,-1.727,-1.794,0.0,0.0,0.0,0.0,0.0,0.0,0.0,0.0,0.0,0.0,-1.8607,-1.864,-1.8774,-1.8942,-1.9008,-1.9065,-1.9098,-1.9098,-1.9098,-1.9098,-1.9098,0.0,0.0,0.0,0.0,0.0,0.0,0.0,0.0,0.0,0.0,0.0,0.0,0.0,0.0,0.0,0.0,0.0,0.0,0.0,0.0,0.0,0.0,0.0,0.0,0.0,0.0,0.0,0.0,0.0,0.0,0.0,0.0,0.0,0.0,0.0,0.0,0.0,0.0,0.0,0.0,0.0,0.0,0.0,0.0,0.0,0.0,0.0,0.0,0.0,0.0,0.0,0.0,0.0,-0.7593,-0.9643,-0.97,-1.0694,-1.2595,-1.2687,-1.2548,-1.2259,-1.2006,-1.1754,-1.1489,0.0,0.0,0.0,0.0,0.0,0.0,0.0,0.0,0.0,0.0,0.0,0.0,0.0,0.0,0.0,0.0,0.0,0.0,0.0,0.0,0.0,0.0,0.0,0.0,0.0,0.0,-1.5428,-1.6985,-1.794,0.0,0.0,0.0,0.0,0.0,0.0,0.0,0.0,0.0,0.0,-1.8448,-1.8674,-1.8371,-1.8741,-1.8998,-1.8841,-1.8975,-1.9098,-1.9098,-1.9098,-1.9098,0.0,0.0,0.0,0.0,0.0,0.0,0.0,0.0,0.0,0.0,0.0,0.0,0.0,0.0,0.0,0.0,0.0,0.0,0.0,0.0,0.0,0.0,0.0,0.0,0.0,0.0,0.0,0.0,0.0,0.0,0.0,0.0,0.0,0.0,0.0,0.0,0.0,0.0,0.0,0.0,-0.3681,-0.4584,0.0,0.0,0.0,0.0,0.0,0.0,0.0,0.0,0.0,0.0,0.0,0.0,-0.741,-0.8734,-0.9453,-1.0464,-1.1752,-1.2363,-1.2578,-1.2324,-1.2228,-1.1934,-1.1507,0.0,0.0,0.0,0.0,0.0,0.0,0.0,0.0,0.0,0.0,0.0,0.0,0.0,0.0,0.0,0.0,0.0,0.0,0.0,0.0,0.0,0.0,0.0,0.0,0.0,-1.4994,0.0,0.0,0.0,0.0,0.0,0.0,0.0,0.0,0.0,0.0,0.0,-1.8144,-1.8168,-1.8245,-1.8279,-1.8313,-1.8506,-1.8741,0.0,0.0,0.0,0.0,0.0,0.0,0.0,0.0,0.0,0.0,0.0,0.0,0.0,0.0,-2.391,-2.465,-2.5249,-2.5589,-2.5621,0.0,0.0,0.0,0.0,0.0,0.0,0.0,0.0,0.0,0.0,0.0,0.0,0.0,0.0,0.0,0.0,0.0,0.0,0.0,0.0,0.0,0.0,0.0,0.0,0.0,-0.2433,-0.2515,-0.2638,-0.3853,-0.4441,0.0,-0.5488,-0.5943,0.0,0.0,0.0,0.0,0.0,0.0,0.0,0.0,-0.7375,-0.8365,-0.9039,-1.0014,-1.1278,-1.188,-1.2281,-1.2451,-1.2361,-1.2024,-1.1507,-1.1315,-1.117,0.0,0.0,0.0,0.0,0.0,0.0,0.0,0.0,0.0,0.0,0.0,0.0,0.0,0.0,0.0,0.0,0.0,0.0,0.0,0.0,0.0,0.0,0.0,-1.5313,0.0,0.0,0.0,0.0,0.0,0.0,0.0,0.0,0.0,-1.8168,-1.8076,-1.8042,-1.8168,-1.8272,-1.8394,-1.8566,0.0,0.0,0.0,0.0,0.0,0.0,0.0,-1.9919,-1.9727,-2.0479,-2.1255,-2.1726,-2.2506,-2.3095,-2.3095,0.0,0.0,-2.4167,-2.4696,-2.5044,-2.508,-2.5325,-2.5524,-2.5524,-2.5841,-2.6292,0.0,0.0,0.0,0.0,0.0,0.0,0.0,0.0,0.0,0.0,0.0,0.0,0.0,0.0,0.0,0.0,0.0,0.0,0.0,0.0,-0.1265,-0.1346,-0.164,-0.328,-0.4122,-0.4204,-0.5338,-0.5844,-0.5719,-0.5925,0.0,0.0,0.0,0.0,0.0,0.0,-0.7433,-0.84,-0.8496,-0.9366,-1.1106,-1.1284,-1.1757,-1.265,-1.2445,-1.2036,-1.1555,-1.1501,-1.1369,-1.1141,-1.1117,0.0,0.0,0.0,0.0,0.0,0.0,0.0,0.0,0.0,0.0,0.0,0.0,0.0,0.0,0.0,0.0,0.0,0.0,0.0,0.0,-1.4091,0.0,0.0,0.0,0.0,0.0,0.0,0.0,0.0,0.0,0.0,-1.8047,-1.8037,-1.8027,-1.8037,0.0,0.0,0.0,0.0,-2.017,-2.0339,-2.042,-2.0446,-2.0446,-2.1107,-2.1432,-2.096,0.0,0.0,-2.3137,-2.3158,-2.3195,-2.317,-2.3221,-2.3231,-2.3512,-2.4088,-2.4484,-2.4637,-2.4832,-2.4979,-2.5009,-2.5183,-2.5394,0.2913,0.0,0.0,0.0,0.0,0.0,0.0,0.0,0.0,0.0,0.0,0.0,0.0,0.0,0.0,0.0,0.0,0.0,-0.0132,-0.0353,-0.0397,-0.0397,-0.0529,-0.1628,-0.2551,-0.3299,-0.4308,-0.5187,-0.5976,-0.6017,-0.6273,-0.6646,0.0,0.0,0.0,0.0,-0.7186,-0.7533,-0.8149,-0.8759,-0.9279,-1.0582,-1.1752,-1.2656,-1.2451,-1.224,-1.2089,-1.1688,-1.1453,-1.1375,-1.1182,0.0,0.0,0.0,0.0,0.0,0.0,0.0,0.0,0.0,0.0,0.0,0.0,0.0,0.0,0.0,0.0,0.0,0.0,0.0,-1.4681,-1.4939,-1.5419,0.0,0.0,0.0,0.0,0.0,0.0,0.0,0.0,0.0,-1.8422,-1.8422,-1.8422,0.0,0.0,-1.921,-1.9256,-1.9663,-1.9995,-2.0031,0.0,0.0,0.0,-2.1954,-2.24,-2.2263,-2.2977,-2.3741,-2.4241,-2.4311,-2.4311,-2.4311,-2.4311,-2.4488,-2.5007,-2.4415,-2.3992,-2.4094,-2.4242,-2.4504,-2.4934,-2.5666,-2.6483,0.4376,0.2771,0.1964,0.1228,0.0608,0.0187,0.0,0.0,0.0,0.0,0.0,0.0,0.0,0.0,0.0,0.0,0.0,0.0,0.0,0.0,0.0,0.0,0.0,-0.0965,-0.192,-0.2946,-0.394,-0.4961,-0.5952,-0.6124,-0.626,-0.6405,0.0,0.0,-0.7095,-0.7095,-0.7095,-0.7139,-0.7665,-0.8149,-0.8496,-1.0328,-1.158,-1.2143,-1.2343,-1.2421,-1.2312,-1.1908,-1.1597,-1.1495,-1.1224,-1.1117,0.0,0.0,0.0,0.0,0.0,0.0,0.0,0.0,0.0,0.0,0.0,-1.2194,0.0,0.0,0.0,0.0,-1.3025,-1.3998,-1.5223,-1.533,0.0,0.0,0.0,0.0,0.0,0.0,0.0,-1.8242,-1.8625,-1.888,-1.8887,-1.9033,-1.9046,-1.888,-1.9268,-1.9568,-1.9642,0.0,-2.0336,-2.0521,-2.1554,-2.2379,-2.2462,-2.3577,-2.446,-2.4571,-2.4721,-2.4982,-2.5361,-2.5473,-2.5473,-2.5473,-2.5473,-2.564,-2.6135,-2.5511,-2.4992,-2.5179,-2.5335,-2.5682,-2.6321,-2.7207,-2.8061,0.5834,0.4768,0.2716,0.1767,0.1527,0.0525,0.0,0.0,0.0,0.0,0.0,0.0,0.0,0.0,0.0,0.0,0.0,0.0,0.0,0.0,0.0,0.0,0.0,-0.0857,-0.1837,-0.2959,-0.4022,-0.4947,-0.5721,-0.6159,-0.6281,-0.6145,-0.6542,-0.689,-0.7054,-0.7095,-0.7095,-0.7095,-0.7095,-0.7577,-0.8496,-1.0197,-1.1149,-1.1322,-1.2057,-1.2415,-1.2307,-1.2008,-1.1716,-1.1531,-1.126,-1.1135,-1.1117,0.0,0.0,0.0,0.0,0.0,0.0,0.0,0.0,0.0,0.0,0.0,0.0,0.0,0.0,0.0,-1.2952,0.0,-1.4609,-1.5428,0.0,0.0,0.0,-1.7729,-1.7729,-1.8281,-1.8661,-1.8652,0.0,0.0,0.0,0.0,-1.9824,-1.9434,-1.9717,-2.0036,-2.0224,-2.0648,-2.1101,-2.1533,-2.2768,-2.37,-2.4064,-2.5602,-2.6883,-2.7067,-2.6964,-2.6615,-2.6625,-2.6625,-2.6625,-2.6625,-2.6625,-2.6697,-2.686,-2.7032,-2.7216,-2.7399,-2.7408,-2.7657,-2.8312,-2.8989,-2.9704,0.6234,0.5882,0.4585,0.3105,0.1606,0.1315,0.0773,0.0,0.0,0.0,0.0,0.0,0.0,0.0,0.0,0.0,0.0,0.0,0.0,0.0,0.0,0.0,0.0,-0.0238,-0.1281,-0.2928,-0.3256,-0.4283,-0.5955,-0.6273,-0.6363,-0.6281,-0.65,-0.6719,-0.6887,-0.701,-0.7095,-0.7095,-0.7095,-0.7533,-0.8456,-0.8934,-0.9845,-1.1235,-1.0842,-1.1203,-1.2517,-1.1647,-1.1362,-1.1756,-1.1537,-1.1297,-1.1123,-1.1117,0.0,0.0,0.0,0.0,0.0,0.0,0.0,0.0,0.0,-1.1892,-1.204,0.0,-1.2305,0.0,-1.2489,-1.339,-1.533,-1.5144,0.0,0.0,-1.7481,-1.7995,-1.7986,-1.8662,-1.9126,-1.9138,-1.9514,-1.975,-1.9756,-2.0146,-2.041,-2.0273,-2.038,-2.0449,-2.0497,-2.0977,-2.1669,-2.2491,-2.3841,-2.5084,-2.5867,-2.6965,-2.7852,-2.7897,-2.7808,-2.772,-2.772,-2.772,-2.772,-2.772,-2.7708,-2.7907,-2.8259,-2.8556,-2.8891,-2.9354,-2.852,-2.77,-2.833,-2.9427,-3.0457,0.6518,0.6462,0.5806,0.4553,0.2975,0.1985,0.1234,0.0685,0.0196,0.0,0.0,0.0,0.0,0.0,0.0,0.0,0.0,0.0,0.0,0.0,0.0,0.0,0.0,0.0,-0.0827,-0.2264,-0.2793,-0.3833,-0.5325,-0.5986,-0.6239,-0.6223,-0.64,-0.6547,-0.6612,-0.6716,-0.6874,-0.7095,-0.7095,-0.736,-0.7885,-0.8281,-0.9192,-1.0626,-1.0188,-1.0577,-1.2015,-1.0921,-1.0611,-1.1232,-1.1027,-1.0929,-1.1092,-1.1117,-1.1117,0.0,0.0,0.0,0.0,0.0,0.0,0.0,0.0,0.0,0.0,0.0,-1.2452,0.0,-1.2849,0.0,-1.5613,-1.5543,-1.5886,-1.7059,-1.7819,-1.8242,-1.8252,-1.8945,-1.9439,-1.943,-1.9893,-2.0232,-2.0205,-2.042,-2.0615,-2.0615,-2.0615,-2.0615,-2.0644,-2.1017,-2.17,-2.2765,-2.4307,-2.6009,-2.7563,-2.8411,-2.885,-2.8863,-2.8863,-2.8863,-2.885,-2.885,-2.8863,-2.885,-2.8863,-2.8938,-2.9252,-2.9454,-2.9796,-3.0086,-2.9615,-2.9287,-2.9892,-3.0939,-3.1861,0.6635,0.6611,0.6454,0.5849,0.4834,0.2871,0.1865,0.1513,0.0606,0.0151,0.0,0.0,0.0,0.0,0.0,0.0,0.0,0.0,0.0,0.0,0.0,0.0,0.0,0.0,-0.05,-0.1476,-0.2408,-0.3409,-0.4552,-0.546,-0.5979,-0.6111,-0.6295,-0.6378,-0.6402,-0.6372,-0.6554,-0.7007,-0.7051,-0.7051,-0.7098,-0.7885,-0.8798,-0.9662,-0.9623,-1.0058,-1.1015,-0.997,-0.9689,-1.0329,-1.0224,-1.0423,-1.0952,-1.1055,-1.1117,0.0,-1.1117,0.0,0.0,0.0,0.0,0.0,0.0,0.0,0.0,-1.215,-1.2599,-1.328,-1.339,-1.4067,-1.5583,-1.6056,-1.6644,-1.7478,-1.8128,-1.8481,-1.8481,-1.9205,-1.9695,-1.9706,-2.0217,-2.0605,-2.0595,-2.0615,-2.0615,-2.0615,-2.0615,-2.0615,-2.0644,-2.0947,-2.166,-2.2832,-2.4645,-2.6806,-2.8633,-2.9499,-2.9729,-2.9741,-2.9704,-2.9779,-2.9716,-2.9729,-2.9754,-2.9741,-2.9704,-2.9741,-2.9779,-2.9921,-3.0088,-3.0292,-3.0405,-3.0729,-3.1566,-3.2412,-3.331,0.6711,0.6619,0.6594,0.6377,0.5987,0.4732,0.3225,0.1613,0.1361,0.0808,0.0,0.0,0.0,0.0,0.0,0.0,0.0,0.0,0.0,0.0,0.0,0.0,0.0,0.0,-0.0554,-0.1505,-0.1755,-0.2851,-0.4734,-0.4932,-0.5487,-0.6238,-0.6281,-0.637,-0.6367,0.0,0.0,0.0,-0.6748,-0.6884,-0.6884,-0.7187,-0.7797,-0.8715,-0.8013,0.0,-1.0009,-0.92,-0.9009,-0.9647,-1.0136,0.0,0.0,0.0,0.0,0.0,0.0,0.0,0.0,0.0,0.0,0.0,-1.1521,-1.1737,-1.1774,-1.2077,-1.2372,-1.2526,-1.2781,-1.3595,-1.5157,-1.5627,-1.6413,-1.7833,-1.8507,-1.8891,-1.89,-1.9611,-2.0159,-2.0178,-2.045,-2.0615,-2.0615,-2.0615,-2.0615,-2.0615,-2.0615,-2.0615,-2.0615,-2.0947,-2.1789,-2.3376,-2.5777,-2.7835,-2.8696,-2.935,-2.9679,-2.9779,-2.9779,-2.9767,-2.9754,-2.9779,-2.9779,-2.9767,-2.9779,-2.9767,-2.9754,-2.983,-2.9871,-3.0113,-3.033,-3.0583,-3.1123,-3.2268,-3.3248,0.6855,0.0,0.6736,0.6638,0.0,0.5918,0.4719,0.3123,0.2066,0.1009,0.0,0.0,0.0,0.0,0.0,0.0,0.0,0.0,0.0,0.0,0.0,0.0,0.0,0.0,-0.0252,-0.0807,-0.1361,-0.2168,-0.3224,-0.428,-0.5062,-0.5563,-0.6103,-0.6369,-0.6403,-0.6251,-0.6247,-0.6358,-0.6513,-0.6609,-0.6612,-0.6833,-0.7404,-0.8273,0.0,0.0,0.0,0.0,0.0,0.0,0.0,0.0,0.0,0.0,0.0,-1.1074,-1.1117,-1.1117,-1.1117,-1.1117,-1.1117,-1.1117,-1.1502,-1.1828,-1.1979,-1.232,-1.2563,-1.2563,-1.3206,-1.4148,-1.5306,-1.6174,-1.709,-1.8232,-1.8837,-1.9155,-1.9212,-1.972,-2.0116,-2.0157,-2.0362,-2.0615,-2.0615,-2.0615,-2.0615,-2.0615,-2.0615,-2.0615,-2.0644,-2.0957,-2.1859,-2.3751,-2.5701,-2.7348,-2.7976,-2.8462,-2.8888,-2.8925,-2.9189,-2.934,-2.9365,-2.9616,-2.9716,-2.9453,-2.9365,-2.9302,-2.9013,-2.8963,-2.9114,-2.953,-2.9757,-3.0061,-3.0732,-3.2101,-3.3304,0.7005,0.6978,0.6877,0.6763,0.6649,0.6627,0.5938,0.4634,0.0,0.0,0.0,0.0101,0.0,0.0,0.0,0.0,0.0,0.0,0.0,0.0,0.0,0.0,0.0,0.0,0.0,0.0,-0.0908,-0.1412,-0.1664,-0.3374,-0.4431,-0.4834,-0.5684,-0.6237,-0.6379,-0.6325,-0.6303,-0.627,-0.6358,-0.6367,-0.6346,-0.6612,-0.7095,-0.7874,-0.7356,-0.7404,-0.8149,-0.7492,-0.7348,-0.7862,-0.7945,-0.8474,-0.9672,-0.9851,-1.0241,-1.0877,-1.1023,-1.1117,-1.1117,-1.1117,-1.1135,-1.1215,-1.1635,-1.1986,-1.2287,-1.2614,-1.2826,-1.2864,-1.3751,-1.4719,-1.573,-1.6776,-1.7826,-1.87,-1.9109,-1.9292,-1.9292,-1.9615,-1.9861,-1.9912,-2.0255,-2.0576,-2.0566,-2.0566,-2.0615,-2.0615,-2.0615,-2.0615,-2.0644,-2.1007,-2.1878,-2.3474,-2.4977,-2.6231,-2.6916,-2.7619,-2.7815,-2.81,-2.8487,-2.8725,-2.8813,-2.9176,-2.9264,-2.8838,-2.875,-2.8612,-2.8235,-2.8185,-2.8297,-2.891,-2.9023,-2.9299,-3.0195,-3.1536,-3.2779,0.7128,0.6983,0.6967,0.6888,0.6768,0.6665,0.5938,0.4636,0.2519,0.1513,0.1311,0.0404,0.0,0.0,0.0,0.0,0.0,0.0,0.0,0.0,0.0,0.0,0.0,0.0,0.0,0.0,0.0,-0.0707,-0.1563,-0.1917,-0.2972,-0.4583,-0.4935,-0.5486,-0.6326,-0.6325,-0.6248,-0.6158,-0.6268,-0.6286,-0.613,-0.6343,-0.652,-0.665,-0.6789,-0.6881,-0.701,-0.7098,-0.7132,-0.7237,-0.7784,-0.8185,-0.8401,-0.9447,-1.0124,-1.0274,-1.0784,-1.1117,-1.1117,-1.1117,-1.1258,-1.1654,-1.1996,-1.2217,-1.2458,-1.2733,-1.2949,-1.312,-1.3567,-1.441,-1.5976,-1.6573,-1.7493,-1.8924,-1.9256,-1.9292,-1.9301,-1.9497,-1.9634,-1.9676,-2.0048,-2.0323,-2.0381,-2.0489,-2.0615,-2.0615,-2.0615,-2.0615,-2.0693,-2.1254,-2.1775,-2.2376,-2.4006,-2.5268,-2.5759,-2.6907,-2.7544,-2.784,-2.8012,-2.8222,-2.821,-2.8373,-2.8411,-2.8247,-2.8222,-2.816,-2.8047,-2.8109,-2.8084,-2.827,-2.8393,-2.8602,-2.8864,-2.9883,-3.1226,0.718,0.7081,0.7078,0.701,0.6888,0.67,0.6282,0.5667,0.4045,0.267,0.1613,0.1059,0.0555,0.0,0.0,0.0,0.0,0.0,0.0,0.0,0.0,0.0,0.0,0.0,0.0,0.0,0.0,-0.0254,-0.0768,-0.128,-0.2097,-0.3117,-0.4201,-0.5334,-0.6331,-0.6385,-0.6301,-0.6184,-0.6095,-0.6031,-0.5911,-0.6127,-0.6254,-0.6257,-0.6479,-0.6656,-0.6792,-0.6881,-0.701,-0.7095,-0.7307,-0.7649,-0.8106,-0.86,-0.9126,-0.9562,-1.0342,-1.0796,-1.079,-1.1229,-1.1606,-1.1857,-1.2107,-1.2367,-1.2603,-1.2919,-1.3205,-1.342,-1.4111,-1.4894,-1.5739,-1.6366,-1.722,-1.8439,-1.8607,-1.8767,-1.9222,-1.9487,-1.9576,-1.9636,-2.0009,-2.0284,-2.0303,-2.045,-2.0615,-2.0615,-2.0615,-2.0615,-2.0615,-2.0905,-2.1346,-2.1776,-2.273,-2.3739,-2.4646,-2.5467,-2.6263,-2.6814,-2.7362,-2.762,-2.7682,-2.7858,-2.7946,-2.7733,-2.767,-2.7532,-2.7331,-2.7205,-2.7366,-2.7632,-2.7717,-2.79,-2.8356,-2.9315,-3.0794,0.721,0.721,0.721,0.7141,0.697,0.6785,0.6671,0.6508,0.5606,0.4144,0.242,0.1865,0.116,0.0404,0.0151,0.0,0.0,0.0,0.0,0.0,0.0,0.0,0.0,0.0,0.0,0.0,0.0,0.0,0.0,-0.083,-0.1351,-0.182,-0.3733,-0.5216,-0.602,-0.6297,-0.6382,-0.6314,-0.6081,-0.5918,-0.5776,-0.5922,-0.6038,-0.5994,-0.621,-0.6435,-0.67,-0.6748,-0.6881,-0.7092,-0.6991,-0.7232,-0.7819,-0.7919,-0.8234,-0.8886,-0.9902,-1.06,-1.0813,-1.1566,-1.2011,-1.1976,-1.2252,-1.2492,-1.2783,-1.3115,-1.3411,-1.3678,-1.4469,-1.5137,-1.5462,-1.5959,-1.6739,-1.7594,-1.7876,-1.8278,-1.8895,-1.9311,-1.9527,-1.9557,-1.9872,-2.0137,-2.0225,-2.0372,-2.0527,-2.0566,-2.0615,-2.0615,-2.0615,-2.0615,-2.0905,-2.1357,-2.17,-2.2306,-2.3635,-2.4371,-2.4992,-2.5758,-2.6536,-2.6949,-2.7155,-2.7469,-2.7557,-2.7228,-2.714,-2.7002,-2.66,-2.6524,-2.6713,-2.7065,-2.7128,-2.7289,-2.7804,-2.8712,-3.0337,0.721,0.721,0.721,0.7144,0.6989,0.6956,0.682,0.6584,0.6451,0.5725,0.4334,0.2469,0.1613,0.1312,0.0454,0.0,0.0,0.0,0.0,0.0,0.0,0.0,0.0,0.0,0.0,0.0,0.0,0.0,0.0,0.0,-0.068,-0.1746,-0.3747,-0.4842,-0.5092,-0.5881,-0.6333,-0.6274,-0.6295,-0.6121,-0.5899,-0.5787,-0.5735,-0.5733,-0.5994,-0.6213,-0.6432,-0.6656,-0.6881,-0.7098,-0.7082,-0.7119,-0.7234,-0.7752,-0.809,-0.8247,-0.9623,-1.0847,-1.1657,-1.2062,-1.2235,-1.2294,-1.2512,-1.2784,-1.3002,-1.322,-1.3438,-1.3691,-1.4013,-1.458,-1.5269,-1.5477,-1.5884,-1.6739,-1.7432,-1.8037,-1.8238,-1.8856,-1.9341,-1.9341,-1.9557,-1.9754,-1.9951,-2.0177,-2.0411,-2.0566,-2.0615,-2.0615,-2.0615,-2.0615,-2.0605,-2.0867,-2.127,-2.1794,-2.2312,-2.3452,-2.4384,-2.4909,-2.5677,-2.6325,-2.6631,-2.6688,-2.6625,-2.6801,-2.6637,-2.6587,-2.6549,-2.6487,-2.6499,-2.6625,-2.6663,-2.6659,-2.6913,-2.7522,-2.9065,0.7601,0.7438,0.7438,0.7296,0.7133,0.7016,0.6888,0.6728,0.6597,0.6246,0.5591,0.4178,0.2821,0.1563,0.116,0.0605,0.0,0.0,0.0,0.0,0.0,0.0,0.0,0.0,0.0,0.0,0.0,0.0,0.0,0.0,-0.0532,-0.1561,-0.2493,-0.3555,-0.4703,-0.5231,-0.5773,-0.6319,-0.6304,-0.6232,-0.6021,-0.5896,-0.5801,-0.5696,-0.5822,-0.5997,-0.6213,-0.6305,-0.6526,-0.6881,-0.6925,-0.6966,-0.7095,-0.7388,-0.7527,-0.7563,-0.8661,-0.9973,-1.1414,-1.164,-1.1945,-1.2457,-1.2644,-1.2747,-1.2839,-1.31,-1.3313,-1.3525,-1.387,-1.425,-1.458,-1.4622,-1.4992,-1.576,-1.6247,-1.6862,-1.7917,-1.8287,-1.8696,-1.9173,-1.9478,-1.9645,-1.9754,-2.0069,-2.0372,-2.0566,-2.0615,-2.0615,-2.0615,-2.0615,-2.0615,-2.0644,-2.0905,-2.127,-2.1756,-2.2824,-2.3829,-2.4636,-2.5535,-2.6236,-2.643,-2.6487,-2.6499,-2.6487,-2.6487,-2.6487,-2.6499,-2.6487,-2.6487,-2.6487,-2.6487,-2.6521,-2.6589,-2.6871,-2.8067,0.7878,0.7715,0.7715,0.7549,0.7315,0.7235,0.6999,0.6801,0.6706,0.653,0.6292,0.5584,0.4228,0.262,0.2167,0.1462,0.0505,0.0454,0.0252,0.0,0.0,0.0,0.0,0.0,0.0,0.0,0.0,0.0,0.0,0.0,-0.0379,-0.1095,-0.146,-0.2341,-0.383,-0.4421,-0.5184,-0.5874,-0.6174,-0.6257,-0.6138,-0.6018,-0.5882,-0.5707,-0.5688,-0.5822,-0.6086,-0.6086,-0.626,-0.6656,-0.6748,-0.6881,-0.7013,-0.7054,-0.7228,-0.7492,-0.8105,-0.9327,-1.1149,-1.1278,-1.1714,-1.2577,-1.2705,-1.2705,-1.2747,-1.2918,-1.3137,-1.3313,-1.3737,-1.4004,-1.4088,-1.4088,-1.4412,-1.4985,-1.5186,-1.5959,-1.7066,-1.7634,-1.8247,-1.8856,-1.9222,-1.9597,-1.9715,-2.0029,-2.0381,-2.0527,-2.0615,-2.0615,-2.0615,-2.0615,-2.0615,-2.0615,-2.0605,-2.0828,-2.1423,-2.2199,-2.3158,-2.4108,-2.504,-2.5863,-2.628,-2.6418,-2.6487,-2.6487,-2.6487,-2.6487,-2.6487,-2.6487,-2.6487,-2.6487,-2.6487,-2.6487,-2.6521,-2.6611,-2.7142,0.7992,0.7992,0.7992,0.7826,0.7604,0.7598,0.7288,0.6854,0.679,0.666,0.6403,0.6287,0.5684,0.4582,0.3626,0.2569,0.1613,0.1462,0.0958,0.0,0.0,0.0,0.0,0.0,0.0,0.0,0.0,0.0,0.0,0.0,0.0,0.0,-0.1044,-0.1634,-0.2162,-0.3736,-0.4807,-0.5041,-0.5826,-0.6322,-0.6255,-0.6135,-0.5964,-0.5723,-0.5688,-0.5819,-0.6038,-0.6086,-0.6213,-0.6384,-0.6656,-0.6795,-0.6836,-0.701,-0.7492,-0.8237,-0.8412,-0.9283,-1.089,-1.1149,-1.158,-1.2485,-1.2571,-1.2662,-1.2705,-1.2918,-1.3094,-1.3094,-1.3483,-1.3779,-1.4039,-1.4082,-1.413,-1.4292,-1.4908,-1.5394,-1.5594,-1.6984,-1.7876,-1.8247,-1.8856,-1.942,-1.9824,-2.0147,-2.0342,-2.0527,-2.0566,-2.0615,-2.0615,-2.0615,-2.0615,-2.0615,-2.0615,-2.0605,-2.075,-2.1527,-2.2349,-2.3158,-2.4145,-2.5075,-2.5816,-2.6327,-2.6383,-2.6487,-2.6487,-2.6487,-2.6487,-2.6487,-2.6487,-2.6487,-2.6487,-2.6487,-2.6487,-2.6487,-2.6939,0.8491,0.8322,0.8097,0.7934,0.7881,0.7878,0.7566,0.707,0.7062,0.6817,0.6464,0.6387,0.6187,0.5784,0.5432,0.4277,0.267,0.1916,0.1361,0.0958,0.0303,0.0,0.0,0.0,0.0,0.0,0.0,0.0,0.0,0.0,0.0,0.0,-0.0388,-0.0884,-0.1636,-0.237,-0.3387,-0.4709,-0.518,-0.5653,-0.6228,-0.6149,-0.6005,-0.5852,-0.5723,-0.5733,-0.5822,-0.5822,-0.5949,-0.6213,-0.6305,-0.6482,-0.6795,-0.701,-0.7228,-0.7536,-0.758,-0.8145,-0.9279,-0.9501,-1.0193,-1.158,-1.18,-1.21,-1.2577,-1.279,-1.2918,-1.3094,-1.3185,-1.344,-1.3779,-1.3997,-1.4088,-1.4173,-1.4377,-1.4824,-1.5318,-1.6008,-1.6739,-1.7836,-1.8776,-1.9381,-1.9627,-1.9912,-2.0137,-2.0372,-2.0527,-2.0566,-2.0615,-2.0615,-2.0615,-2.0615,-2.0615,-2.0615,-2.0615,-2.128,-2.2021,-2.2451,-2.3184,-2.4181,-2.5004,-2.5488,-2.5594,-2.6233,-2.6349,-2.6487,-2.6487,-2.6487,-2.6487,-2.6487,-2.6487,-2.6487,-2.6487,-2.6487,-2.6816,0.8768,0.8598,0.8377,0.8214,0.8149,0.8109,0.7801,0.7331,0.7279,0.7035,0.6662,0.6589,0.6539,0.6539,0.6437,0.5682,0.4227,0.3122,0.2268,0.1563,0.0858,0.0353,0.0,0.0,0.0,0.0,0.0,0.0,0.0,0.0,0.0,0.0,0.0,-0.0335,-0.1047,-0.1423,-0.2417,-0.3616,-0.4407,-0.5141,-0.5741,-0.6064,-0.6086,-0.5964,-0.585,-0.5768,-0.5694,-0.5688,-0.5774,-0.5952,-0.6038,-0.626,-0.6659,-0.6881,-0.701,-0.701,-0.7051,-0.7492,-0.8324,-0.85,-0.9192,-1.0669,-1.0885,-1.123,-1.21,-1.2272,-1.2491,-1.2833,-1.3052,-1.3222,-1.3483,-1.3786,-1.3997,-1.4088,-1.4088,-1.4334,-1.4901,-1.5235,-1.6083,-1.731,-1.8278,-1.8856,-1.9183,-1.9548,-1.9912,-2.0264,-2.042,-2.0489,-2.0566,-2.0615,-2.0615,-2.0615,-2.0615,-2.0615,-2.0615,-2.1021,-2.1576,-2.201,-2.2291,-2.3257,-2.4181,-2.46,-2.5194,-2.5838,-2.6233,-2.6418,-2.6487,-2.6487,-2.6487,-2.6487,-2.6487,-2.6487,-2.6487,-2.6487,-2.6748,0.8881,0.8881,0.8881,0.8712,0.8524,0.8356,0.8047,0.7641,0.7458,0.7328,0.7098,0.6892,0.6792,0.6742,0.6589,0.6334,0.5984,0.5083,0.3676,0.2016,0.1613,0.0958,0.0,0.0,0.0,0.0,0.0,0.0,0.0,0.0,0.0,0.0,0.0,0.0,0.0,-0.0992,-0.1572,-0.2182,-0.3609,-0.4618,-0.4887,-0.5677,-0.6045,-0.5981,-0.5909,-0.5839,-0.5696,-0.5688,-0.5688,-0.5733,-0.5952,-0.6213,-0.639,-0.6659,-0.6792,-0.684,-0.6966,-0.7536,-0.8281,-0.8412,-0.8755,-0.971,-0.9884,-1.0318,-1.1278,-1.1451,-1.18,-1.2619,-1.2918,-1.3094,-1.3185,-1.3483,-1.3779,-1.4046,-1.4082,-1.413,-1.4292,-1.4901,-1.5718,-1.6609,-1.7432,-1.8029,-1.8439,-1.8975,-1.9627,-2.0069,-2.0303,-2.0381,-2.0527,-2.0566,-2.0615,-2.0615,-2.0615,-2.0615,-2.0615,-2.0644,-2.1136,-2.1538,-2.1745,-2.2328,-2.3404,-2.4036,-2.4826,-2.5511,-2.6267,-2.6452,-2.6487,-2.6487,-2.6487,-2.6487,-2.6487,-2.6487,-2.6487,-2.6487,-2.6555,0.8937,0.8937,0.8937,0.8826,0.8748,0.8611,0.8358,0.7954,0.7811,0.7516,0.7253,0.7138,0.7089,0.7089,0.6989,0.6839,0.6642,0.6242,0.5284,0.3776,0.2318,0.1462,0.1009,0.0353,0.0,0.0,0.0,0.0,0.0,0.0,0.0,0.0,0.0,0.0,0.0,-0.039,-0.0772,-0.1624,-0.2235,-0.2927,-0.3692,-0.4676,-0.514,-0.5088,-0.5593,-0.585,-0.5696,-0.5688,-0.5688,-0.5688,-0.5777,-0.5952,-0.6171,-0.639,-0.6612,-0.6792,-0.6881,-0.7058,-0.7445,-0.7577,-0.7973,-0.8711,-0.893,-0.9758,-1.102,-1.1278,-1.1714,-1.2534,-1.279,-1.2875,-1.3094,-1.3179,-1.3434,-1.3786,-1.3997,-1.4082,-1.4166,-1.4866,-1.5436,-1.5801,-1.6576,-1.7302,-1.7948,-1.8519,-1.9006,-1.9715,-2.0069,-2.0342,-2.042,-2.0527,-2.0615,-2.0615,-2.0615,-2.0615,-2.0615,-2.0615,-2.0838,-2.1098,-2.1231,-2.1555,-2.2553,-2.3588,-2.4409,-2.537,-2.6094,-2.6418,-2.6487,-2.6487,-2.6487,-2.6487,-2.6487,-2.6487,-2.6487,-2.6521,-2.6555,0.8937,0.8937,0.8937,0.8937,0.8913,0.872,0.8468,0.8249,0.8006,0.7771,0.7547,0.7391,0.7338,0.7338,0.7235,0.7138,0.6995,0.6942,0.6439,0.5386,0.3676,0.2469,0.1613,0.0505,0.0,0.0,0.0,0.0,0.0,0.0,0.0,0.0,0.0,0.0,0.0,0.0,-0.0389,-0.0983,-0.1396,-0.19,-0.2637,-0.3618,-0.4249,-0.4526,-0.5069,-0.5479,-0.5662,-0.5688,-0.5688,-0.5688,-0.5688,-0.5777,-0.5952,-0.6171,-0.6343,-0.6526,-0.6704,-0.6881,-0.6966,-0.7098,-0.7316,-0.7841,-0.7973,-0.8798,-1.0274,-1.0799,-1.1273,-1.2443,-1.2699,-1.2796,-1.2918,-1.3052,-1.3228,-1.344,-1.3779,-1.3997,-1.4166,-1.458,-1.4866,-1.5068,-1.5684,-1.6412,-1.6895,-1.7868,-1.839,-1.9134,-1.9745,-2.0264,-2.0381,-2.0527,-2.0566,-2.0615,-2.0615,-2.0615,-2.0615,-2.0615,-2.0615,-2.0683,-2.0722,-2.1078,-2.1745,-2.2888,-2.3854,-2.537,-2.6327,-2.6452,-2.6487,-2.6487,-2.6487,-2.6487,-2.6487,-2.6487,-2.6487,-2.6487,-2.6521,0.8937,0.8937,0.8937,0.8937,0.8899,0.8625,0.8492,0.8435,0.8174,0.7949,0.7889,0.7693,0.7643,0.7543,0.7437,0.7288,0.7185,0.7188,0.7042,0.6439,0.5284,0.3775,0.1664,0.0707,0.0,0.0,0.0,0.0,0.0,0.0,0.0,0.0,0.0,0.0,0.0,0.0,0.0,0.0,-0.1023,-0.1426,-0.1559,-0.2542,-0.3407,-0.4096,-0.4313,-0.4752,-0.5362,-0.5599,-0.5688,-0.5688,-0.5688,-0.5735,-0.5777,-0.5949,-0.6083,-0.6171,-0.6526,-0.6751,-0.684,-0.6966,-0.7098,-0.7228,-0.7316,-0.7837,-0.9444,-0.9879,-1.0486,-1.2009,-1.24,-1.2528,-1.2571,-1.2875,-1.3052,-1.3137,-1.3519,-1.3828,-1.4046,-1.4173,-1.425,-1.4334,-1.4817,-1.5394,-1.5636,-1.6976,-1.7908,-1.8638,-1.9332,-2.001,-2.0333,-2.045,-2.0576,-2.0615,-2.0615,-2.0615,-2.0615,-2.0615,-2.0615,-2.0615,-2.0644,-2.0914,-2.1479,-2.2627,-2.3891,-2.5335,-2.6205,-2.6368,-2.6487,-2.6474,-2.6487,-2.6487,-2.6487,-2.6487,-2.6487,-2.6474,-2.6471,0.8937,0.8937,0.8937,0.8937,0.8841,0.8611,0.8535,0.8445,0.8116,0.7988,0.7992,0.7942,0.7892,0.7892,0.7789,0.769,0.7543,0.749,0.7341,0.7042,0.6592,0.4479,0.2116,0.1311,0.0757,0.0,0.0,0.0,0.0,0.0,0.0,0.0,0.0,0.0,0.0,0.0,0.0,0.0,0.0,0.0,-0.0633,-0.1485,-0.2078,-0.2244,-0.2994,-0.3773,-0.4634,-0.5329,-0.5688,-0.5688,-0.5688,-0.5688,-0.5733,-0.5777,-0.5908,-0.6083,-0.6216,-0.6438,-0.6748,-0.6836,-0.6966,-0.7095,-0.7095,-0.7621,-0.8711,-0.8886,-0.9492,-1.0534,-1.1187,-1.1666,-1.18,-1.2357,-1.2833,-1.3094,-1.3434,-1.3779,-1.3997,-1.4088,-1.4088,-1.413,-1.4334,-1.4741,-1.5394,-1.6329,-1.7342,-1.8118,-1.9085,-1.9942,-2.0216,-2.0459,-2.0537,-2.0576,-2.0615,-2.0615,-2.0615,-2.0615,-2.0615,-2.0615,-2.0702,-2.0884,-2.178,-2.294,-2.4289,-2.5688,-2.5847,-2.599,-2.628,-2.6449,-2.6461,-2.6248,-2.6298,-2.6223,-2.6386,-2.6436,-2.6361,0.9644,0.9588,0.9099,0.8937,0.8899,0.8608,0.8535,0.8425,0.8174,0.7988,0.7988,0.7988,0.7988,0.7988,0.7988,0.7892,0.7743,0.7743,0.759,0.7344,0.7042,0.5432,0.3323,0.2217,0.1261,0.0707,0.0303,0.0,0.0,0.0106,0.0108,0.0,0.0,0.0,0.0,0.0,0.0,0.0,0.0,0.0,0.0,-0.0566,-0.109,-0.1391,-0.209,-0.2847,-0.4146,-0.4837,-0.5285,-0.5555,-0.5688,-0.5688,-0.5688,-0.5688,-0.5777,-0.5952,-0.5997,-0.626,-0.6482,-0.6659,-0.6836,-0.6966,-0.7054,-0.7577,-0.8281,-0.8544,-0.889,-0.9879,-1.0399,-1.0842,-1.1408,-1.2143,-1.2753,-1.3058,-1.3307,-1.3568,-1.3906,-1.4046,-1.4088,-1.4088,-1.4124,-1.425,-1.4859,-1.5925,-1.6813,-1.7666,-1.8886,-1.9578,-2.0098,-2.0333,-2.044,-2.042,-2.0507,-2.0507,-2.0517,-2.0527,-2.0361,-2.0371,-2.033,-2.0607,-2.1528,-2.2754,-2.381,-2.4799,-2.5208,-2.5601,-2.5845,-2.5933,-2.5661,-2.5573,-2.5783,-2.5858,-2.5883,-2.6047,-2.6021,1.0781,1.0621,0.9533,0.8985,0.8866,0.8611,0.8518,0.8404,0.816,0.7988,0.7988,0.7988,0.7988,0.7988,0.7988,0.7988,0.7988,0.7939,0.7793,0.7593,0.7241,0.6284,0.4983,0.3172,0.2167,0.1613,0.0908,0.0461,0.0313,0.0371,0.027,0.0,0.0,0.0,0.0,0.0,0.0,0.0,0.0,0.0,0.0,0.0,-0.0496,-0.1053,-0.1411,-0.2223,-0.3432,-0.4074,-0.4478,-0.5329,-0.5555,-0.5688,-0.5688,-0.5688,-0.5733,-0.5733,-0.5908,-0.6083,-0.6171,-0.6482,-0.6748,-0.6795,-0.6966,-0.7404,-0.8017,-0.8189,-0.8492,-0.9183,-0.9666,-1.0144,-1.0971,-1.1923,-1.2448,-1.2711,-1.2881,-1.327,-1.361,-1.3906,-1.4082,-1.4088,-1.4088,-1.4088,-1.4496,-1.5428,-1.6593,-1.654,-1.7823,-1.8804,-1.935,-1.9611,-1.987,-2.0109,-2.0206,-2.037,-2.04,-2.0429,-2.0215,-2.0078,-1.9883,-2.0106,-2.0805,-2.1852,-2.2846,-2.371,-2.4584,-2.5008,-2.5081,-2.5046,-2.4901,-2.5021,-2.5272,-2.5096,-2.4946,-2.5209,-2.5297,1.1487,1.0672,1.0453,0.9676,0.8791,0.856,0.8421,0.8306,0.8073,0.7988,0.7988,0.7988,0.7988,0.7988,0.7988,0.7988,0.7988,0.7988,0.7842,0.7643,0.7543,0.7238,0.6437,0.5029,0.3671,0.2619,0.1865,0.1335,0.0948,0.0799,0.065,0.0334,0.0335,0.0224,0.0,0.0,0.0,0.0,0.0,0.0,0.0,0.0,0.0,0.0,-0.0972,-0.1543,-0.2025,-0.2778,-0.3269,-0.376,-0.479,-0.5599,-0.5599,-0.5688,-0.5688,-0.5733,-0.5733,-0.5863,-0.6083,-0.6216,-0.6438,-0.6707,-0.684,-0.701,-0.7316,-0.7445,-0.7533,-0.7837,-0.836,-0.9187,-1.0101,-1.1063,-1.1628,-1.1929,-1.2534,-1.3137,-1.3434,-1.3652,-1.3864,-1.4039,-1.4075,-1.4082,-1.4117,-1.492,-1.561,-1.5673,-1.6579,-1.7795,-1.8415,-1.8873,-1.9259,-1.9543,-1.9848,-1.9991,-2.0077,-2.0067,-1.9873,-1.9629,-1.9414,-1.9476,-2.0205,-2.0889,-2.1836,-2.3002,-2.4246,-2.4434,-2.4354,-2.46,-2.4575,-2.4675,-2.4687,-2.4562,-2.4474,-2.46,-2.4562,1.2911,1.2254,1.1164,1.0248,0.9498,0.8807,0.8401,0.8258,0.8106,0.7988,0.7988,0.7988,0.7988,0.7988,0.7988,0.7988,0.7988,0.7988,0.7939,0.7793,0.7793,0.769,0.7487,0.6686,0.5427,0.4021,0.337,0.2623,0.19,0.1655,0.1464,0.0671,0.0617,0.0448,0.0224,0.0168,0.0,0.0,0.0,0.0,0.0,0.0,0.0,0.0,-0.0505,-0.0898,-0.148,-0.1883,-0.2419,-0.309,-0.4208,-0.5015,-0.5151,-0.5463,-0.5688,-0.5688,-0.5688,-0.5733,-0.5908,-0.6041,-0.6216,-0.6485,-0.6662,-0.6836,-0.6966,-0.7051,-0.7095,-0.7183,-0.7621,-0.8233,-0.9144,-1.0096,-1.0664,-1.1322,-1.1832,-1.2486,-1.3084,-1.3477,-1.3779,-1.3971,-1.3948,-1.3888,-1.4103,-1.4591,-1.4826,-1.4976,-1.5693,-1.686,-1.764,-1.8097,-1.8555,-1.8937,-1.9369,-1.9585,-1.966,-1.9619,-1.9463,-1.917,-1.8828,-1.8978,-1.9426,-2.0099,-2.0758,-2.1977,-2.3149,-2.3513,-2.3536,-2.3841,-2.4023,-2.391,-2.386,-2.396,-2.3973,-2.3873,-2.3822,1.4385,1.4056,1.2037,1.0937,1.0314,0.9422,0.8895,0.8519,0.8296,0.8382,0.8187,0.8137,0.7988,0.7988,0.7988,0.7988,0.7988,0.7988,0.7939,0.7939,0.7939,0.7939,0.7839,0.749,0.6986,0.5924,0.5022,0.4,0.32,0.282,0.2271,0.1389,0.1009,0.0785,0.0561,0.0392,0.028,0.0,0.0,0.0,0.0,0.0,0.0,0.0,0.0,0.0,-0.0898,-0.1211,-0.1525,-0.2419,-0.3358,-0.3849,-0.4344,-0.5104,-0.5688,-0.5688,-0.5688,-0.5733,-0.5774,-0.5908,-0.6038,-0.6086,-0.6441,-0.6662,-0.6748,-0.6877,-0.701,-0.7054,-0.7275,-0.7489,-0.8233,-0.9087,-0.9904,-1.0593,-1.0936,-1.1671,-1.2485,-1.3131,-1.3487,-1.3826,-1.3701,-1.3587,-1.3682,-1.3976,-1.4137,-1.437,-1.5088,-1.5769,-1.648,-1.7118,-1.7474,-1.7944,-1.8313,-1.8947,-1.9129,-1.9248,-1.9056,-1.8861,-1.8442,-1.8562,-1.8836,-1.936,-2.0067,-2.0841,-2.1721,-2.2277,-2.2807,-2.3109,-2.3194,-2.303,-2.3208,-2.3471,-2.3384,-2.3133,-2.3195,1.5083,1.4169,1.3786,1.2365,1.0575,1.0923,1.0455,0.9486,0.9331,0.9312,0.9164,0.8435,0.8088,0.7988,0.7988,0.7988,0.7988,0.7988,0.7988,0.7988,0.7988,0.7988,0.7988,0.7942,0.769,0.7335,0.6384,0.5293,0.4416,0.3695,0.3282,0.2523,0.1727,0.1233,0.0953,0.0561,0.0448,0.0335,0.0163,0.0,0.0,0.0,0.0,0.0,0.0,0.0,0.0,0.0,-0.0314,-0.0539,-0.1391,-0.2286,-0.3226,-0.4656,-0.5419,-0.5688,-0.5688,-0.5688,-0.5733,-0.5733,-0.5908,-0.6038,-0.6216,-0.6346,-0.6479,-0.6697,-0.6827,-0.6899,-0.6987,-0.721,-0.7312,-0.8092,-0.8534,-0.9085,-0.9925,-1.0838,-1.1358,-1.2041,-1.2643,-1.298,-1.3087,-1.3273,-1.3371,-1.3362,-1.3393,-1.3498,-1.3912,-1.4396,-1.4914,-1.551,-1.602,-1.6534,-1.7071,-1.7848,-1.8537,-1.8682,-1.8715,-1.8666,-1.8403,-1.8311,-1.854,-1.8815,-1.9405,-1.9997,-2.0813,-2.1639,-2.208,-2.2457,-2.2775,-2.2969,-2.3047,-2.3095,-2.3095,-2.3095,-2.3095,1.5565,1.5013,1.4296,1.3194,1.2014,1.1624,1.1162,1.0516,1.0391,1.0096,0.9558,0.9019,0.8482,0.8137,0.7988,0.7988,0.7988,0.7988,0.7988,0.7988,0.7988,0.7988,0.7988,0.7988,0.7988,0.7839,0.7291,0.6544,0.5791,0.537,0.4607,0.3929,0.2999,0.2352,0.1904,0.1289,0.0897,0.0668,0.0489,0.0373,0.0212,0.0101,0.0,0.0,0.0,0.0,0.0,0.0,0.0,0.0,-0.0898,-0.1569,-0.2376,-0.3406,-0.4703,-0.5421,-0.5644,-0.5688,-0.5688,-0.5688,-0.5777,-0.5863,-0.5997,-0.6127,-0.626,-0.6432,-0.6618,-0.6729,-0.6807,-0.6912,-0.6941,-0.7306,-0.7644,-0.8201,-0.8946,-0.9585,-1.0197,-1.0954,-1.1522,-1.2073,-1.2441,-1.2706,-1.2971,-1.2896,-1.2717,-1.2736,-1.2907,-1.325,-1.3606,-1.4119,-1.483,-1.5811,-1.6533,-1.7537,-1.8254,-1.842,-1.8451,-1.8383,-1.8334,-1.8242,-1.8223,-1.8458,-1.8563,-1.8862,-1.9802,-2.0905,-2.1702,-2.2192,-2.2531,-2.2878,-2.2987,-2.3078,-2.3095,-2.3095,-2.3095,1.5885,1.5814,1.4645,1.3871,1.3381,1.2541,1.187,1.1541,1.1512,1.1072,1.0243,0.9752,0.9118,0.8432,0.8088,0.7988,0.7988,0.7988,0.7988,0.7988,0.7988,0.7988,0.7988,0.7988,0.7988,0.7988,0.7892,0.7547,0.6884,0.6508,0.609,0.537,0.4417,0.3635,0.3021,0.2184,0.1569,0.1055,0.0924,0.0746,0.0466,0.0246,0.0094,0.0046,0.0,0.0,0.0,0.0,0.0,0.0,-0.0633,-0.1219,-0.1489,-0.2164,-0.3373,-0.4797,-0.5287,-0.5466,-0.5688,-0.5688,-0.5735,-0.5777,-0.5908,-0.5985,-0.5981,-0.6116,-0.6334,-0.6495,-0.6583,-0.6687,-0.6742,-0.6723,-0.7021,-0.7527,-0.791,-0.8341,-0.9252,-1.0046,-1.0699,-1.1244,-1.1809,-1.2215,-1.2456,-1.2612,-1.2485,-1.2465,-1.2634,-1.2825,-1.3182,-1.3294,-1.4007,-1.5207,-1.6269,-1.7363,-1.8015,-1.8265,-1.8266,-1.8149,-1.8164,-1.8105,-1.8057,-1.811,-1.8182,-1.8301,-1.9056,-2.0152,-2.1006,-2.1827,-2.2254,-2.2592,-2.2896,-2.3047,-2.3078,-2.3095,-2.3095,1.5885,1.5861,1.5444,1.4614,1.3682,1.3946,1.3554,1.2597,1.2538,1.249,1.195,1.0485,0.9657,0.9167,0.8432,0.8088,0.7988,0.7988,0.7988,0.7988,0.7988,0.7988,0.7988,0.7988,0.7988,0.7988,0.7988,0.7945,0.7582,0.7044,0.6735,0.6323,0.5597,0.4749,0.397,0.33,0.2351,0.1449,0.1085,0.0938,0.0897,0.0667,0.0466,0.0368,0.0,0.0,0.0,0.0,0.0,0.0,0.0,0.0,-0.1242,-0.1472,-0.214,-0.3109,-0.3985,-0.4792,-0.5329,-0.5494,-0.5489,-0.5484,-0.5659,-0.567,-0.5716,-0.578,-0.6011,-0.6399,-0.6433,-0.6493,-0.662,-0.6607,-0.664,-0.6864,-0.7249,-0.7813,-0.8578,-0.901,-0.9715,-1.0549,-1.1087,-1.1627,-1.2032,-1.221,-1.2318,-1.2311,-1.2368,-1.2594,-1.2736,-1.2872,-1.3356,-1.4598,-1.5631,-1.674,-1.7574,-1.7868,-1.8027,-1.7949,-1.7974,-1.7978,-1.7881,-1.7842,-1.7881,-1.8161,-1.8738,-1.9264,-2.0124,-2.0942,-2.1732,-2.2316,-2.2622,-2.2896,-2.3078,-2.3078,-2.3078,1.5668,1.565,1.5384,1.4865,1.4254,1.4392,1.4171,1.3678,1.3613,1.327,1.2678,1.1853,1.0779,0.9702,0.9069,0.8581,0.8137,0.8088,0.7988,0.8038,0.8038,0.8038,0.7988,0.7988,0.7988,0.7988,0.7988,0.7988,0.7862,0.7827,0.7657,0.7501,0.6791,0.6145,0.5303,0.4751,0.3801,0.2874,0.2252,0.2245,0.2332,0.1877,0.1287,0.1182,0.0586,0.0225,0.0,0.0,0.0,0.0,0.0,0.0,-0.051,-0.0646,-0.1053,-0.1975,-0.2389,-0.3098,-0.3927,-0.4513,-0.4757,-0.4993,-0.518,-0.5494,-0.5473,-0.5634,-0.5799,-0.604,-0.625,-0.6384,-0.6464,-0.6433,-0.6409,-0.6521,-0.6726,-0.7014,-0.7591,-0.8105,-0.8718,-0.9583,-1.0421,-1.095,-1.1477,-1.1781,-1.2046,-1.2305,-1.2305,-1.2395,-1.2472,-1.2496,-1.3131,-1.4062,-1.5048,-1.6008,-1.6797,-1.7351,-1.768,-1.7731,-1.7944,-1.7867,-1.7676,-1.7617,-1.7598,-1.7422,-1.7496,-1.8196,-1.9123,-2.0144,-2.1089,-2.1756,-2.2389,-2.2659,-2.2877,-2.2987,-2.2987,1.5457,1.5378,1.5119,1.4896,1.4696,1.4419,1.4304,1.4298,1.425,1.3859,1.3173,1.2732,1.1609,1.0342,1.0002,0.9657,0.892,0.8821,0.8577,0.8482,0.8386,0.8287,0.8088,0.7988,0.7988,0.7988,0.7988,0.7988,0.8035,0.815,0.825,0.8482,0.7731,0.7201,0.6843,0.6135,0.517,0.3906,0.339,0.3529,0.3749,0.3052,0.2411,0.1891,0.1255,0.0629,0.0181,0.0,0.0,0.0,0.0,0.0,0.0,0.0,0.0,-0.098,-0.1177,-0.1429,-0.235,-0.3035,-0.3662,-0.4059,-0.4515,-0.5043,-0.5355,-0.554,-0.5661,-0.5661,-0.592,-0.6093,-0.6219,-0.6268,-0.6317,-0.632,-0.638,-0.6416,-0.6644,-0.7361,-0.8114,-0.8945,-0.9744,-1.026,-1.0789,-1.1248,-1.1706,-1.2157,-1.2305,-1.2305,-1.2348,-1.2385,-1.2951,-1.382,-1.4593,-1.5401,-1.5886,-1.6576,-1.7017,-1.7445,-1.7615,-1.7566,-1.7278,-1.7165,-1.7148,-1.6914,-1.6609,-1.7095,-1.7978,-1.9247,-2.0484,-2.133,-2.208,-2.2445,-2.2658,-2.2811,-2.2939,1.5354,1.5113,1.4853,1.4733,1.4678,1.4419,1.4298,1.4298,1.4298,1.425,1.3902,1.3167,1.2242,1.1317,1.1077,1.0974,1.0877,1.0979,1.0243,0.9706,0.9414,0.8871,0.8432,0.8137,0.7988,0.7988,0.7988,0.7988,0.8025,0.8194,0.834,0.8433,0.8311,0.7853,0.7373,0.6879,0.619,0.5162,0.4638,0.4411,0.4475,0.4002,0.3452,0.269,0.2152,0.149,0.0507,0.0509,0.0,0.0,0.0,0.0,0.0,0.0,0.0,0.0,0.0,0.0,0.0,-0.2029,-0.2862,-0.3173,-0.3628,-0.4344,-0.4907,-0.5018,-0.5157,-0.5394,-0.5685,-0.5834,-0.5983,-0.6138,-0.6257,-0.63,-0.6335,-0.6528,-0.669,-0.6976,-0.7727,-0.8437,-0.8998,-0.9453,-1.0115,-1.0576,-1.1403,-1.1935,-1.2231,-1.2231,-1.2445,-1.2556,-1.2959,-1.3586,-1.431,-1.4859,-1.5073,-1.565,-1.6387,-1.6756,-1.6973,-1.6871,-1.6664,-1.6641,-1.6655,-1.6494,-1.6279,-1.655,-1.6856,-1.7979,-1.9257,-2.0843,-2.1764,-2.2019,-2.2487,-2.2805,-2.2939,1.5601,1.5289,1.4869,1.4607,1.4455,1.434,1.4298,1.4298,1.4298,1.4298,1.4298,1.3806,1.3125,1.2339,1.2096,1.1755,1.1268,1.117,1.0925,1.0485,0.9948,0.941,0.8874,0.8382,0.7988,0.7988,0.7988,0.7988,0.8005,0.8208,0.8343,0.8489,0.8645,0.8567,0.8081,0.7445,0.6909,0.6751,0.5969,0.5539,0.6015,0.5378,0.4779,0.4336,0.3487,0.2668,0.1751,0.1544,0.1004,0.0537,0.0347,0.0194,0.0047,0.0,0.0,0.0,0.0,0.0,0.0,-0.1192,-0.2085,-0.2655,-0.295,-0.3412,-0.4253,-0.4362,-0.4779,-0.5168,-0.5518,-0.5631,-0.5902,-0.6138,-0.63,-0.63,-0.6374,-0.6567,-0.6686,-0.6894,-0.7126,-0.7791,-0.8111,-0.8426,-0.917,-0.9949,-1.0844,-1.1669,-1.1929,-1.2187,-1.2372,-1.2556,-1.2806,-1.3019,-1.3621,-1.4145,-1.4351,-1.5062,-1.5796,-1.5987,-1.6225,-1.6175,-1.6021,-1.609,-1.6075,-1.5954,-1.5919,-1.6078,-1.6377,-1.6839,-1.7988,-1.9565,-2.0687,-2.1439,-2.2025,-2.2677,-2.2951,1.5668,1.5471,1.4998,1.4688,1.4442,1.4346,1.4298,1.4298,1.4298,1.4298,1.4298,1.425,1.3956,1.3318,1.3167,1.2926,1.2436,1.229,1.1955,1.1565,1.1023,1.0194,0.9558,0.8924,0.8432,0.8137,0.7988,0.7988,0.7998,0.8238,0.8381,0.8516,0.8679,0.8787,0.8548,0.7896,0.7549,0.7622,0.7183,0.6528,0.7073,0.6531,0.5764,0.545,0.4734,0.3953,0.3106,0.2739,0.2167,0.1522,0.1039,0.0679,0.0376,0.0,0.0088,0.0,0.0,0.0,0.0,-0.0522,-0.1316,-0.1934,-0.2123,-0.2586,-0.3168,-0.3558,-0.3871,-0.4654,-0.5121,-0.5473,-0.5628,-0.5983,-0.6219,-0.6219,-0.6296,-0.6412,-0.6412,-0.6535,-0.6725,-0.7065,-0.7269,-0.7508,-0.8493,-0.9382,-1.0545,-1.1409,-1.1892,-1.2077,-1.2187,-1.2298,-1.2415,-1.2574,-1.2796,-1.3244,-1.3645,-1.4002,-1.437,-1.4699,-1.4962,-1.5398,-1.5413,-1.5522,-1.5587,-1.5563,-1.5556,-1.5614,-1.5857,-1.6201,-1.7137,-1.8305,-1.9546,-2.0922,-2.1498,-2.2165,-2.2781,1.5552,1.5458,1.5197,1.4933,1.4688,1.4394,1.4298,1.4394,1.4352,1.4346,1.4298,1.4298,1.4298,1.41,1.4004,1.3859,1.3806,1.3806,1.3511,1.2732,1.2193,1.1312,1.0337,0.9558,0.8924,0.8237,0.7988,0.7988,0.7995,0.8309,0.8448,0.8547,0.872,0.8866,0.8824,0.8486,0.8126,0.7828,0.7436,0.7225,0.7111,0.6928,0.6432,0.5985,0.5716,0.5087,0.4334,0.4112,0.3516,0.251,0.2315,0.1778,0.0783,0.0579,0.0386,0.0,0.0,0.0,0.0,0.0,-0.055,-0.1176,-0.1293,-0.1683,-0.2308,-0.262,-0.2934,-0.3791,-0.4107,-0.4654,-0.5204,-0.5712,-0.5864,-0.6177,-0.6219,-0.6257,-0.6257,-0.63,-0.6528,-0.6644,-0.6528,-0.6683,-0.7753,-0.8851,-1.0169,-1.1105,-1.1744,-1.2003,-1.207,-1.2108,-1.2191,-1.2184,-1.2262,-1.2544,-1.2866,-1.2755,-1.2933,-1.3292,-1.383,-1.4431,-1.4863,-1.5029,-1.5114,-1.5156,-1.5323,-1.5478,-1.5468,-1.5498,-1.6411,-1.737,-1.9186,-2.0447,-2.1049,-2.1674,-2.2359,1.5917,1.5684,1.5443,1.5309,1.5159,1.4729,1.4688,1.479,1.464,1.449,1.4346,1.4298,1.4298,1.4298,1.4298,1.4346,1.4298,1.4298,1.3908,1.3709,1.3119,1.2484,1.1463,1.0337,0.9509,0.897,0.8528,0.8088,0.7995,0.844,0.8511,0.8547,0.8695,0.871,0.8543,0.8211,0.7855,0.7655,0.7394,0.7142,0.7102,0.7095,0.6918,0.6564,0.6564,0.6119,0.5354,0.5314,0.4734,0.3694,0.3536,0.2888,0.1805,0.1433,0.1014,0.0404,0.0,0.0,0.0,0.0,0.0,0.0,0.0,0.0,-0.1528,-0.1684,-0.2152,-0.2737,-0.3091,-0.3717,-0.438,-0.4727,-0.5038,-0.5822,-0.6057,-0.6138,-0.6219,-0.6257,-0.6374,-0.6374,-0.6335,-0.6756,-0.7557,-0.8246,-0.9453,-1.0475,-1.1111,-1.1822,-1.2031,-1.2005,-1.2007,-1.1884,-1.1925,-1.2061,-1.2141,-1.209,-1.2343,-1.2876,-1.3324,-1.3778,-1.4156,-1.4517,-1.4882,-1.5059,-1.5225,-1.5371,-1.5391,-1.5449,-1.5605,-1.6569,-1.8188,-1.9632,-2.0389,-2.1164,-2.2048,1.6005,1.5784,1.5642,1.5588,1.554,1.5077,1.4981,1.5035,1.4885,1.4694,1.4496,1.4448,1.4394,1.4346,1.4394,1.434,1.4346,1.4394,1.4346,1.425,1.3661,1.3022,1.2242,1.1361,1.073,0.9998,0.9164,0.8581,0.8695,0.8951,0.9178,0.9184,0.8706,0.8364,0.8187,0.7946,0.7726,0.7522,0.7278,0.7109,0.7095,0.7095,0.7095,0.7051,0.6979,0.6815,0.6527,0.6244,0.5935,0.5074,0.4532,0.4088,0.3093,0.2435,0.1916,0.116,0.0,0.0,0.0,0.0,0.0,0.0,0.0,0.0,-0.0706,-0.0824,-0.1332,-0.184,-0.2154,-0.2817,-0.3441,-0.375,-0.4256,-0.5002,-0.547,-0.555,-0.6022,-0.6099,-0.6257,-0.6257,-0.6335,-0.6834,-0.7292,-0.7863,-0.8661,-0.9571,-1.0475,-1.1174,-1.1812,-1.184,-1.1728,-1.1602,-1.1503,-1.1546,-1.1584,-1.1495,-1.1861,-1.2442,-1.2781,-1.3094,-1.3662,-1.4022,-1.4508,-1.497,-1.5088,-1.5225,-1.5362,-1.5488,-1.5566,-1.5925,-1.6882,-1.8258,-1.9545,-2.0593,-2.1571,1.5825,1.5825,1.5825,1.5778,1.5737,1.5315,1.5131,1.5131,1.5077,1.4939,1.4736,1.4694,1.4592,1.4448,1.4592,1.4592,1.449,1.464,1.4538,1.4394,1.4154,1.3613,1.3119,1.2533,1.1804,1.1023,1.0293,0.9661,0.9694,0.9967,1.0224,1.004,0.905,0.8535,0.8251,0.7856,0.7637,0.737,0.7238,0.7102,0.7095,0.7095,0.7095,0.7095,0.7064,0.7118,0.7031,0.7057,0.67,0.6204,0.5893,0.5039,0.4315,0.3773,0.2985,0.2068,0.0982,0.0667,0.0,0.0,0.0,0.0,0.0,0.0,0.0,0.0,-0.0628,-0.098,-0.1333,-0.1958,-0.2543,-0.2856,-0.3205,-0.383,-0.4414,-0.4924,-0.5628,-0.5902,-0.6099,-0.6219,-0.6257,-0.6602,-0.7061,-0.7595,-0.8055,-0.8661,-0.9508,-1.0068,-1.076,-1.1501,-1.1386,-1.1295,-1.1149,-1.1029,-1.0999,-1.1026,-1.117,-1.1714,-1.1914,-1.2251,-1.2864,-1.3631,-1.4201,-1.4627,-1.4882,-1.5088,-1.5254,-1.5362,-1.542,-1.5895,-1.6368,-1.7277,-1.8699,-2.0006,-2.1019,1.5825,1.5825,1.5825,1.5825,1.5778,1.5642,1.5404,1.5131,1.5267,1.522,1.4981,1.4987,1.4885,1.4885,1.4933,1.4933,1.4939,1.4892,1.479,1.4694,1.4592,1.4244,1.3757,1.3167,1.2587,1.2047,1.1365,1.0734,1.078,1.0979,1.1027,1.0861,0.9759,0.9146,0.8547,0.797,0.7573,0.731,0.7214,0.7105,0.7095,0.7095,0.7095,0.7095,0.7095,0.7142,0.7217,0.7316,0.7031,0.6815,0.6738,0.6133,0.5173,0.4717,0.4021,0.2948,0.2384,0.2073,0.1489,0.1215,0.0902,0.0353,0.0157,0.0,0.0,0.0,0.0,0.0,0.0,-0.1137,-0.1528,-0.1841,-0.2309,-0.2934,-0.3441,-0.3947,-0.4611,-0.5231,-0.5509,-0.6177,-0.6219,-0.6374,-0.6834,-0.7176,-0.7638,-0.8055,-0.8505,-0.9075,-0.9703,-1.0486,-1.0874,-1.075,-1.0883,-1.0737,-1.0722,-1.0755,-1.076,-1.0884,-1.1209,-1.1639,-1.2397,-1.3161,-1.3863,-1.438,-1.4725,-1.5,-1.5215,-1.5293,-1.5362,-1.5584,-1.6029,-1.6861,-1.7824,-1.916,-2.0337,1.5825,1.5825,1.5825,1.5825,1.5825,1.5825,1.5642,1.541,1.5547,1.5499,1.5267,1.5267,1.522,1.5083,1.5172,1.522,1.5083,1.5172,1.5118,1.4885,1.4838,1.464,1.4202,1.3806,1.3559,1.3022,1.2436,1.1755,1.1746,1.1461,1.1368,1.1791,1.0657,0.9961,0.9376,0.859,0.7923,0.762,0.7404,0.7183,0.7095,0.7095,0.7095,0.7095,0.7095,0.7095,0.7102,0.7258,0.7217,0.7092,0.7065,0.6734,0.5853,0.5335,0.4743,0.375,0.324,0.2891,0.2348,0.1841,0.145,0.098,0.0471,0.0,0.0,0.0,0.0,0.0,0.0,-0.0235,-0.0549,-0.0863,-0.1489,-0.2115,-0.2466,-0.2817,-0.3556,-0.4292,-0.5076,-0.5902,-0.618,-0.6257,-0.6528,-0.6872,-0.7065,-0.7257,-0.7562,-0.8008,-0.8695,-0.9474,-0.9892,-0.9985,-1.0308,-1.0513,-1.0491,-1.0491,-1.0618,-1.0681,-1.0807,-1.1327,-1.2027,-1.252,-1.3039,-1.3833,-1.4627,-1.4843,-1.5,-1.5205,-1.5313,-1.5526,-1.569,-1.6273,-1.7173,-1.8367,-1.9457,1.5967,1.5825,1.5825,1.5825,1.5825,1.5825,1.5784,1.5825,1.5778,1.5683,1.554,1.554,1.5404,1.5315,1.5452,1.5404,1.5363,1.5452,1.5356,1.5124,1.5124,1.4981,1.479,1.4688,1.4346,1.4004,1.3565,1.3028,1.2673,1.2387,1.2356,1.2673,1.1407,1.0598,1.0255,0.9252,0.866,0.8508,0.7881,0.7356,0.7139,0.7095,0.7095,0.7095,0.7095,0.7095,0.7095,0.7102,0.7095,0.7051,0.694,0.6795,0.6273,0.5787,0.5154,0.481,0.4336,0.3826,0.34,0.2856,0.2388,0.1802,0.1137,0.0784,0.0706,0.0196,0.0,0.0,0.0,0.0,0.0,0.0,-0.0784,-0.1137,-0.1411,-0.1958,-0.2659,-0.3515,-0.4489,-0.5234,-0.567,-0.5825,-0.6335,-0.6644,-0.6683,-0.6644,-0.6777,-0.7205,-0.767,-0.8452,-0.8807,-0.9119,-0.9607,-0.9945,-1.0104,-1.0168,-1.046,-1.0593,-1.0656,-1.0996,-1.1694,-1.1973,-1.2128,-1.307,-1.4013,-1.4469,-1.4686,-1.4961,-1.5167,-1.5284,-1.5478,-1.5748,-1.6582,-1.7663,-1.8469,1.7171,1.5832,1.5825,1.5825,1.5825,1.5825,1.5825,1.5825,1.5825,1.5778,1.573,1.5737,1.5689,1.5642,1.5635,1.5642,1.5642,1.5594,1.5588,1.5452,1.5404,1.5267,1.5035,1.4981,1.4933,1.4885,1.4592,1.4244,1.3974,1.366,1.3414,1.3409,1.225,1.1463,1.1235,1.0187,0.954,0.9492,0.8667,0.7881,0.7445,0.7228,0.7095,0.7095,0.7095,0.7095,0.7095,0.7095,0.7095,0.7065,0.6878,0.6644,0.638,0.61,0.599,0.5867,0.5512,0.504,0.4533,0.3986,0.3558,0.3088,0.2542,0.1957,0.1371,0.051,0.0,0.0,0.0,0.0,0.0,0.0,0.0,0.0,-0.0471,-0.1137,-0.1841,-0.2815,-0.3828,-0.4414,-0.4924,-0.5434,-0.5944,-0.6219,-0.6296,-0.6338,-0.6377,-0.6597,-0.6734,-0.7282,-0.7708,-0.8108,-0.8865,-0.9236,-0.9486,-0.9805,-1.0136,-1.0396,-1.053,-1.0933,-1.1365,-1.1763,-1.2097,-1.2612,-1.3312,-1.3803,-1.4321,-1.4813,-1.499,-1.5117,-1.5332,-1.5604,-1.594,-1.6839,-1.7534,1.8149,1.7124,1.6622,1.6716,1.6943,1.6204,1.6015,1.6346,1.6015,1.5825,1.5825,1.5825,1.5825,1.5825,1.5825,1.5825,1.5825,1.5825,1.5737,1.5635,1.5588,1.5493,1.5356,1.5267,1.5178,1.5131,1.5077,1.4921,1.4823,1.4528,1.4161,1.3912,1.2921,1.2367,1.2156,1.1202,1.0529,1.0448,0.9628,0.8886,0.8145,0.7705,0.7183,0.7095,0.7139,0.7183,0.7095,0.7095,0.7095,0.7018,0.6861,0.6576,0.6405,0.6229,0.6261,0.6219,0.6141,0.6103,0.5592,0.5082,0.4649,0.4181,0.3476,0.2735,0.2425,0.1566,0.0471,0.0,0.0,0.0,0.0,0.0,0.0,0.0,0.0,-0.0667,-0.1333,-0.2074,-0.2893,-0.3519,-0.4027,-0.453,-0.504,-0.5512,-0.5709,-0.63,-0.63,-0.63,-0.6405,-0.6401,-0.6765,-0.7099,-0.7846,-0.8587,-0.8994,-0.9384,-0.9741,-1.0034,-1.0301,-1.0618,-1.0989,-1.1577,-1.2097,-1.2305,-1.2642,-1.323,-1.3743,-1.4321,-1.4813,-1.5029,-1.5245,-1.5488,-1.5806,-1.6083,-1.6662,1.9109,1.8888,1.7924,1.7971,1.8473,1.6983,1.6622,1.7044,1.6393,1.6015,1.6109,1.6062,1.5974,1.5825,1.5825,1.5825,1.5825,1.5825,1.5784,1.5784,1.5778,1.5635,1.5588,1.5499,1.541,1.5315,1.5267,1.5162,1.501,1.4695,1.4409,1.411,1.3762,1.333,1.29,1.2235,1.1585,1.1408,1.0842,1.0269,0.9401,0.8444,0.7921,0.7573,0.7441,0.7445,0.7489,0.7489,0.7533,0.7114,0.6985,0.6566,0.6402,0.63,0.63,0.63,0.63,0.6261,0.6064,0.5592,0.5318,0.4924,0.4139,0.3671,0.3398,0.2657,0.1527,0.0,0.0,0.0,0.0,0.0,0.0,0.0,0.0,0.0,0.0,0.0,-0.1919,-0.2545,-0.3051,-0.3595,-0.4139,-0.4611,-0.5157,-0.5825,-0.6141,-0.6219,-0.6259,-0.6201,-0.6324,-0.6486,-0.683,-0.7536,-0.8187,-0.8705,-0.9058,-0.9512,-0.9779,-1.0168,-1.0555,-1.1076,-1.1421,-1.1514,-1.195,-1.2558,-1.3191,-1.3765,-1.4261,-1.4813,-1.5137,-1.5362,-1.5478,-1.5758,-1.5968,2.0718,1.994,1.8934,1.865,1.8742,1.8326,1.787,1.7326,1.7138,1.6998,1.6998,1.6951,1.6629,1.5825,1.5825,1.5825,1.5825,1.5825,1.5825,1.5825,1.5825,1.5778,1.573,1.5683,1.5689,1.5642,1.552,1.5409,1.5137,1.4773,1.436,1.3957,1.3633,1.3382,1.3308,1.2839,1.2577,1.2357,1.1929,1.1359,1.1058,1.0274,0.9575,0.9357,0.9357,0.9357,0.9357,0.9353,0.8925,0.8222,0.7274,0.6715,0.6369,0.63,0.63,0.63,0.63,0.63,0.6103,0.5986,0.5789,0.5828,0.5237,0.504,0.4688,0.4178,0.3164,0.2308,0.0,0.0,0.0,0.0,0.0,0.0,0.0,0.0,0.0,0.0,-0.0902,-0.145,-0.1919,-0.2542,-0.3242,-0.3671,-0.41,-0.4688,-0.5157,-0.5315,-0.5935,-0.5926,-0.5878,-0.6039,-0.6108,-0.624,-0.6762,-0.7647,-0.8156,-0.8705,-0.9352,-0.9843,-1.0238,-1.0523,-1.0776,-1.1021,-1.1365,-1.1911,-1.252,-1.3191,-1.3893,-1.4478,-1.497,-1.5244,-1.5323,-1.543,-1.5671]}]]